[[{"header":{"parameterUnit":"m.s-1","parameterCategory":1,"la1":31.0,"la2":29.5877,"lo1":-88.7671,"lo2":-86.6584,"dy":0.0162,"dx":0.0185,"nx":115,"ny":88,"refTime":"2023-08-20T12:00:00:Z","depth":0,"parameterNumber":2,"parameterNumberName":"U-component_of_WINDS"},"data":[0.0,0.0,0.0,0.0,0.0,0.0,0.0,0.0,0.0,0.0,0.0,0.0,0.0,0.0,0.0,0.0,0.0,0.0,0.0,0.0,0.0,0.0,0.0,0.0,0.0,0.0,0.0,0.0,0.0,0.0,0.0,0.0,0.0,0.0,0.0,0.0,0.0,0.0,0.0,0.0,0.0,0.0,0.0,0.0,0.0,0.0,0.0,0.0,0.0,0.0,0.0,0.0,0.0,0.0,0.0,0.0,0.0,0.0,0.0,0.0,0.0,0.0,0.0,0.0,0.0,0.0,0.0,0.0,0.0,0.0,0.0,0.0,0.0,0.0,0.0,0.0,0.0,0.0,0.0,0.0,0.0,0.0,0.0,0.0,0.0,0.0,0.0,0.0,0.0,0.0,0.0,0.0,0.0,0.0,0.0,0.0,0.0,0.0,0.0,0.0,0.0,0.0,0.0,0.0,0.0,0.0,0.0,0.0,0.0,0.0,0.0,0.0,0.0,0.0,0.0,0.0,0.0,0.0,0.0,0.0,0.0,0.0,0.0,0.0,0.0,0.0,0.0,0.0,0.0,0.0,0.0,0.0,0.0,0.0,0.0,0.0,0.0,0.0,0.0,0.0,0.0,0.0,0.0,0.0,0.0,0.0,0.0,0.0,0.0,0.0,0.0,0.0,0.0,0.0,0.0,0.0,0.0,0.0,0.0,0.0,0.0,0.0,0.0,0.0,0.0,0.0,0.0,0.0,0.0,0.0,0.0,0.0,0.0,0.0,0.0,0.0,0.0,0.0,0.0,0.0,0.0,0.0,0.0,0.0,0.0,0.0,0.0,0.0,0.0,0.0,0.0,0.0,0.0,0.0,0.0,0.0,0.0,0.0,0.0,0.0,0.0,0.0,0.0,0.0,0.0,0.0,0.0,0.0,0.0,0.0,0.0,0.0,0.0,0.0,0.0,0.0,0.0,0.0,0.0,0.0,0.0,0.0,0.0,0.0,0.0,0.0,0.0,0.0,0.0,0.0,0.0,0.0,0.0,0.0,0.0,0.0,0.0,0.0,0.0,0.0,0.0,0.0,0.0,0.0,0.0,0.0,0.0,0.0,0.0,0.0,0.0,0.0,0.0,0.0,0.0,0.0,0.0,0.0,0.0,0.0,0.0,0.0,0.0,0.0,0.0,0.0,0.0,0.0,0.0,0.0,0.0,0.0,0.0,0.0,0.0,0.0,0.0,0.0,0.0,0.0,0.0,0.0,0.0,0.0,0.0,0.0,0.0,0.0,0.0,0.0,0.0,0.0,0.0,0.0,0.0,0.0,0.0,0.0,0.0,0.0,0.0,0.0,0.0,0.0,0.0,0.0,0.0,0.0,0.0,0.0,0.0,0.0,0.0,0.0,0.0,0.0,0.0,0.0,0.0,0.0,0.0,0.0,0.0,0.0,0.0,0.0,0.0,0.0,0.0,0.0,0.0,0.0,0.0,0.0,0.0,0.0,0.0,0.0,0.0,0.0,0.0,0.0,0.0,0.0,0.0,0.0,0.0,0.0,0.0,0.0,0.0,0.0,0.0,0.0,0.0,0.0,0.0,0.0,0.0,0.0,0.0,0.0,0.0,0.0,0.0,0.0,0.0,0.0,0.0,0.0,0.0,0.0,0.0,0.0,0.0,0.0,0.0,0.0,0.0,0.0,0.0,0.0,0.0,0.0,0.0,0.0,0.0,0.0,0.0,0.0,0.0,0.0,0.0,0.0,0.0,0.0,0.0,0.0,0.0,0.0,0.0,0.0,0.0,0.0,0.0,0.0,0.0,0.0,0.0,0.0,0.0,0.0,0.0,0.0,0.0,0.0,0.0,0.0,0.0,0.0,0.0,0.0,0.0,0.0,0.0,0.0,0.0,0.0,0.0,0.0,0.0,0.0,0.0,0.0,0.0,0.0,0.0,0.0,0.0,0.0,0.0,0.0,0.0,0.0,0.0,0.0,0.0,0.0,0.0,0.0,0.0,0.0,0.0,0.0,0.0,0.0,0.0,0.0,0.0,0.0,0.0,0.0,0.0,0.0,0.0,0.0,0.0,0.0,0.0,0.0,0.0,0.0,0.0,0.0,0.0,0.0,0.0,0.0,0.0,0.0,0.0,0.0,0.0,0.0,0.0,0.0,0.0,0.0,0.0,0.0,0.0,0.0,0.0,0.0,0.0,0.0,0.0,0.0,0.0,0.0,0.0,0.0,0.0,0.0,0.0,0.0,0.0,0.0,0.0,0.0,0.0,0.0,0.0,0.0,0.0,0.0,0.0,0.0,0.0,0.0,0.0,0.0,0.0,0.0,0.0,0.0,0.0,0.0,0.0,0.0,0.0,0.0,0.0,0.0,0.0,0.0,0.0,0.0,0.0,0.0,0.0,0.0,0.0,0.0,0.0,0.0,0.0,0.0,0.0,0.0,0.0,0.0,0.0,0.0,0.0,0.0,0.0,0.0,0.0,0.0,0.0,0.0,0.0,0.0,0.0,0.0,0.0,0.0,0.0,0.0,0.0,0.0,0.0,0.0,0.0,0.0,0.0,0.0,0.0,0.0,0.0,0.0,0.0,0.0,0.0,0.0,0.0,0.0,0.0,0.0,0.0,0.0,0.0,0.0,0.0,0.0,0.0,0.0,0.0,0.0,0.0,0.0,0.0,0.0,0.0,0.0,0.0,0.0,0.0,0.0,0.0,0.0,0.0,0.0,0.0,0.0,0.0,0.0,0.0,0.0,0.0,0.0,0.0,0.0,0.0,0.0,0.0,0.0,0.0,0.0,0.0,0.0,0.0,0.0,0.0,0.0,0.0,0.0,0.0,0.0,0.0,0.0,0.0,0.0,0.0,0.0,0.0,0.0,0.0,0.0,0.0,0.0,0.0,0.0,0.0,0.0,0.0,0.0,0.0,0.0,0.0,0.0,0.0,0.0,0.0,0.0,0.0,0.0,0.0,0.0,0.0,0.0,0.0,0.0,0.0,0.0,0.0,0.0,0.0,0.0,0.0,0.0,0.0,0.0,0.0,0.0,0.0,0.0,0.0,0.0,0.0,0.0,0.0,0.0,0.0,0.0,0.0,0.0,0.0,0.0,0.0,0.0,0.0,0.0,0.0,0.0,0.0,0.0,0.0,0.0,0.0,0.0,0.0,0.0,0.0,0.0,0.0,0.0,0.0,0.0,0.0,0.0,0.0,0.0,0.0,0.0,0.0,0.0,0.0,0.0,0.0,0.0,0.0,0.0,0.0,0.0,0.0,0.0,0.0,0.0,0.0,0.0,0.0,0.0,0.0,0.0,0.0,0.0,0.0,0.0,0.0,0.0,0.0,0.0,0.0,0.0,0.0,0.0,0.0,0.0,0.0,0.0,0.0,0.0,0.0,0.0,0.0,0.0,0.0,0.0,0.0,0.0,0.0,0.0,0.0,0.0,0.0,0.0,0.0,0.0,0.0,0.0,0.0,0.0,0.0,0.0,0.0,0.0,0.0,0.0,0.0,0.0,0.0,0.0,0.0,0.0,0.0,0.0,0.0,0.0,0.0,0.0,0.0,0.0,0.0,0.0,0.0,0.0,0.0,0.0,0.0,0.0,0.0,0.0,0.0,0.0,0.0,0.0,0.0,0.0,0.0,0.0,0.0,0.0,0.0,0.0,0.0,0.0,0.0,0.0,0.0,0.0,0.0,0.0,0.0,0.0,0.0,0.0,0.0,0.0,0.0,0.0,0.0,0.0,0.0,0.0,0.0,0.0,0.0,0.0,0.0,0.0,0.0,0.0,0.0,0.0,0.0,0.0,0.0,0.0,0.0,0.0,0.0,0.0,0.0,0.0,0.0,0.0,0.0,0.0,0.0,0.0,0.0,0.0,0.0,0.0,0.0,0.0,0.0,0.0,0.0,0.0,0.0,0.0,0.0,0.0,0.0,0.0,0.0,0.0,0.0,0.0,0.0,0.0,0.0,0.0,0.0,0.0,0.0,0.0,0.0,0.0,0.0,0.0,0.0,0.0,0.0,0.0,0.0,0.0,0.0,0.0,0.0,0.0,0.0,0.0,0.0,0.0,0.0,0.0,0.0,0.0,0.0,0.0,0.0,0.0,0.0,0.0,0.0,0.0,0.0,0.0,0.0,0.0,0.0,0.0,0.0,0.0,0.0,0.0,0.0,0.0,0.0,0.0,0.0,0.0,0.0,0.0,0.0,0.0,0.0,0.0,0.0,0.0,0.0,0.0,0.0,0.0,0.0,0.0,0.0,0.0,0.0,0.0,0.0,0.0,-3.4492,0.0,0.0,0.0,0.0,0.0,0.0,0.0,0.0,0.0,0.0,0.0,0.0,0.0,0.0,0.0,0.0,0.0,0.0,0.0,0.0,0.0,0.0,0.0,0.0,0.0,0.0,0.0,0.0,0.0,0.0,0.0,0.0,0.0,0.0,0.0,0.0,0.0,0.0,0.0,0.0,0.0,0.0,0.0,0.0,0.0,0.0,0.0,0.0,0.0,0.0,0.0,0.0,0.0,0.0,0.0,0.0,0.0,0.0,0.0,0.0,0.0,0.0,0.0,0.0,0.0,0.0,0.0,0.0,0.0,0.0,0.0,0.0,0.0,0.0,0.0,0.0,0.0,0.0,0.0,0.0,0.0,0.0,0.0,0.0,0.0,0.0,0.0,0.0,0.0,0.0,0.0,0.0,0.0,0.0,0.0,0.0,0.0,0.0,0.0,0.0,0.0,0.0,0.0,0.0,0.0,0.0,0.0,0.0,0.0,0.0,-3.5738,-3.783,-3.7907,-3.7078,-3.5323,0.0,0.0,0.0,0.0,0.0,0.0,0.0,0.0,0.0,0.0,0.0,0.0,0.0,0.0,0.0,0.0,0.0,0.0,0.0,0.0,0.0,0.0,0.0,0.0,0.0,0.0,0.0,0.0,0.0,0.0,0.0,0.0,0.0,0.0,0.0,0.0,0.0,0.0,0.0,0.0,0.0,0.0,0.0,0.0,0.0,0.0,0.0,0.0,0.0,0.0,0.0,0.0,0.0,0.0,0.0,0.0,0.0,0.0,0.0,0.0,0.0,0.0,0.0,0.0,0.0,0.0,0.0,0.0,0.0,0.0,0.0,0.0,0.0,0.0,0.0,0.0,0.0,0.0,0.0,0.0,0.0,0.0,0.0,0.0,0.0,0.0,0.0,0.0,0.0,0.0,0.0,0.0,0.0,0.0,0.0,0.0,0.0,0.0,0.0,0.0,0.0,0.0,0.0,0.0,0.0,0.0,0.0,0.0,0.0,0.0,0.0,0.0,-3.7899,-3.7037,-3.524,0.0,0.0,0.0,0.0,0.0,0.0,0.0,0.0,0.0,0.0,0.0,0.0,0.0,0.0,0.0,0.0,0.0,0.0,0.0,0.0,0.0,0.0,0.0,0.0,0.0,0.0,0.0,0.0,0.0,0.0,0.0,0.0,0.0,0.0,0.0,0.0,0.0,0.0,0.0,0.0,0.0,0.0,0.0,0.0,0.0,0.0,0.0,0.0,0.0,0.0,0.0,0.0,0.0,0.0,0.0,0.0,0.0,0.0,0.0,0.0,0.0,0.0,0.0,0.0,0.0,0.0,0.0,0.0,0.0,0.0,0.0,0.0,0.0,0.0,0.0,0.0,0.0,0.0,0.0,0.0,0.0,0.0,0.0,0.0,0.0,0.0,0.0,0.0,0.0,0.0,0.0,0.0,0.0,0.0,0.0,0.0,0.0,0.0,0.0,0.0,0.0,0.0,0.0,0.0,0.0,0.0,0.0,0.0,0.0,0.0,-3.5156,-3.61,-3.6098,0.0,-3.3453,0.0,0.0,0.0,0.0,0.0,0.0,0.0,0.0,0.0,0.0,0.0,0.0,0.0,0.0,0.0,0.0,0.0,0.0,0.0,0.0,0.0,0.0,0.0,0.0,0.0,0.0,0.0,0.0,0.0,0.0,0.0,0.0,0.0,0.0,0.0,0.0,0.0,0.0,0.0,0.0,0.0,0.0,0.0,0.0,0.0,0.0,0.0,0.0,0.0,0.0,0.0,0.0,0.0,0.0,0.0,0.0,0.0,0.0,0.0,0.0,0.0,0.0,0.0,0.0,0.0,0.0,0.0,0.0,0.0,0.0,0.0,0.0,0.0,0.0,0.0,0.0,0.0,0.0,0.0,0.0,0.0,0.0,0.0,0.0,0.0,0.0,0.0,0.0,0.0,0.0,0.0,0.0,0.0,0.0,0.0,0.0,0.0,0.0,0.0,0.0,0.0,0.0,0.0,0.0,0.0,0.0,0.0,0.0,0.0,0.0,-3.457,-3.5862,-3.5789,-3.5588,0.0,0.0,0.0,0.0,0.0,0.0,0.0,0.0,0.0,0.0,0.0,0.0,0.0,0.0,0.0,0.0,0.0,0.0,0.0,0.0,0.0,0.0,0.0,0.0,0.0,0.0,0.0,0.0,0.0,0.0,0.0,0.0,0.0,0.0,0.0,0.0,0.0,0.0,0.0,0.0,0.0,0.0,0.0,0.0,0.0,0.0,0.0,0.0,0.0,0.0,0.0,0.0,0.0,0.0,0.0,0.0,0.0,0.0,0.0,0.0,0.0,0.0,0.0,0.0,0.0,0.0,0.0,0.0,0.0,0.0,0.0,0.0,0.0,0.0,0.0,0.0,0.0,0.0,0.0,0.0,0.0,0.0,0.0,0.0,0.0,0.0,0.0,0.0,0.0,0.0,0.0,0.0,0.0,0.0,0.0,0.0,0.0,0.0,0.0,0.0,0.0,0.0,0.0,0.0,0.0,0.0,0.0,0.0,0.0,0.0,-3.2948,-3.3631,-3.4755,-3.4954,-3.5141,-3.5411,0.0,0.0,0.0,0.0,0.0,0.0,0.0,0.0,0.0,0.0,0.0,0.0,0.0,0.0,0.0,0.0,0.0,0.0,0.0,0.0,0.0,0.0,0.0,0.0,0.0,0.0,0.0,0.0,0.0,0.0,0.0,0.0,0.0,0.0,0.0,0.0,0.0,0.0,0.0,0.0,0.0,0.0,0.0,0.0,0.0,0.0,0.0,0.0,0.0,0.0,0.0,0.0,0.0,0.0,0.0,0.0,0.0,0.0,0.0,0.0,0.0,0.0,0.0,0.0,0.0,0.0,0.0,0.0,0.0,0.0,0.0,0.0,0.0,0.0,0.0,0.0,0.0,0.0,0.0,0.0,0.0,0.0,0.0,0.0,0.0,0.0,0.0,0.0,0.0,0.0,0.0,0.0,0.0,0.0,0.0,0.0,0.0,0.0,0.0,0.0,0.0,0.0,0.0,0.0,0.0,0.0,0.0,0.0,-3.1055,-3.1816,-3.2238,-3.2243,-3.2909,-3.2908,0.0,0.0,0.0,0.0,0.0,0.0,0.0,0.0,0.0,0.0,0.0,0.0,0.0,0.0,0.0,0.0,0.0,0.0,0.0,0.0,0.0,0.0,0.0,0.0,0.0,0.0,0.0,0.0,0.0,0.0,0.0,0.0,0.0,0.0,0.0,0.0,0.0,0.0,0.0,0.0,0.0,0.0,0.0,0.0,0.0,0.0,0.0,0.0,0.0,0.0,0.0,0.0,0.0,0.0,0.0,0.0,0.0,0.0,0.0,0.0,0.0,0.0,0.0,0.0,0.0,0.0,0.0,0.0,0.0,0.0,0.0,0.0,0.0,0.0,0.0,0.0,0.0,0.0,0.0,0.0,0.0,0.0,0.0,0.0,0.0,0.0,0.0,0.0,0.0,0.0,0.0,0.0,0.0,0.0,0.0,0.0,0.0,0.0,0.0,0.0,0.0,0.0,0.0,0.0,0.0,0.0,0.0,0.0,0.0,-3.0918,-3.1191,-3.1551,-3.1921,-3.2227,-3.2411,0.0,0.0,0.0,0.0,0.0,0.0,0.0,0.0,0.0,0.0,0.0,0.0,0.0,0.0,0.0,0.0,0.0,0.0,0.0,0.0,0.0,0.0,0.0,0.0,0.0,0.0,0.0,0.0,0.0,0.0,0.0,0.0,0.0,0.0,0.0,0.0,0.0,0.0,0.0,0.0,0.0,0.0,0.0,0.0,0.0,0.0,0.0,0.0,0.0,0.0,0.0,0.0,0.0,0.0,0.0,0.0,0.0,0.0,0.0,0.0,0.0,0.0,0.0,0.0,0.0,0.0,0.0,0.0,0.0,0.0,0.0,0.0,0.0,0.0,0.0,0.0,0.0,0.0,0.0,0.0,0.0,0.0,0.0,0.0,0.0,0.0,0.0,0.0,0.0,0.0,0.0,0.0,0.0,0.0,0.0,0.0,0.0,0.0,0.0,0.0,0.0,0.0,0.0,0.0,0.0,0.0,0.0,0.0,0.0,-3.0898,0.0,-3.1047,-3.1459,-3.1446,-3.1663,0.0,0.0,0.0,0.0,0.0,0.0,0.0,0.0,0.0,0.0,0.0,0.0,0.0,0.0,0.0,0.0,0.0,0.0,0.0,0.0,0.0,0.0,0.0,0.0,0.0,0.0,0.0,0.0,0.0,0.0,0.0,0.0,0.0,0.0,0.0,0.0,0.0,0.0,0.0,0.0,0.0,0.0,0.0,0.0,0.0,0.0,0.0,0.0,0.0,0.0,0.0,0.0,0.0,0.0,0.0,0.0,0.0,0.0,0.0,0.0,0.0,0.0,0.0,0.0,0.0,0.0,0.0,0.0,0.0,0.0,0.0,0.0,0.0,0.0,0.0,0.0,0.0,0.0,0.0,0.0,0.0,0.0,0.0,0.0,0.0,0.0,0.0,0.0,0.0,0.0,0.0,0.0,0.0,0.0,0.0,0.0,0.0,0.0,0.0,0.0,0.0,0.0,0.0,0.0,0.0,0.0,0.0,0.0,-3.0896,-3.0894,-3.0777,-3.0678,-3.0604,-3.0572,-3.0501,0.0,0.0,0.0,0.0,0.0,0.0,0.0,0.0,0.0,0.0,0.0,0.0,0.0,0.0,0.0,0.0,0.0,0.0,0.0,0.0,0.0,0.0,0.0,0.0,0.0,0.0,0.0,0.0,0.0,0.0,0.0,0.0,0.0,0.0,0.0,0.0,0.0,0.0,0.0,0.0,0.0,0.0,0.0,0.0,0.0,0.0,0.0,0.0,0.0,0.0,0.0,0.0,0.0,0.0,0.0,0.0,0.0,0.0,0.0,0.0,0.0,0.0,0.0,0.0,0.0,0.0,0.0,0.0,0.0,0.0,0.0,0.0,0.0,0.0,0.0,0.0,0.0,0.0,0.0,0.0,0.0,0.0,0.0,0.0,0.0,0.0,0.0,0.0,0.0,0.0,0.0,0.0,0.0,0.0,0.0,0.0,0.0,0.0,0.0,0.0,0.0,0.0,0.0,0.0,0.0,0.0,0.0,0.0,0.0,-3.0755,-3.0707,-3.066,-3.0533,-3.0516,-3.0458,0.0,0.0,0.0,0.0,0.0,0.0,0.0,0.0,0.0,0.0,0.0,0.0,0.0,0.0,0.0,0.0,0.0,0.0,0.0,0.0,0.0,0.0,0.0,0.0,0.0,0.0,0.0,0.0,0.0,0.0,0.0,0.0,0.0,0.0,0.0,0.0,0.0,0.0,0.0,0.0,0.0,0.0,0.0,0.0,0.0,0.0,0.0,0.0,0.0,0.0,0.0,0.0,0.0,0.0,0.0,0.0,0.0,0.0,0.0,0.0,0.0,0.0,0.0,0.0,0.0,0.0,0.0,0.0,0.0,0.0,0.0,0.0,0.0,0.0,0.0,0.0,0.0,0.0,0.0,0.0,0.0,0.0,0.0,0.0,0.0,0.0,0.0,0.0,0.0,0.0,0.0,0.0,0.0,0.0,0.0,0.0,0.0,0.0,0.0,0.0,0.0,0.0,0.0,0.0,0.0,0.0,0.0,0.0,0.0,-3.0634,-3.0611,-3.0587,-3.049,-3.0487,-3.0446,-3.0385,0.0,0.0,0.0,0.0,0.0,0.0,0.0,0.0,0.0,0.0,0.0,0.0,0.0,0.0,0.0,0.0,0.0,0.0,0.0,0.0,0.0,0.0,0.0,0.0,0.0,0.0,0.0,0.0,0.0,0.0,0.0,0.0,0.0,0.0,0.0,0.0,0.0,0.0,0.0,0.0,0.0,0.0,0.0,0.0,0.0,0.0,0.0,0.0,0.0,0.0,0.0,0.0,0.0,0.0,0.0,0.0,0.0,0.0,0.0,0.0,0.0,0.0,0.0,0.0,0.0,0.0,0.0,0.0,0.0,0.0,0.0,0.0,0.0,0.0,0.0,0.0,0.0,0.0,0.0,0.0,0.0,0.0,0.0,0.0,0.0,0.0,0.0,0.0,0.0,0.0,0.0,0.0,0.0,0.0,0.0,0.0,0.0,0.0,0.0,0.0,0.0,0.0,0.0,0.0,0.0,0.0,0.0,0.0,-3.0482,-3.0492,-3.0492,-3.0492,-3.0428,-3.0404,0.0,0.0,0.0,0.0,0.0,0.0,0.0,0.0,0.0,0.0,0.0,0.0,0.0,0.0,0.0,0.0,0.0,0.0,0.0,0.0,0.0,0.0,0.0,0.0,0.0,0.0,0.0,0.0,0.0,0.0,0.0,0.0,0.0,0.0,0.0,0.0,0.0,0.0,0.0,0.0,0.0,0.0,0.0,0.0,0.0,0.0,0.0,0.0,0.0,0.0,0.0,0.0,0.0,0.0,0.0,0.0,0.0,0.0,0.0,0.0,0.0,0.0,0.0,0.0,0.0,0.0,0.0,0.0,0.0,0.0,0.0,0.0,0.0,0.0,0.0,0.0,0.0,0.0,0.0,0.0,0.0,0.0,0.0,0.0,0.0,0.0,0.0,0.0,0.0,0.0,0.0,0.0,0.0,0.0,0.0,0.0,0.0,0.0,0.0,0.0,0.0,0.0,0.0,0.0,0.0,0.0,0.0,0.0,0.0,-3.0506,-3.046,-3.0431,-3.0431,-3.0402,-3.0373,0.0,0.0,0.0,0.0,0.0,0.0,0.0,0.0,0.0,0.0,0.0,0.0,0.0,0.0,0.0,0.0,0.0,0.0,0.0,0.0,0.0,0.0,0.0,0.0,0.0,0.0,0.0,0.0,0.0,0.0,0.0,0.0,0.0,0.0,0.0,0.0,0.0,0.0,0.0,0.0,0.0,0.0,0.0,0.0,0.0,0.0,0.0,0.0,0.0,0.0,0.0,0.0,0.0,0.0,0.0,0.0,0.0,0.0,0.0,0.0,0.0,0.0,0.0,0.0,0.0,0.0,0.0,0.0,0.0,0.0,0.0,0.0,0.0,0.0,0.0,0.0,0.0,0.0,0.0,0.0,0.0,0.0,0.0,0.0,0.0,0.0,0.0,0.0,0.0,0.0,0.0,0.0,0.0,0.0,0.0,0.0,0.0,0.0,0.0,0.0,0.0,0.0,0.0,0.0,0.0,0.0,0.0,0.0,-3.0556,-3.0451,-3.0419,-3.0404,-3.0404,-3.0404,-3.0379,0.0,0.0,0.0,0.0,0.0,0.0,0.0,0.0,0.0,0.0,0.0,0.0,0.0,0.0,0.0,0.0,0.0,0.0,0.0,0.0,0.0,0.0,0.0,0.0,0.0,0.0,0.0,0.0,0.0,0.0,0.0,0.0,0.0,0.0,0.0,0.0,0.0,0.0,0.0,0.0,0.0,0.0,0.0,0.0,0.0,0.0,0.0,0.0,0.0,0.0,0.0,0.0,0.0,0.0,0.0,0.0,0.0,0.0,0.0,0.0,0.0,0.0,0.0,0.0,0.0,0.0,0.0,0.0,0.0,0.0,0.0,0.0,0.0,0.0,0.0,0.0,0.0,0.0,0.0,0.0,0.0,0.0,0.0,0.0,0.0,0.0,0.0,0.0,0.0,0.0,0.0,0.0,0.0,0.0,0.0,0.0,0.0,0.0,0.0,0.0,0.0,0.0,0.0,0.0,0.0,0.0,0.0,0.0,-3.0522,-3.039,-3.0404,-3.0404,-3.0404,-3.0404,-3.0398,0.0,0.0,0.0,0.0,0.0,0.0,0.0,0.0,0.0,0.0,0.0,0.0,0.0,0.0,0.0,0.0,0.0,0.0,0.0,0.0,0.0,0.0,0.0,0.0,0.0,0.0,0.0,0.0,0.0,0.0,0.0,0.0,0.0,0.0,0.0,0.0,0.0,0.0,0.0,0.0,0.0,0.0,0.0,0.0,0.0,0.0,0.0,0.0,0.0,0.0,0.0,0.0,0.0,0.0,0.0,0.0,0.0,0.0,0.0,0.0,0.0,0.0,0.0,0.0,0.0,0.0,0.0,0.0,0.0,0.0,0.0,0.0,0.0,0.0,0.0,0.0,0.0,0.0,0.0,0.0,0.0,0.0,0.0,0.0,0.0,0.0,0.0,0.0,0.0,0.0,0.0,0.0,0.0,0.0,0.0,0.0,0.0,0.0,0.0,0.0,0.0,0.0,0.0,0.0,0.0,0.0,0.0,0.0,-3.0492,-3.039,-3.0404,-3.0404,-3.0404,-3.0404,-3.0361,0.0,0.0,0.0,0.0,0.0,0.0,0.0,0.0,0.0,0.0,0.0,0.0,0.0,0.0,0.0,0.0,0.0,0.0,0.0,0.0,0.0,0.0,0.0,0.0,0.0,0.0,0.0,0.0,0.0,0.0,0.0,0.0,0.0,0.0,0.0,0.0,0.0,0.0,0.0,0.0,0.0,0.0,0.0,0.0,0.0,0.0,0.0,0.0,-3.5559,0.0,0.0,0.0,0.0,0.0,0.0,0.0,0.0,0.0,0.0,0.0,0.0,0.0,0.0,0.0,0.0,0.0,0.0,0.0,0.0,0.0,0.0,0.0,0.0,0.0,0.0,0.0,0.0,0.0,0.0,0.0,0.0,0.0,0.0,0.0,0.0,0.0,0.0,0.0,0.0,0.0,0.0,0.0,0.0,0.0,0.0,0.0,0.0,0.0,0.0,0.0,0.0,0.0,0.0,0.0,0.0,0.0,0.0,0.0,-3.0467,-3.041,-3.0404,-3.0404,-3.0398,-3.0273,-3.0208,0.0,0.0,0.0,0.0,0.0,0.0,0.0,0.0,0.0,0.0,0.0,0.0,0.0,0.0,0.0,0.0,0.0,0.0,0.0,0.0,0.0,0.0,0.0,0.0,0.0,0.0,0.0,0.0,0.0,0.0,0.0,0.0,0.0,0.0,0.0,0.0,0.0,0.0,0.0,0.0,0.0,0.0,0.0,0.0,0.0,0.0,0.0,0.0,0.0,0.0,0.0,0.0,0.0,0.0,0.0,0.0,0.0,0.0,0.0,0.0,0.0,0.0,0.0,0.0,0.0,0.0,0.0,0.0,0.0,0.0,0.0,0.0,0.0,0.0,0.0,0.0,0.0,0.0,0.0,0.0,0.0,0.0,0.0,0.0,0.0,0.0,0.0,0.0,0.0,0.0,0.0,0.0,0.0,0.0,0.0,0.0,0.0,0.0,0.0,0.0,0.0,0.0,0.0,0.0,0.0,0.0,0.0,-3.0524,-3.0446,-3.039,-3.0404,-3.0404,-3.0404,-3.0143,-2.9991,-2.9954,0.0,0.0,0.0,0.0,0.0,0.0,0.0,0.0,0.0,0.0,0.0,0.0,0.0,0.0,0.0,0.0,0.0,0.0,0.0,0.0,0.0,0.0,0.0,0.0,0.0,0.0,0.0,0.0,0.0,0.0,0.0,0.0,0.0,0.0,0.0,0.0,0.0,0.0,-3.9641,-3.9075,0.0,0.0,0.0,0.0,0.0,0.0,0.0,0.0,-3.5373,0.0,0.0,0.0,0.0,0.0,0.0,0.0,0.0,0.0,0.0,0.0,0.0,0.0,0.0,0.0,0.0,0.0,0.0,0.0,0.0,0.0,0.0,0.0,0.0,0.0,0.0,0.0,0.0,0.0,0.0,0.0,0.0,0.0,0.0,0.0,0.0,0.0,0.0,0.0,0.0,0.0,0.0,0.0,0.0,0.0,0.0,0.0,0.0,0.0,0.0,0.0,0.0,0.0,0.0,0.0,0.0,-3.0511,-3.0444,-3.0402,-3.0404,-3.0404,-3.0404,-3.0398,-3.0124,-2.9924,-2.9765,0.0,0.0,0.0,0.0,0.0,0.0,0.0,0.0,0.0,0.0,0.0,0.0,0.0,0.0,0.0,0.0,0.0,0.0,0.0,0.0,0.0,0.0,0.0,0.0,0.0,0.0,0.0,0.0,0.0,0.0,0.0,0.0,0.0,0.0,0.0,0.0,0.0,0.0,0.0,-3.9658,-3.9218,0.0,0.0,0.0,0.0,0.0,0.0,0.0,0.0,-3.607,0.0,0.0,0.0,0.0,0.0,0.0,0.0,0.0,0.0,0.0,0.0,0.0,0.0,0.0,0.0,0.0,0.0,0.0,0.0,0.0,0.0,0.0,0.0,0.0,0.0,0.0,0.0,0.0,0.0,0.0,0.0,0.0,0.0,0.0,0.0,0.0,0.0,0.0,0.0,0.0,0.0,0.0,0.0,0.0,0.0,0.0,0.0,0.0,0.0,0.0,0.0,0.0,0.0,0.0,0.0,-3.0535,-3.0449,-3.0404,-3.0404,-3.0404,-3.0323,-3.0196,-2.9973,-2.9729,0.0,0.0,0.0,0.0,0.0,0.0,0.0,0.0,0.0,0.0,0.0,0.0,0.0,0.0,0.0,0.0,0.0,0.0,0.0,0.0,0.0,0.0,0.0,0.0,0.0,0.0,0.0,0.0,0.0,0.0,0.0,0.0,0.0,0.0,0.0,0.0,0.0,0.0,0.0,0.0,-3.9805,-3.9305,-3.7911,0.0,0.0,0.0,0.0,0.0,0.0,-3.603,-3.6406,0.0,0.0,0.0,0.0,0.0,0.0,0.0,0.0,0.0,0.0,0.0,0.0,0.0,0.0,0.0,0.0,0.0,0.0,0.0,0.0,0.0,0.0,0.0,0.0,0.0,0.0,0.0,0.0,0.0,0.0,0.0,0.0,0.0,0.0,0.0,0.0,0.0,0.0,0.0,0.0,0.0,0.0,0.0,0.0,0.0,0.0,0.0,0.0,0.0,0.0,0.0,0.0,0.0,0.0,0.0,-3.052,-3.0444,-3.0386,-3.0386,-3.0367,-3.0254,-2.9999,-2.9796,-2.957,0.0,0.0,0.0,0.0,0.0,0.0,0.0,0.0,0.0,0.0,0.0,0.0,0.0,0.0,0.0,0.0,0.0,0.0,0.0,0.0,0.0,0.0,0.0,0.0,0.0,0.0,0.0,0.0,0.0,0.0,0.0,0.0,0.0,0.0,0.0,0.0,0.0,0.0,0.0,0.0,0.0,-3.9013,-3.7588,-3.707,0.0,0.0,0.0,0.0,-3.6033,-3.6103,0.0,0.0,0.0,0.0,0.0,0.0,0.0,0.0,0.0,0.0,0.0,0.0,0.0,0.0,0.0,0.0,0.0,0.0,0.0,0.0,0.0,0.0,0.0,0.0,0.0,0.0,0.0,0.0,0.0,0.0,0.0,0.0,0.0,0.0,0.0,0.0,0.0,0.0,0.0,0.0,0.0,0.0,0.0,0.0,0.0,0.0,0.0,0.0,0.0,0.0,0.0,0.0,0.0,0.0,0.0,0.0,-3.0273,-3.0286,-3.0305,-3.0299,-3.0299,-3.0214,-3.0007,-2.9736,-2.9533,0.0,0.0,0.0,0.0,0.0,0.0,0.0,0.0,0.0,0.0,0.0,0.0,0.0,0.0,0.0,0.0,0.0,0.0,0.0,0.0,0.0,0.0,0.0,0.0,0.0,0.0,0.0,0.0,0.0,0.0,0.0,0.0,0.0,0.0,0.0,0.0,0.0,0.0,0.0,0.0,0.0,-3.8573,-3.8372,-3.695,-3.6111,0.0,0.0,-3.5397,-3.5133,-3.5695,0.0,0.0,0.0,0.0,0.0,0.0,0.0,0.0,0.0,0.0,0.0,0.0,0.0,0.0,0.0,0.0,0.0,0.0,0.0,0.0,0.0,0.0,0.0,0.0,0.0,0.0,0.0,0.0,0.0,0.0,0.0,0.0,0.0,0.0,0.0,0.0,0.0,0.0,0.0,0.0,0.0,0.0,0.0,0.0,0.0,0.0,0.0,0.0,0.0,0.0,0.0,0.0,0.0,0.0,0.0,-3.0433,-3.0308,-3.0299,-3.0312,-3.0312,-3.0312,-3.0133,-2.9788,-2.9658,-2.9447,0.0,0.0,0.0,0.0,0.0,0.0,0.0,0.0,0.0,0.0,0.0,0.0,0.0,0.0,0.0,0.0,0.0,0.0,0.0,0.0,0.0,0.0,0.0,0.0,0.0,0.0,0.0,0.0,0.0,0.0,0.0,0.0,0.0,0.0,0.0,0.0,0.0,0.0,0.0,0.0,0.0,0.0,-3.7173,-3.6319,0.0,0.0,0.0,-3.5546,-3.6179,0.0,0.0,0.0,0.0,0.0,0.0,0.0,0.0,0.0,0.0,0.0,0.0,0.0,0.0,0.0,0.0,0.0,0.0,0.0,0.0,0.0,0.0,0.0,0.0,0.0,0.0,0.0,0.0,0.0,0.0,0.0,0.0,0.0,0.0,0.0,0.0,0.0,0.0,0.0,0.0,0.0,0.0,0.0,0.0,0.0,0.0,0.0,0.0,0.0,0.0,0.0,0.0,0.0,0.0,0.0,0.0,0.0,-3.0337,-3.0299,-3.0286,-3.0286,-3.0266,-3.0049,-2.9624,-2.9606,0.0,0.0,0.0,0.0,0.0,0.0,0.0,0.0,0.0,0.0,0.0,0.0,0.0,0.0,0.0,0.0,0.0,0.0,0.0,0.0,0.0,0.0,0.0,0.0,0.0,0.0,0.0,-3.7371,0.0,0.0,0.0,0.0,0.0,0.0,0.0,0.0,0.0,0.0,0.0,0.0,0.0,0.0,-3.7292,-3.6613,-3.5908,-3.5461,0.0,0.0,-3.5531,-3.6468,-3.6704,-3.7244,0.0,0.0,0.0,0.0,0.0,0.0,0.0,0.0,0.0,0.0,0.0,0.0,0.0,0.0,0.0,0.0,0.0,0.0,0.0,0.0,0.0,0.0,0.0,0.0,0.0,0.0,0.0,0.0,0.0,0.0,0.0,0.0,0.0,0.0,0.0,0.0,0.0,0.0,0.0,0.0,0.0,0.0,0.0,0.0,0.0,0.0,0.0,0.0,0.0,0.0,0.0,0.0,0.0,0.0,0.0,-3.0219,-3.0218,-3.0218,-3.0218,-3.0211,-3.0026,-2.9607,-2.9608,-2.9415,0.0,0.0,0.0,0.0,0.0,0.0,0.0,0.0,0.0,0.0,0.0,0.0,0.0,0.0,0.0,0.0,0.0,0.0,0.0,0.0,0.0,0.0,0.0,0.0,0.0,0.0,0.0,0.0,0.0,0.0,0.0,0.0,0.0,0.0,0.0,0.0,0.0,0.0,0.0,0.0,0.0,-3.5693,-3.7926,-3.6153,-3.4739,0.0,0.0,-3.5115,-3.484,-3.5476,-3.6227,-3.6969,0.0,0.0,0.0,0.0,0.0,0.0,0.0,0.0,0.0,0.0,0.0,0.0,0.0,0.0,0.0,0.0,0.0,0.0,0.0,0.0,0.0,0.0,0.0,0.0,0.0,0.0,0.0,0.0,0.0,0.0,0.0,0.0,0.0,0.0,0.0,0.0,0.0,0.0,0.0,0.0,0.0,0.0,0.0,0.0,0.0,0.0,0.0,0.0,0.0,0.0,0.0,0.0,0.0,-3.026,-3.0204,-3.0204,-3.0204,-3.0204,-3.0204,-3.0258,-3.034,-3.0349,-3.0151,0.0,0.0,0.0,0.0,0.0,0.0,0.0,0.0,0.0,0.0,0.0,0.0,0.0,0.0,0.0,0.0,0.0,0.0,0.0,0.0,0.0,0.0,0.0,0.0,0.0,0.0,0.0,0.0,-3.3702,-3.3417,-3.2228,0.0,0.0,0.0,0.0,0.0,0.0,0.0,0.0,0.0,0.0,-3.6785,-3.6148,-3.5616,0.0,0.0,-3.5283,-3.5291,-3.5552,-3.5821,-3.6395,-3.7529,-3.8236,0.0,0.0,0.0,0.0,0.0,0.0,0.0,0.0,0.0,0.0,0.0,0.0,0.0,0.0,0.0,0.0,0.0,0.0,0.0,0.0,0.0,0.0,0.0,0.0,0.0,0.0,0.0,0.0,0.0,0.0,0.0,0.0,0.0,0.0,0.0,0.0,0.0,0.0,0.0,0.0,0.0,0.0,0.0,0.0,0.0,0.0,0.0,0.0,0.0,0.0,0.0,0.0,-3.0574,-3.0574,-3.0796,-3.0815,-3.0586,-3.0815,-3.0904,-3.079,-3.1034,-3.099,0.0,0.0,0.0,0.0,0.0,0.0,0.0,0.0,0.0,0.0,0.0,0.0,0.0,0.0,0.0,0.0,0.0,0.0,0.0,0.0,0.0,0.0,0.0,0.0,0.0,0.0,0.0,0.0,-3.2844,-3.2773,-3.2169,0.0,0.0,0.0,0.0,0.0,0.0,0.0,0.0,0.0,0.0,-3.6875,-3.5545,-3.5613,-3.5723,-3.5498,-3.5353,-3.5415,-3.5815,-3.6055,-3.651,-3.7461,0.0,0.0,0.0,0.0,0.0,0.0,0.0,0.0,0.0,0.0,0.0,0.0,0.0,0.0,0.0,0.0,0.0,0.0,0.0,0.0,0.0,0.0,0.0,0.0,0.0,0.0,0.0,0.0,0.0,0.0,0.0,0.0,0.0,0.0,0.0,0.0,0.0,0.0,0.0,0.0,0.0,0.0,0.0,0.0,0.0,0.0,0.0,0.0,0.0,0.0,0.0,0.0,0.0,-3.1427,-3.1381,-3.2145,-3.2241,-3.1503,-3.2241,-3.2045,-3.0913,-3.1635,-3.184,-3.1409,0.0,0.0,0.0,0.0,0.0,0.0,0.0,0.0,0.0,0.0,0.0,0.0,0.0,0.0,0.0,0.0,0.0,0.0,0.0,0.0,0.0,0.0,0.0,0.0,0.0,0.0,-3.1015,-3.1634,-3.215,0.0,0.0,0.0,0.0,0.0,0.0,0.0,0.0,0.0,0.0,-3.5698,-3.5275,-3.677,-3.6327,-3.5713,-3.545,-3.5412,-3.532,-3.5176,-3.5823,-3.637,0.0,0.0,0.0,0.0,0.0,0.0,0.0,0.0,0.0,0.0,0.0,0.0,0.0,0.0,0.0,0.0,0.0,0.0,0.0,0.0,0.0,0.0,0.0,0.0,0.0,0.0,0.0,-3.5516,-3.5591,0.0,0.0,0.0,0.0,0.0,0.0,0.0,0.0,0.0,0.0,0.0,-3.6356,-3.5838,0.0,0.0,0.0,0.0,0.0,0.0,0.0,0.0,0.0,0.0,0.0,0.0,-3.1458,-3.1439,-3.226,-3.2317,-3.1541,-3.2279,-3.2436,-3.1901,-3.2676,-3.3116,-3.3111,0.0,0.0,0.0,0.0,0.0,0.0,0.0,0.0,0.0,0.0,0.0,0.0,0.0,0.0,0.0,0.0,0.0,0.0,0.0,0.0,0.0,0.0,0.0,0.0,0.0,-3.19,0.0,0.0,0.0,0.0,0.0,0.0,0.0,0.0,0.0,0.0,0.0,-3.5112,-3.6194,-3.6325,-3.6317,-3.6238,-3.5987,-3.5761,0.0,0.0,0.0,0.0,0.0,0.0,0.0,0.0,0.0,0.0,0.0,0.0,0.0,0.0,-3.8278,-3.7534,-3.6918,-3.6483,-3.6316,0.0,0.0,0.0,0.0,0.0,0.0,0.0,0.0,0.0,0.0,0.0,0.0,0.0,0.0,0.0,0.0,-3.5945,0.0,0.0,0.0,0.0,0.0,0.0,0.0,0.0,-3.615,-3.6171,-3.6407,-3.5827,-3.5554,0.0,-3.5547,-3.4505,0.0,0.0,0.0,0.0,0.0,0.0,0.0,0.0,-3.1897,-3.1897,-3.2986,-3.3177,-3.2439,-3.3138,-3.3326,-3.2843,-3.3516,-3.3976,-3.4129,-3.3462,-3.3277,0.0,0.0,0.0,0.0,0.0,0.0,0.0,0.0,0.0,0.0,0.0,0.0,0.0,0.0,0.0,0.0,0.0,0.0,0.0,0.0,0.0,0.0,0.0,-3.1955,0.0,0.0,0.0,0.0,0.0,0.0,0.0,0.0,0.0,-3.4647,-3.5192,-3.5754,-3.6283,-3.6839,-3.685,-3.5926,0.0,0.0,0.0,0.0,0.0,0.0,0.0,-3.5637,-3.604,-3.6537,-3.7718,-4.0114,-4.1124,-4.168,-4.2048,0.0,0.0,-3.9999,-3.9318,-3.8787,-3.8159,-3.8318,-3.7819,-3.5472,-3.5681,-3.5659,0.0,0.0,0.0,0.0,0.0,0.0,0.0,0.0,-3.602,-3.6057,0.0,-3.6879,0.0,0.0,0.0,0.0,0.0,0.0,0.0,0.0,-3.6377,-3.644,-3.7087,-3.5545,-3.4744,-3.4746,-3.4782,-3.4269,-3.3362,-3.3994,0.0,0.0,0.0,0.0,0.0,0.0,-3.2718,-3.2776,-3.4323,-3.4789,-3.4014,-3.477,-3.4687,-3.3704,-3.4201,-3.4478,-3.4412,-3.4371,-3.4334,-3.42,-3.4218,0.0,0.0,0.0,0.0,0.0,0.0,0.0,0.0,0.0,0.0,0.0,0.0,0.0,0.0,0.0,0.0,0.0,0.0,0.0,0.0,-3.0865,0.0,0.0,0.0,0.0,0.0,0.0,0.0,0.0,0.0,0.0,-3.7145,-3.5837,-3.534,-3.6972,0.0,0.0,0.0,0.0,-3.6687,-3.5819,-3.5736,-3.5739,-3.5695,-3.5701,-3.5701,-3.572,0.0,0.0,-4.0213,-4.0723,-4.1521,-4.3905,-4.4095,-4.3653,-4.1139,-4.04,-3.955,-3.7876,-3.787,-3.6954,-3.4538,-3.488,-3.4941,-3.9639,0.0,0.0,0.0,0.0,-3.6199,-3.6004,-3.6041,-3.655,-3.6828,-3.6981,-3.7725,0.0,0.0,0.0,0.0,0.0,0.0,-3.6055,-3.6357,-3.6007,-3.6051,-3.6363,-3.5856,-3.5621,-3.5621,-3.5529,-3.5292,-3.4939,-3.5021,-3.4339,-3.291,0.0,0.0,0.0,0.0,-3.3005,-3.3662,-3.4674,-3.4808,-3.4014,-3.4789,-3.5051,-3.4753,-3.4756,-3.4763,-3.4684,-3.4508,-3.4368,-3.4269,-3.4401,0.0,0.0,0.0,0.0,0.0,0.0,0.0,0.0,0.0,0.0,0.0,0.0,0.0,0.0,0.0,0.0,0.0,0.0,0.0,-3.2481,-3.3095,-3.3821,0.0,0.0,0.0,0.0,0.0,0.0,0.0,0.0,0.0,-3.7927,-3.6716,-3.6023,0.0,0.0,-3.6165,-3.5901,-3.6562,-3.676,-3.5889,0.0,0.0,0.0,-3.5732,-3.5771,-3.5771,-3.6992,-3.7976,-3.789,-3.9255,-4.033,-4.0342,-4.0674,-4.0776,-4.0252,-4.1493,-4.1976,-4.0788,-4.0106,-3.9248,-3.7542,-3.7001,-3.6389,-3.8376,-3.8647,-3.6768,-3.6007,-3.6012,-3.6012,-3.6012,-3.603,-3.645,-3.6709,-3.6871,-3.7975,-3.8036,-3.7294,-3.721,0.0,0.0,0.0,-3.5914,-3.601,-3.5919,-3.5921,-3.5991,-3.6012,-3.5963,-3.5925,-3.585,-3.5702,-3.553,-3.5437,-3.4866,-3.3824,0.0,0.0,-3.3203,-3.3223,-3.3471,-3.4006,-3.4789,-3.4961,-3.4503,-3.4942,-3.5182,-3.5182,-3.5081,-3.4991,-3.4944,-3.4803,-3.4714,-3.4663,-3.4753,-3.4556,0.0,0.0,0.0,0.0,0.0,0.0,0.0,0.0,0.0,0.0,0.0,-3.1622,-3.0797,0.0,0.0,0.0,-3.3727,-3.438,-3.4718,-3.4647,0.0,0.0,0.0,0.0,0.0,0.0,0.0,-3.7908,-3.699,-3.6698,-3.7908,-3.7458,-3.721,-3.7691,-3.7577,-3.7304,-3.6986,0.0,-3.781,-3.6954,-3.6991,-3.6898,-3.6328,-3.6002,-3.5791,-3.5791,-3.6959,-3.755,-3.6813,-3.8065,-3.8971,-3.8624,-3.8785,-3.9022,-3.8807,-4.019,-4.1093,-4.021,-3.9695,-3.8937,-3.7634,-3.707,-3.6507,-3.7301,-3.7243,-3.6363,-3.6012,-3.6012,-3.6012,-3.6012,-3.6012,-3.609,-3.609,-3.6226,-3.7867,-3.8121,-3.7277,-3.7222,0.0,-3.5968,-3.5988,-3.5988,-3.6012,-3.5989,-3.5989,-3.6012,-3.6012,-3.5931,-3.5819,-3.5791,-3.5678,-3.5443,-3.5406,-3.5345,-3.5195,-3.4472,-3.4101,-3.4109,-3.4033,-3.4033,-3.4109,-3.4827,-3.5182,-3.5182,-3.5182,-3.5182,-3.5182,-3.5182,-3.5182,-3.5182,-3.5182,-3.5193,-3.5189,-3.5138,-3.5037,-3.4897,0.0,0.0,0.0,0.0,0.0,0.0,0.0,0.0,0.0,0.0,0.0,0.0,0.0,0.0,0.0,-3.5507,0.0,-3.7033,-3.5773,0.0,0.0,0.0,-3.5644,-3.7243,-3.736,-3.734,-3.7399,0.0,0.0,-3.7594,0.0,-3.8728,-3.8786,-3.9312,-3.9414,-3.8613,-3.9135,-3.9351,-3.8157,-3.7549,-3.7037,-3.6526,-3.602,-3.5654,-3.5654,-3.638,-3.6579,-3.6105,-3.6522,-3.7326,-3.7279,-3.7698,-3.7565,-3.7074,-3.6992,-3.7052,-3.6967,-3.7187,-3.6978,-3.5903,-3.5651,-3.5486,-3.7301,-3.7223,-3.6363,-3.6012,-3.6012,-3.6012,-3.6012,-3.6051,-3.6714,-3.6988,-3.7067,-3.8141,-3.8065,-3.7125,-3.6563,-3.6132,-3.5836,-3.5855,-3.5899,-3.5989,-3.5897,-3.5899,-3.601,-3.6012,-3.5988,-3.5956,-3.5855,-3.5768,-3.5698,-3.5508,-3.5367,-3.5339,-3.5059,-3.4923,-3.4904,-3.4312,-3.4292,-3.4904,-3.5114,-3.5182,-3.5182,-3.5182,-3.5182,-3.5182,-3.5182,-3.5182,-3.5182,-3.5182,-3.5182,-3.5193,-3.5117,-3.4779,-3.4105,-3.3835,0.0,0.0,0.0,0.0,0.0,0.0,0.0,0.0,0.0,-3.2045,-3.2607,0.0,-3.5564,0.0,-3.7275,-3.7584,-3.715,-3.7379,0.0,0.0,-3.7493,-3.783,-3.822,-3.7692,-3.7555,-3.822,-3.7906,-3.8024,-3.9078,-3.939,-3.978,-4.0387,-3.9553,-3.8815,-3.8619,-3.9268,-3.8982,-3.7069,-3.6933,-3.6503,-3.4801,-3.4668,-3.4998,-3.4977,-3.5007,-3.4633,-3.3667,-3.3353,-3.3033,-3.2415,-3.303,-3.3362,-3.2919,-3.3125,-3.3279,-3.2978,-3.4374,-3.5695,-3.4935,-3.4775,-3.4452,-3.6704,-3.6635,-3.6194,-3.5982,-3.5951,-3.5979,-3.6012,-3.6051,-3.6519,-3.6521,-3.6169,-3.6639,-3.6762,-3.6599,-3.6176,-3.596,-3.5895,-3.5892,-3.5929,-3.601,-3.5927,-3.5929,-3.601,-3.6012,-3.5963,-3.5903,-3.5828,-3.5768,-3.5702,-3.5553,-3.5496,-3.5496,-3.5406,-3.5373,-3.5366,-3.4806,-3.4751,-3.5182,-3.5266,-3.5309,-3.5366,-3.5336,-3.5292,-3.5292,-3.5219,-3.5182,-3.5182,-3.5182,-3.5201,-3.5196,-3.5147,-3.4874,-3.4362,-3.3963,-3.3557,0.0,0.0,0.0,0.0,0.0,0.0,0.0,0.0,0.0,0.0,0.0,-3.6738,-3.7605,-3.8105,-3.8201,-3.7714,-3.784,-3.773,-3.7246,-3.7336,-3.7438,-3.7438,-3.736,-3.7497,-3.7965,-3.8238,-3.8765,-3.9683,-3.9488,-3.9429,-3.9899,-3.8533,-3.7731,-3.8396,-3.8375,-3.7562,-3.6207,-3.6395,-3.6272,-3.4665,-3.4931,-3.5291,-3.5261,-3.5062,-3.4467,-3.3276,-3.2739,-3.1987,-3.0617,-3.0853,-3.1166,-3.0572,-3.0721,-3.0871,-3.0846,-3.1723,-3.268,-3.2767,-3.2819,-3.2536,-3.5602,-3.5565,-3.5621,-3.5622,-3.5565,-3.5619,-3.5703,-3.5817,-3.5699,-3.5251,-3.4549,-3.4648,-3.5115,-3.5836,-3.5953,-3.6012,-3.6012,-3.6012,-3.6012,-3.6012,-3.6012,-3.6012,-3.6012,-3.6012,-3.5933,-3.5825,-3.5825,-3.5765,-3.5657,-3.562,-3.5611,-3.5635,-3.5616,-3.5607,-3.5597,-3.536,-3.5251,-3.5251,-3.536,-3.5485,-3.5582,-3.549,-3.5425,-3.5419,-3.5321,-3.5262,-3.5243,-3.5254,-3.5258,-3.5256,-3.5176,-3.5115,-3.5062,-3.4456,-3.4047,0.0,-3.3317,0.0,0.0,0.0,0.0,0.0,0.0,0.0,0.0,-3.6425,-3.7707,-3.8361,-3.8399,-3.8363,-3.826,-3.7623,-3.7168,-3.7031,-3.6417,-3.6012,-3.6031,-3.6675,-3.7223,-3.7438,-3.857,-3.9351,-3.9566,-3.8942,-3.8435,-3.8334,-3.6818,-3.6125,-3.7376,-3.6682,-3.5838,-3.568,-3.5218,-3.4302,-3.435,-3.471,-3.4823,-3.4948,-3.4518,-3.4319,-3.2967,-3.2458,-3.1708,-3.0173,-2.979,-2.9735,-2.925,-2.9197,-2.931,-2.9335,-2.9463,-2.98,-3.0464,-3.0747,-3.0443,-3.3806,-3.3785,-3.3811,-3.3793,-3.3793,-3.3808,-3.4234,-3.4881,-3.4197,-3.3806,-3.371,-3.4393,-3.4783,-3.4998,-3.5699,-3.6012,-3.6012,-3.6012,-3.6012,-3.6012,-3.6012,-3.6012,-3.6012,-3.6012,-3.5988,-3.5962,-3.596,-3.5956,-3.5925,-3.5816,-3.5762,-3.5762,-3.5638,-3.5607,-3.5607,0.0,0.0,0.0,-3.5556,-3.5582,-3.5587,-3.5587,-3.5553,-3.5572,-3.5544,0.0,-3.5535,-3.5512,-3.5532,-3.5532,-3.5457,0.0,0.0,0.0,0.0,0.0,0.0,0.0,0.0,0.0,0.0,0.0,-3.4977,-3.5944,-3.7482,-3.8587,-3.8971,-3.8449,-3.8387,-3.812,-3.7493,-3.7284,-3.6933,-3.6296,-3.6094,-3.6012,-3.6012,-3.6168,-3.6773,-3.816,-3.7419,-3.7279,-3.8505,-3.8082,-3.7491,-3.7214,-3.5339,-3.3974,-3.4178,-3.4466,-3.4466,-3.3752,-3.1619,-2.966,-2.943,-3.0276,-3.1013,-3.0458,-3.0247,-3.0108,-2.9912,-2.9011,-2.8334,-2.7739,-2.8137,-2.8315,-2.7817,-2.8137,-2.8307,-2.7953,-2.7965,-2.8444,-2.967,-2.995,-2.9798,-3.329,0.0,-3.3296,-3.3294,0.0,-3.2831,-3.2926,-3.3379,-3.3388,-3.3396,-3.3435,-3.3866,-3.4295,-3.4726,-3.5154,-3.5582,-3.6012,-3.6012,-3.6012,-3.6012,-3.6012,-3.6012,-3.6012,-3.6012,-3.6012,-3.6012,-3.6012,-3.6012,-3.5991,-3.5931,-3.5899,-3.5897,-3.5822,-3.5804,-3.5785,-3.5804,-3.5762,-3.5698,-3.5698,-3.5741,-3.5798,-3.5741,-3.5694,-3.5702,0.0,0.0,0.0,0.0,0.0,0.0,0.0,0.0,0.0,0.0,0.0,-3.54,-3.5115,-3.4919,-3.4839,-3.4534,-3.4943,-3.6246,-3.7555,-3.8343,-3.8406,-3.8809,-3.8688,-3.7851,-3.7412,-3.6997,-3.6621,-3.6581,-3.6456,-3.6072,-3.6012,-3.6012,-3.609,-3.6773,-3.7438,-3.7741,-3.7131,-3.677,-3.7124,-3.5205,-3.4036,-3.3843,-3.2032,-3.0787,-3.1117,-3.1209,-3.1172,-3.1179,-2.9914,-2.8768,-2.9116,-2.9509,-2.9808,-2.9776,-2.9277,-2.8867,-2.8808,-2.7876,-2.6986,-2.6704,-2.6845,-2.6891,-2.6558,-2.6703,-2.6763,-2.6381,-2.6308,-2.641,-2.6971,-2.7673,-2.8162,-3.2786,-3.2752,-3.2805,-3.2778,-3.27,-3.2045,-3.188,-3.2068,0.0,0.0,0.0,-3.3573,-3.4042,-3.4687,-3.4861,-3.533,-3.5992,-3.6012,-3.6012,-3.6012,-3.6012,-3.6012,-3.6012,-3.6012,-3.6012,-3.6012,-3.6012,-3.6012,-3.6012,-3.6012,-3.6012,-3.6012,-3.6012,-3.6012,-3.6012,-3.5978,-3.5926,-3.5827,-3.5814,-3.5873,-3.5989,-3.5895,-3.5841,-3.5846,-3.5745,-3.566,-3.5655,-3.565,-3.5635,-3.5576,-3.5556,-3.5546,-3.5505,-3.5645,-3.566,-3.551,-3.5693,-3.5771,-3.5649,-3.5732,-3.6483,-3.8062,-3.9734,-4.0114,-3.8717,-3.8613,-3.8266,-3.7422,-3.6746,-3.6387,-3.6367,-3.6415,-3.6461,-3.6461,-3.6461,-3.642,-3.6315,-3.7427,-3.795,-3.7337,-3.6513,-3.5959,-3.5285,-3.2487,-3.0253,-3.0116,-2.9193,-2.7924,-2.8322,-2.8336,-2.8315,-2.839,-2.81,-2.8507,-2.9214,-2.9262,-2.9524,-2.9117,-2.8538,-2.8169,-2.799,-2.7273,-2.6419,-2.5713,-2.5577,-2.5356,-2.516,-2.5145,-2.5075,-2.485,-2.4793,-2.4666,-2.4281,-2.5245,-2.6217,-3.0997,-3.0978,-3.0976,-3.0974,-3.096,-3.0905,-3.1341,-3.2088,-3.2226,-3.271,-3.3435,-3.4178,-3.4588,-3.4746,-3.5467,-3.5875,-3.6012,-3.6012,-3.6012,0.0,-3.6012,-3.6012,-3.6012,-3.6012,-3.6012,-3.6012,-3.6012,-3.6012,-3.6012,-3.6012,-3.6012,-3.6012,-3.6012,-3.6012,-3.5994,-3.5953,-3.5897,-3.5896,-3.5958,-3.5986,-3.6012,-3.5986,-3.596,-3.597,-3.5953,-3.5916,-3.5864,-3.5852,-3.5843,-3.584,-3.5859,-3.584,-3.5837,-3.5843,-3.5872,-3.583,-3.5868,-3.5853,-3.5782,-3.5786,-3.6227,-3.725,-3.8876,-3.9744,-3.9542,-3.9512,-3.9184,-3.8387,-3.8122,-3.8143,-3.8209,-3.8124,-3.8061,-3.812,-3.8199,-3.7894,-3.6963,-3.713,-3.7245,-3.6918,-3.4285,-3.2949,-3.316,-3.1021,-2.9213,-2.918,-2.81,-2.7249,-2.6309,-2.6896,-2.7022,-2.5995,-2.5609,-2.5678,-2.5995,-2.5812,-2.5977,-2.5761,-2.5788,-2.5673,-2.57,-2.5149,-2.4654,-2.4423,-2.405,-2.3715,-2.3682,-2.3741,-2.3959,-2.4018,-2.4063,-2.4063,-2.3917,-2.4268,-2.4625,-3.0608,-3.0602,-3.0616,-3.061,-3.0636,-3.1126,-3.2174,-3.3405,-3.3464,-3.366,-3.4121,-3.4961,-3.5351,-3.5371,-3.5761,-3.5937,-3.5957,-3.5957,-3.5957,-3.5937,-3.5957,-3.5957,-3.5957,-3.5957,-3.5937,-3.5933,-3.5937,-3.5937,-3.5953,-3.5957,-3.5957,-3.5937,-3.5937,-3.5957,-3.5957,-3.5914,-3.5891,-3.5891,-3.5917,-3.5957,-3.5957,-3.5957,-3.5957,-3.5956,-3.5936,-3.5934,-3.5892,-3.589,-3.5883,-3.5882,-3.588,-3.5898,-3.589,-3.5885,-3.5889,-3.5892,-3.5882,-3.5866,-3.5798,-3.6245,-3.6666,-3.7097,-3.827,-3.8998,-3.9001,-3.9463,-3.9409,-3.8593,-3.8512,-3.852,-3.8525,-3.8096,-3.7791,-3.7791,-3.7328,-3.6796,-3.6445,-3.6728,-3.6785,-3.6051,-3.3551,-3.1687,-3.1569,-2.8864,-2.6958,-2.6843,-2.6174,-2.5289,-2.4445,-2.4668,-2.4896,-2.4446,-2.4436,-2.4279,-2.3946,-2.3888,-2.3959,-2.3989,-2.3959,-2.3959,-2.3959,-2.3695,-2.3619,-2.3547,-2.3267,-2.3165,-2.3255,-2.3446,-2.3518,-2.3327,-2.3403,-2.3416,-2.3173,-2.3237,-2.3728,-3.0574,-3.0554,-3.0799,-3.1015,-3.1276,-3.2112,-3.3299,-3.4544,-3.4759,-3.4859,-3.4969,-3.5594,-3.5893,-3.5893,-3.5893,-3.5895,-3.5893,-3.5893,-3.5895,-3.5893,-3.5893,-3.5893,-3.5893,-3.5893,-3.5886,-3.5896,-3.5885,-3.5886,-3.5896,-3.5885,-3.5893,-3.5895,-3.5893,-3.5893,-3.5893,-3.5887,-3.5884,-3.5884,-3.5894,-3.5898,-3.5893,-3.5893,-3.5899,-3.5887,-3.5888,-3.5889,-3.5893,-3.5894,-3.5898,-3.5894,-3.5892,-3.589,-3.5884,-3.5882,-3.589,-3.588,-3.5895,-3.5885,-3.5869,-3.6445,-3.683,-3.6833,-3.7634,-3.8122,-3.8202,-3.8961,-3.9246,-3.8625,-3.8518,-3.8518,-3.8424,-3.7887,-3.7381,-3.7322,-3.6684,-3.627,-3.5984,-3.6468,-3.63,-3.5002,-3.2627,-3.056,-2.914,-2.6533,-2.4634,-2.4421,-2.3901,-2.3564,-2.3463,-2.2967,-2.2895,-2.3135,-2.3564,-2.3551,-2.2912,-2.3015,-2.3148,-2.3118,-2.3148,-2.3237,-2.3177,-2.3045,-2.2864,-2.2834,-2.2725,-2.2604,-2.2774,-2.298,-2.2932,-2.2677,-2.2627,-2.2503,-2.1982,-2.2156,-2.2925,-3.0535,-3.0551,-3.1366,-3.2251,-3.2973,-3.3841,-3.4323,-3.4602,-3.5321,-3.5675,-3.5632,-3.5843,-3.589,-3.5893,-3.5892,-3.589,-3.5892,-3.5893,-3.5892,-3.5892,-3.5893,-3.5893,-3.589,-3.5892,-3.5896,-3.5897,-3.5893,-3.5892,-3.5899,-3.5893,-3.5874,-3.5893,-3.5893,-3.5794,-3.5812,-3.5802,-3.5819,-3.5897,-3.5836,-3.5827,-3.589,-3.5893,-3.5899,-3.5887,-3.5887,-3.5889,-3.5891,-3.5896,-3.5897,-3.5898,-3.5898,-3.5898,-3.5898,-3.5898,-3.5897,-3.5896,-3.5895,-3.5894,-3.5891,-3.5951,-3.6035,-3.6069,-3.6826,-3.7283,-3.7344,-3.81,-3.8601,-3.8432,-3.8504,-3.851,-3.8425,-3.8244,-3.8027,-3.7865,-3.7715,-3.7621,-3.6652,-3.6646,-3.576,-3.3203,-3.0718,-2.8542,-2.6919,-2.4614,-2.3055,-2.3075,-2.2907,-2.2713,-2.2683,-2.25,-2.2175,-2.1959,-2.2317,-2.2761,-2.267,-2.2955,-2.2907,-2.2997,-2.3045,-2.293,-2.2754,-2.2439,-2.2182,-2.1886,-2.1623,-2.1362,-2.144,-2.1632,-2.1791,-2.1516,-2.1414,-2.1332,-2.0894,-2.078,-2.1525,-3.0579,-3.1014,-3.1436,-3.2389,-3.3575,-3.3998,-3.4434,-3.4942,-3.5289,-3.5443,-3.5455,-3.5493,-3.5627,-3.5849,-3.5849,-3.5849,-3.583,-3.583,-3.5849,-3.5849,-3.583,-3.583,-3.5849,-3.5849,-3.585,-3.5895,-3.5869,-3.585,-3.5892,-3.585,-3.5346,-3.4453,-3.4356,-3.3869,-3.2936,-3.2836,-3.2804,-3.273,-3.2671,-3.2671,-3.292,-3.4753,-3.5852,-3.5841,-3.5841,-3.585,-3.5841,-3.5848,-3.5871,-3.588,-3.5885,-3.5887,-3.589,-3.5897,-3.5898,-3.5896,-3.5896,-3.5897,-3.5897,-3.5888,-3.588,-3.5808,-3.6095,-3.6301,-3.6273,-3.6599,-3.6775,-3.691,-3.7807,-3.8426,-3.824,-3.7749,-3.7373,-3.7247,-3.6794,-3.6243,-3.5894,-3.45,-3.3092,-3.1872,-2.8848,-2.6457,-2.5531,-2.3851,-2.2724,-2.2531,-2.2237,-2.1834,-2.1834,-2.1565,-2.121,-2.0892,-2.0921,-2.1101,-2.1459,-2.1815,-2.1928,-2.1959,-2.197,-2.1923,-2.1504,-2.1334,-2.1019,-2.0738,-2.0209,-1.9848,-1.9714,-1.9565,-1.9565,-1.9655,-1.9683,-1.9497,-1.9287,-1.9242,-1.9815,-3.0935,-3.1646,-3.1924,-3.289,-3.4227,-3.4266,-3.4618,-3.515,-3.5189,-3.5189,-3.515,-3.4736,-3.4668,-3.4996,-3.5466,-3.5745,-3.5791,-3.5795,-3.5795,-3.5736,-3.5371,-3.5096,-3.5076,-3.4575,-3.4431,-3.4448,-3.4356,-3.4376,-3.4458,-3.4434,-3.3759,-3.2707,-3.2559,-3.1887,-3.0781,-3.063,-3.057,-3.0501,-3.0472,-3.0462,-3.0813,-3.2968,-3.4535,-3.4933,-3.501,-3.5209,-3.5664,-3.5712,-3.5702,-3.5746,-3.5814,-3.5821,-3.5802,-3.5827,-3.5854,-3.5828,-3.5821,-3.5821,-3.5821,-3.5813,-3.5772,-3.5691,-3.5659,-3.564,-3.5616,-3.5625,-3.5581,-3.5667,-3.6794,-3.7482,-3.7381,-3.678,-3.6376,-3.6231,-3.5115,-3.4205,-3.4021,-3.1974,-3.0288,-2.9538,-2.6789,-2.4436,-2.3728,-2.258,-2.1791,-2.1741,-2.1175,-2.0741,-2.0634,-2.0172,-1.9726,-1.9715,-1.9346,-1.95,-2.0171,-2.0221,-2.0349,-2.026,-2.015,-1.9881,-1.9616,-1.9571,-1.961,-1.9163,-1.8659,-1.8555,-1.8676,-1.8326,-1.7982,-1.7988,-1.8006,-1.8031,-1.8053,-1.7981,-1.8059,-3.1748,-3.2429,-3.3253,-3.414,-3.5105,-3.5013,-3.5059,-3.4952,-3.5013,-3.5066,-3.4706,-3.3451,-3.2813,-3.2974,-3.4453,-3.5528,-3.5661,-3.551,-3.5448,-3.5316,-3.4058,-3.3406,-3.3274,-3.1739,-3.102,-3.1347,-3.1394,-3.1266,-3.116,-3.1059,-3.0907,-3.0803,-3.0683,-3.0572,-3.0234,-3.009,-3.0328,-3.0034,-3.0029,-3.0216,-3.0249,-3.0472,-3.1383,-3.2715,-3.3023,-3.3729,-3.504,-3.5342,-3.5348,-3.5373,-3.5481,-3.5587,-3.5493,-3.5586,-3.5631,-3.5626,-3.563,-3.5625,-3.5635,-3.563,-3.5609,-3.5618,-3.5593,-3.5607,-3.556,-3.5301,-3.5162,-3.5321,-3.5076,-3.5168,-3.5199,-3.5434,-3.536,-3.4992,-3.3113,-3.201,-3.1631,-2.9401,-2.7253,-2.592,-2.4568,-2.2909,-2.0814,-2.0302,-2.028,-2.015,-1.9584,-1.9199,-1.9166,-1.8633,-1.8355,-1.8221,-1.8131,-1.818,-1.9196,-1.9072,-1.8414,-1.8383,-1.8469,-1.775,-1.7606,-1.7575,-1.7677,-1.7738,-1.7644,-1.7664,-1.7789,-1.7727,-1.7487,-1.7331,-1.7155,-1.7118,-1.6334,-1.6924,-1.6899,-3.2165,-3.3099,-3.3929,-3.4499,-3.4671,-3.3695,-3.3231,-3.3117,-3.2103,-3.1686,-3.16,-3.1031,-3.0855,-3.1011,-3.1668,-3.2097,-3.2248,-3.2278,-3.2278,-3.222,-3.1636,-3.1384,-3.1307,-3.0708,-3.0433,-3.0433,-3.0438,-3.0443,-3.0453,-3.0453,-2.9878,-2.8955,-2.8811,-2.8285,-2.7379,-2.7142,-2.711,-2.7031,-2.7006,-2.6991,-2.7084,-2.695,-2.7746,-2.9388,-3.0662,-3.1584,-3.2193,-3.2739,-3.3039,-3.3018,-3.362,-3.3945,-3.3953,-3.4483,-3.5059,-3.5521,-3.5607,-3.5607,-3.5607,-3.5607,-3.5554,-3.5483,-3.547,-3.5315,-3.507,-3.3933,-3.2959,-3.269,-3.1285,-3.0571,-3.1146,-3.3256,-3.458,-3.3039,-3.2005,-3.0661,-2.9062,-2.6835,-2.5001,-2.4194,-2.2734,-2.0887,-1.9933,-1.9396,-1.922,-1.8811,-1.8543,-1.8408,-1.8365,-1.8196,-1.7953,-1.775,-1.7366,-1.7037,-1.7115,-1.7567,-1.752,-1.7572,-1.7492,-1.7267,-1.7083,-1.685,-1.69,-1.6377,-1.6357,-1.6197,-1.6157,-1.5936,-1.588,-1.5432,-1.5328,-1.5329,-1.4234,-1.4905,-1.4778,-3.1764,-3.2078,-3.2604,-3.2828,-3.2697,-3.1621,-3.1136,-3.1024,-2.9987,-2.952,-2.9426,-2.896,-2.8792,-2.8774,-2.8357,-2.8171,-2.8505,-2.9615,-3.0302,-3.0244,-2.9719,-2.9463,-2.9367,-2.8906,-2.8656,-2.8623,-2.8662,-2.8662,-2.8557,-2.8557,-2.79,-2.6805,-2.6943,-2.6562,-2.5608,-2.5634,-2.5715,-2.5653,-2.5646,-2.5664,-2.5574,-2.5566,-2.6075,-2.7253,-2.857,-2.9608,-3.0221,-3.0848,-3.1149,-3.1281,-3.2039,-3.2778,-3.3319,-3.3782,-3.443,-3.5205,-3.5244,-3.5196,-3.5177,-3.517,-3.4819,-3.4046,-3.3931,-3.3734,-3.2846,-3.1246,-3.04,-2.9833,-2.8898,-2.7721,-2.8298,-3.0785,-3.2046,-3.0416,-2.9558,-2.8414,-2.6625,-2.4213,-2.287,-2.2367,-2.1012,-1.9683,-1.9077,-1.8811,-1.8509,-1.8037,-1.7833,-1.7662,-1.7653,-1.733,-1.7052,-1.6609,-1.5818,-1.5174,-1.4807,-1.479,-1.5601,-1.5798,-1.5595,-1.575,-1.5936,-1.5798,-1.5633,-1.5107,-1.4797,-1.458,-1.4362,-1.4112,-1.3752,-1.329,-1.3536,-1.3826,-1.3243,-1.2901,-1.3136,-3.0488,-2.9433,-2.9171,-2.9481,-2.9547,-2.927,-2.9108,-2.9093,-2.8916,-2.8606,-2.831,-2.7251,-2.6665,-2.6358,-2.5374,-2.4431,-2.5253,-2.8118,-2.9615,-2.9525,-2.8261,-2.7598,-2.7515,-2.6253,-2.5622,-2.5614,-2.5449,-2.5376,-2.5425,-2.5577,-2.5372,-2.4971,-2.5641,-2.5953,-2.5749,-2.6282,-2.6646,-2.6646,-2.6637,-2.6674,-2.6784,-2.6646,-2.6693,-2.6822,-2.684,-2.7587,-2.9547,-2.9845,-2.9931,-2.9988,-3.0884,-3.2302,-3.333,-3.3517,-3.3847,-3.451,-3.4475,-3.4349,-3.436,-3.4386,-3.3518,-3.1946,-3.124,-3.0645,-2.9024,-2.8043,-2.7664,-2.7602,-2.7243,-2.7158,-2.6955,-2.7285,-2.7632,-2.7478,-2.5954,-2.456,-2.3501,-2.1674,-2.0118,-2.0074,-1.9441,-1.9034,-1.88,-1.822,-1.7677,-1.736,-1.6957,-1.654,-1.6373,-1.5807,-1.5044,-1.4368,-1.3949,-1.3526,-1.2677,-1.1978,-1.2972,-1.3672,-1.3349,-1.3278,-1.3595,-1.3644,-1.3692,-1.336,-1.3571,-1.3386,-1.3416,-1.3191,-1.2948,-1.2612,-1.2673,-1.2551,-1.2305,-1.212,-1.2397,-2.9331,-2.9112,-2.9104,-2.9104,-2.8938,-2.7885,-2.7366,-2.7238,-2.6195,-2.568,-2.5541,-2.5109,-2.4879,-2.4805,-2.43,-2.4107,-2.4237,-2.5519,-2.6041,-2.5993,-2.55,-2.5313,-2.5165,-2.4711,-2.4433,-2.4545,-2.503,-2.5256,-2.5286,-2.5706,-2.5987,-2.608,-2.62,-2.6386,-2.6423,-2.6682,-2.6792,-2.6792,-2.6802,-2.6802,-2.6802,-2.6811,-2.6792,-2.6613,-2.5045,-2.4416,-2.5091,-2.7335,-2.8297,-2.7764,-2.8712,-2.9786,-3.0816,-3.1864,-3.276,-3.3548,-3.4098,-3.4311,-3.4281,-3.4106,-3.3073,-3.1441,-3.0885,-2.992,-2.7818,-2.5946,-2.5072,-2.4798,-2.3595,-2.23,-2.186,-2.1719,-2.2748,-2.4823,-2.3905,-2.2308,-2.0925,-1.9533,-1.878,-1.8643,-1.8442,-1.7881,-1.6989,-1.648,-1.6097,-1.5288,-1.4871,-1.468,-1.4326,-1.4199,-1.3506,-1.2861,-1.2453,-1.2097,-1.1457,-1.1041,-1.1481,-1.2124,-1.1917,-1.195,-1.2074,-1.205,-1.202,-1.202,-1.2205,-1.2228,-1.2297,-1.2104,-1.1795,-1.1772,-1.1717,-1.1538,-1.1358,-1.132,-1.1399,-2.7174,-2.6842,-2.6835,-2.6853,-2.6774,-2.5694,-2.5258,-2.5039,-2.4165,-2.3742,-2.3771,-2.3845,-2.3878,-2.3868,-2.3868,-2.3868,-2.3858,-2.3795,-2.3724,-2.3788,-2.402,-2.4107,-2.4171,-2.4428,-2.4558,-2.4733,-2.5403,-2.5739,-2.5698,-2.6146,-2.6439,-2.6468,-2.6731,-2.6823,-2.6826,-2.7052,-2.7164,-2.7035,-2.7024,-2.703,-2.703,-2.703,-2.6615,-2.5671,-2.412,-2.2867,-2.2325,-2.4156,-2.4809,-2.4143,-2.459,-2.557,-2.6827,-2.7654,-2.8504,-2.9387,-2.99,-3.0166,-3.0317,-2.9971,-2.9535,-2.7688,-2.7185,-2.6136,-2.4103,-2.216,-2.1541,-2.1159,-2.0219,-1.9011,-1.8703,-1.8646,-1.9512,-2.0854,-2.1027,-2.0292,-1.8808,-1.8273,-1.7847,-1.7668,-1.7326,-1.6549,-1.5659,-1.4925,-1.4585,-1.3673,-1.3491,-1.3417,-1.3173,-1.3016,-1.2463,-1.1948,-1.1582,-1.1099,-1.0434,-1.023,-1.0199,-1.0534,-1.0787,-1.1173,-1.1516,-1.1344,-1.1226,-1.1125,-1.1219,-1.086,-1.0829,-1.0533,-1.0249,-1.042,-1.0559,-1.018,-0.9862,-0.9831,-0.9856,-2.4322,-2.3033,-2.3028,-2.3312,-2.3402,-2.3284,-2.321,-2.2885,-2.3015,-2.3126,-2.3163,-2.3354,-2.3453,-2.3453,-2.3435,-2.3435,-2.3407,-2.3247,-2.3133,-2.3319,-2.3707,-2.4044,-2.4096,-2.4725,-2.5073,-2.5304,-2.6037,-2.6348,-2.6139,-2.6356,-2.6289,-2.6374,-2.6887,-2.7066,-2.6965,-2.7525,-2.7614,-2.737,-2.7357,-2.7308,-2.7003,-2.6874,-2.5846,-2.3738,-2.2904,-2.1684,-2.0174,-1.9749,-1.9594,-1.9103,-2.0063,-2.1206,-2.2117,-2.1985,-2.2972,-2.404,-2.3626,-2.4172,-2.3918,-2.49,-2.3991,-2.2155,-2.1766,-1.978,-1.8738,-1.8385,-1.8058,-1.7945,-1.7649,-1.7478,-1.741,-1.741,-1.7275,-1.6624,-1.7379,-1.7605,-1.7692,-1.7472,-1.6929,-1.6427,-1.5939,-1.5271,-1.4419,-1.3795,-1.3484,-1.32,-1.312,-1.2913,-1.2685,-1.2242,-1.1823,-1.1273,-1.0529,-0.993,-0.9212,-0.9014,-0.8982,-0.9111,-0.9436,-0.9907,-1.0407,-1.0268,-1.0117,-1.0085,-1.0059,-0.9678,-0.9454,-0.9308,-0.9148,-0.9218,-0.9064,-0.8619,-0.8619,-0.8844,-0.8909,-2.3159,-2.2782,-2.2777,-2.2794,-2.2807,-2.2807,-2.2756,-2.2686,-2.2725,-2.2695,-2.276,-2.2884,-2.2716,-2.2879,-2.2776,-2.2892,-2.2587,-2.2617,-2.2807,-2.2907,-2.3506,-2.3796,-2.3941,-2.4537,-2.4888,-2.4971,-2.5331,-2.6142,-2.6125,-2.6173,-2.6568,-2.6997,-2.6613,-2.7001,-2.7288,-2.707,-2.7485,-2.7426,-2.7298,-2.6282,-2.4849,-2.4166,-2.2812,-2.0564,-1.8161,-1.665,-1.5566,-1.3802,-1.5143,-1.8975,-1.9359,-1.9628,-2.0014,-2.0972,-2.1454,-2.1682,-2.2659,-2.331,-2.3251,-2.3231,-2.2498,-2.1,-2.0083,-1.973,-1.76,-1.6833,-1.6573,-1.6426,-1.6087,-1.5512,-1.5081,-1.4912,-1.4557,-1.4089,-1.4423,-1.4778,-1.4633,-1.4363,-1.4363,-1.4148,-1.4155,-1.373,-1.315,-1.2682,-1.2321,-1.1916,-1.1712,-1.1629,-1.1312,-1.109,-1.0582,-0.9831,-0.9145,-0.8565,-0.8096,-0.7869,-0.7772,-0.7804,-0.8027,-0.828,-0.8629,-0.8726,-0.864,-0.8576,-0.8801,-0.8581,-0.8619,-0.8581,-0.8425,-0.8166,-0.8264,-0.8166,-0.8361,-0.8587,-0.849,-2.246,-2.246,-2.2443,-2.2375,-2.2261,-2.2234,-2.2062,-2.1845,-2.19,-2.1373,-2.0815,-2.0715,-2.0264,-1.9468,-1.939,-1.9406,-1.9405,-1.9397,-1.9322,-1.9426,-1.9855,-2.1558,-2.3321,-2.3852,-2.3326,-2.321,-2.2812,-2.2477,-2.2524,-2.3092,-2.3308,-2.3095,-2.3404,-2.3327,-2.2832,-2.3205,-2.3141,-2.2851,-2.2936,-2.2204,-2.1019,-2.0513,-1.9012,-1.7033,-1.465,-1.3458,-1.2285,-1.0842,-1.1903,-1.4661,-1.5351,-1.5383,-1.5611,-1.6473,-1.7134,-1.722,-1.7996,-1.8373,-1.8564,-1.8598,-1.8207,-1.7318,-1.7093,-1.6457,-1.5383,-1.4795,-1.4573,-1.4431,-1.4157,-1.3612,-1.2853,-1.2228,-1.1685,-1.1292,-1.1212,-1.1734,-1.2748,-1.3266,-1.3055,-1.2945,-1.2872,-1.2689,-1.1892,-1.1477,-1.0987,-1.0533,-1.0158,-0.9909,-0.9583,-0.9487,-0.933,-0.8713,-0.8239,-0.7807,-0.7378,-0.7111,-0.6634,-0.6609,-0.6539,-0.6821,-0.7292,-0.7508,-0.7864,-0.7934,-0.7772,-0.7674,-0.7707,-0.7679,-0.7386,-0.7321,-0.7582,-0.7614,-0.7582,-0.7572,-0.7572,-2.1936,-2.1922,-2.1922,-2.1759,-2.1456,-2.1222,-2.0607,-2.0226,-1.9893,-1.8949,-1.773,-1.7605,-1.6894,-1.4817,-1.5742,-1.5099,-1.5117,-1.5608,-1.5405,-1.5765,-1.6479,-1.8681,-2.2402,-2.1353,-2.0784,-2.052,-1.8608,-1.8289,-1.8601,-1.8361,-1.8104,-1.8681,-1.8471,-1.796,-1.8511,-1.8009,-1.7277,-1.7666,-1.803,-1.7678,-1.7022,-1.6556,-1.5326,-1.3334,-1.2604,-1.1316,-1.0137,-0.9404,-0.9737,-0.9571,-0.9637,-1.0606,-1.0736,-1.0438,-1.0788,-1.16,-1.245,-1.2602,-1.2179,-1.3016,-1.2586,-1.2935,-1.2586,-1.1919,-1.2357,-1.2251,-1.1957,-1.1951,-1.2007,-1.1458,-1.0847,-0.9616,-0.917,-0.8987,-0.8244,-0.9374,-1.1619,-1.2631,-1.2418,-1.1959,-1.1805,-1.1471,-1.0838,-1.0083,-0.9442,-0.9626,-0.9248,-0.907,-0.8899,-0.8848,-0.8548,-0.8025,-0.7597,-0.7257,-0.6828,-0.6407,-0.5825,-0.5411,-0.5227,-0.542,-0.6295,-0.673,-0.7382,-0.7544,-0.6887,-0.6662,-0.6793,-0.6634,-0.6239,-0.6005,-0.5961,-0.6001,-0.6075,-0.6067,-0.6063,-2.0846,-2.083,-2.0845,-2.0797,-2.044,-1.8921,-1.8067,-1.7772,-1.6192,-1.5449,-1.4858,-1.4862,-1.4511,-1.4002,-1.3805,-1.4432,-1.3906,-1.4012,-1.4905,-1.5522,-1.5609,-1.6497,-1.8272,-1.7555,-1.77,-1.7496,-1.7314,-1.6892,-1.6794,-1.6359,-1.693,-1.6733,-1.6261,-1.6929,-1.6587,-1.6129,-1.6859,-1.6754,-1.6539,-1.5341,-1.3895,-1.3205,-1.1953,-0.9967,-0.9229,-0.8377,-0.7506,-0.7177,-0.6878,-0.7056,-0.858,-0.9869,-1.0072,-1.0367,-1.049,-1.0599,-1.0986,-1.1398,-1.1678,-1.1592,-1.1906,-1.1857,-1.1328,-1.1298,-1.1224,-1.0125,-0.9557,-0.9293,-0.8921,-0.885,-0.8509,-0.8096,-0.7757,-0.7609,-0.7494,-0.7685,-0.8699,-0.9072,-0.9228,-0.9087,-0.913,-0.8983,-0.8841,-0.8765,-0.8494,-0.8571,-0.8523,-0.8438,-0.8242,-0.8026,-0.7508,-0.6878,-0.6467,-0.6,-0.5669,-0.5261,-0.4915,-0.4536,-0.4333,-0.4252,-0.5117,-0.5607,-0.6123,-0.6058,-0.5675,-0.5646,-0.5686,-0.5137,-0.4674,-0.4508,-0.4444,-0.4677,-0.4845,-0.4746,-0.4882,-2.0497,-2.0497,-2.0497,-1.98,-1.8585,-1.7413,-1.6216,-1.5045,-1.3935,-1.2859,-1.203,-1.161,-1.0874,-0.9984,-0.9703,-0.9489,-0.964,-0.9874,-1.0184,-1.0486,-1.0645,-1.0949,-1.1299,-1.1733,-1.2203,-1.3893,-1.2941,-1.2529,-1.2459,-1.2557,-1.215,-1.243,-1.252,-1.2064,-1.243,-1.2577,-1.2237,-1.2101,-1.2073,-1.1255,-1.0171,-0.9309,-0.8581,-0.7362,-0.6687,-0.6231,-0.5968,-0.6005,-0.5914,-0.6193,-0.7375,-0.8342,-0.8284,-0.8551,-0.8749,-0.8972,-0.909,-0.9427,-0.9652,-0.9677,-0.9626,-1.0082,-0.9553,-0.9409,-0.9301,-0.8509,-0.8206,-0.802,-0.7761,-0.7387,-0.6927,-0.6468,-0.6395,-0.6237,-0.6002,-0.5838,-0.6105,-0.6992,-0.7842,-0.7918,-0.8232,-0.8309,-0.8156,-0.7502,-0.7544,-0.7579,-0.7042,-0.6919,-0.6377,-0.6159,-0.5952,-0.5453,-0.5072,-0.4675,-0.4368,-0.4089,-0.3941,-0.3752,-0.3745,-0.3745,-0.4143,-0.444,-0.4688,-0.4614,-0.4642,-0.4448,-0.4378,-0.3761,-0.3591,-0.3849,-0.3949,-0.3813,-0.388,-0.4151,-0.435,-1.8986,-1.8972,-1.8989,-1.7693,-1.5812,-1.5151,-1.3707,-1.202,-1.152,-1.0046,-0.9065,-0.8084,-0.7125,-0.5638,-0.5122,-0.4467,-0.4763,-0.5144,-0.6247,-0.6342,-0.645,-0.6555,-0.6488,-0.682,-0.7829,-1.0525,-0.8947,-0.7757,-0.7639,-0.7214,-0.8085,-0.7446,-0.7358,-0.7941,-0.7496,-0.7274,-0.778,-0.7877,-0.7516,-0.7085,-0.6705,-0.6127,-0.5749,-0.5661,-0.5622,-0.5466,-0.5346,-0.5403,-0.5555,-0.58,-0.5883,-0.5744,-0.5627,-0.5938,-0.6305,-0.6857,-0.7207,-0.757,-0.7924,-0.7676,-0.758,-0.749,-0.7195,-0.7175,-0.7313,-0.7195,-0.7003,-0.7003,-0.6853,-0.6542,-0.589,-0.5351,-0.4851,-0.4579,-0.3988,-0.3675,-0.3984,-0.5678,-0.6447,-0.68,-0.6297,-0.614,-0.6336,-0.6105,-0.6384,-0.6468,-0.5931,-0.5392,-0.4924,-0.4647,-0.4627,-0.4387,-0.4083,-0.3457,-0.3071,-0.2989,-0.2811,-0.2868,-0.291,-0.3006,-0.3062,-0.3057,-0.3277,-0.3686,-0.3709,-0.3531,-0.3305,-0.2973,-0.2993,-0.3353,-0.3242,-0.2892,-0.3117,-0.3563,-0.3696,-1.2143,-1.2143,-1.2165,-1.1872,-1.1274,-0.9709,-0.8877,-0.7951,-0.6693,-0.553,-0.5344,-0.5002,-0.4903,-0.4479,-0.4697,-0.4791,-0.4767,-0.4846,-0.5009,-0.5074,-0.511,-0.511,-0.5077,-0.5077,-0.5788,-0.605,-0.5793,-0.5701,-0.5804,-0.5672,-0.5939,-0.5771,-0.5804,-0.5804,-0.5837,-0.5705,-0.587,-0.5932,-0.5639,-0.5507,-0.5441,-0.5292,-0.5079,-0.5059,-0.5039,-0.4909,-0.4735,-0.4807,-0.4846,-0.4475,-0.4442,-0.4434,-0.4599,-0.5613,-0.6378,-0.6705,-0.6744,-0.6855,-0.7118,-0.7283,-0.7389,-0.7341,-0.6618,-0.6231,-0.6153,-0.578,-0.547,-0.5392,-0.5354,-0.5082,-0.4297,-0.4066,-0.3677,-0.3168,-0.2895,-0.2737,-0.2854,-0.3202,-0.3701,-0.3898,-0.3742,-0.3938,-0.4443,-0.4753,-0.4797,-0.4955,-0.4763,-0.4377,-0.4066,-0.3871,-0.3865,-0.3593,-0.3205,-0.2461,-0.176,-0.1797,-0.175,-0.1861,-0.1926,-0.1926,-0.1923,-0.1705,-0.1876,-0.2629,-0.2864,-0.273,-0.247,-0.2208,-0.2131,-0.2289,-0.2099,-0.1911,-0.2356,-0.2797,-0.2661,-1.0492,-1.0495,-1.0491,-0.9839,-0.8772,-0.7809,-0.6745,-0.5773,-0.478,-0.4458,-0.4442,-0.4179,-0.3995,-0.4017,-0.3744,-0.3805,-0.3967,-0.4082,-0.4084,-0.4118,-0.4184,-0.4217,-0.4217,-0.4253,-0.422,-0.4251,-0.4251,-0.4646,-0.5239,-0.5342,-0.5243,-0.5342,-0.5309,-0.5309,-0.5309,-0.5375,-0.5243,-0.5209,-0.4915,-0.4752,-0.4697,-0.4571,-0.4327,-0.402,-0.3916,-0.3557,-0.2961,-0.2947,-0.2923,-0.2771,-0.278,-0.2915,-0.3381,-0.3953,-0.4886,-0.5623,-0.5858,-0.5965,-0.6031,-0.5886,-0.5529,-0.5452,-0.4836,-0.4331,-0.4217,-0.3908,-0.3795,-0.3756,-0.3717,-0.3561,-0.3205,-0.3127,-0.2895,-0.2581,-0.2151,-0.1918,-0.1802,-0.1488,-0.1449,-0.1606,-0.2386,-0.2969,-0.3207,-0.3363,-0.3285,-0.3326,-0.3443,-0.3326,-0.313,-0.313,-0.3091,-0.2545,-0.2155,-0.1764,-0.1059,-0.0942,-0.0864,-0.0942,-0.0982,-0.0982,-0.1099,-0.1019,-0.1365,-0.1991,-0.1999,-0.1706,-0.1826,-0.1626,-0.1417,-0.1351,-0.1587,-0.1787,-0.1855,-0.1914,-0.1996,-0.8792,-0.8845,-0.8854,-0.7877,-0.6489,-0.6401,-0.5537,-0.4326,-0.4123,-0.419,-0.4423,-0.3826,-0.3444,-0.3266,-0.2878,-0.2549,-0.2551,-0.2751,-0.2852,-0.2885,-0.2751,-0.2753,-0.2989,-0.2989,-0.3054,-0.3121,-0.3121,-0.3656,-0.4483,-0.4716,-0.4812,-0.4716,-0.4815,-0.4882,-0.4782,-0.4447,-0.4746,-0.4453,-0.3976,-0.3652,-0.3557,-0.3307,-0.2914,-0.2362,-0.2304,-0.1978,-0.1502,-0.1591,-0.172,-0.1779,-0.1867,-0.1993,-0.2181,-0.2228,-0.2868,-0.3906,-0.4226,-0.4336,-0.4304,-0.4066,-0.3787,-0.3787,-0.3008,-0.2659,-0.2621,-0.2854,-0.266,-0.2503,-0.2582,-0.2504,-0.2347,-0.227,-0.2113,-0.1801,-0.1371,-0.1019,-0.098,-0.0784,-0.0628,-0.098,-0.1606,-0.1919,-0.2036,-0.2233,-0.2194,-0.2311,-0.2429,-0.2507,-0.2313,-0.2273,-0.2117,-0.145,-0.1059,-0.0902,-0.0549,-0.0275,-0.0196,-0.0118,-0.0157,-0.0118,-0.0314,-0.0471,-0.078,-0.0853,-0.0694,-0.0455,-0.0746,-0.1257,-0.1423,-0.1539,-0.1593,-0.1691,-0.1871,-0.2037,-0.2154,-0.3013,-0.3209,-0.3251,-0.309,-0.3203,-0.3292,-0.3124,-0.2923,-0.2885,-0.2928,-0.3027,-0.2834,-0.2373,-0.1913,-0.1844,-0.1844,-0.1945,-0.2047,-0.2147,-0.2181,-0.1679,-0.1746,-0.2214,-0.2315,-0.2316,-0.2283,-0.2283,-0.272,-0.3286,-0.3456,-0.3456,-0.3456,-0.3456,-0.3458,-0.342,-0.3064,-0.2581,-0.2459,-0.1891,-0.1548,-0.1575,-0.155,-0.1451,-0.1319,-0.13,-0.1241,-0.1017,-0.1106,-0.1314,-0.155,-0.1867,-0.2104,-0.2228,-0.2386,-0.2462,-0.2691,-0.2773,-0.2778,-0.2895,-0.2778,-0.266,-0.2659,-0.2387,-0.2464,-0.2229,-0.219,-0.2229,-0.2503,-0.2347,-0.1917,-0.1369,-0.1331,-0.1019,-0.0588,-0.0118,-0.0118,-0.0157,0.0235,0.0353,0.0118,-0.0391,-0.0588,-0.0745,-0.0942,-0.1139,-0.1295,-0.1412,-0.1412,-0.1373,-0.1176,-0.1059,-0.0431,-0.0118,0.0,0.0118,0.0353,0.0431,0.0588,0.0588,0.0627,0.047,0.0313,0.0666,0.0663,0.0738,0.0272,-0.0422,-0.0997,-0.1473,-0.1426,-0.1063,-0.1435,-0.2036,-0.2126,-0.188,-0.1391,-0.2379,-0.2419,-0.2468,-0.2478,-0.2089,-0.2014,-0.2054,-0.1671,-0.1578,-0.1781,-0.178,-0.1546,-0.121,-0.1276,-0.1343,-0.1411,-0.1443,-0.1477,-0.1544,-0.1176,-0.1143,-0.1478,-0.1578,-0.1578,-0.1578,-0.1578,-0.1647,-0.1982,-0.2016,-0.2016,-0.2049,-0.2017,-0.2016,-0.2128,-0.1708,-0.158,-0.1455,-0.1235,-0.1123,-0.1181,-0.119,-0.101,-0.0606,-0.0613,-0.0385,-0.0116,-0.0078,-0.0118,-0.0196,-0.0392,-0.0588,-0.0666,-0.0784,-0.094,-0.1097,-0.1097,-0.1528,-0.2309,-0.1995,-0.1879,-0.1644,-0.141,-0.1019,-0.1058,-0.1058,-0.1097,-0.1058,-0.0587,-0.0235,0.0157,0.0587,0.0978,0.1253,0.1136,0.1175,0.1097,0.1254,0.141,0.1135,0.0901,0.0744,0.0549,0.0274,0.0196,0.0274,0.0235,0.0235,0.0274,0.0353,0.047,0.0627,0.0783,0.0822,0.0901,0.1019,0.1058,0.1136,0.1097,0.1136,0.1136,0.1214,0.1567,0.1488,0.1172,0.0586,-0.0118,-0.0196,-0.0195,-0.0272,-0.0311,-0.0656,-0.096,-0.0693,-0.0495,-0.0707,-0.2055,-0.2035,-0.2052,-0.2121,-0.1433,-0.1377,-0.1579,-0.1008,-0.0873,-0.0974,-0.0907,-0.0739,-0.0739,-0.0706,-0.0672,-0.0739,-0.0739,-0.0806,-0.0773,-0.0638,-0.0571,-0.0739,-0.084,-0.0806,-0.0806,-0.0806,-0.0739,-0.0573,-0.0609,-0.0713,-0.1043,-0.1291,-0.1191,-0.1061,-0.0837,-0.0638,-0.0359,-0.0328,-0.0372,-0.0531,-0.061,-0.0308,-0.0039,0.0157,0.0431,0.1021,0.0943,0.0942,0.0825,0.051,0.0353,0.0667,0.0588,0.0666,0.0705,0.0822,0.043,-0.0391,-0.0704,-0.0901,-0.0706,-0.0118,0.0431,0.0706,0.0706,0.0667,0.0627,0.1018,0.1409,0.1723,0.2073,0.2112,0.219,0.2268,0.2425,0.2425,0.227,0.1995,0.1604,0.1564,0.1955,0.176,0.1527,0.1526,0.176,0.1838,0.1801,0.1644,0.1488,0.1528,0.1488,0.1606,0.1762,0.2075,0.2036,0.1919,0.1802,0.1762,0.1919,0.2115,0.2154,0.2349,0.2115,0.1802,0.188,0.1723,0.1449,0.1096,0.0547,0.0195,0.0391,0.043,0.0666,0.0586,-0.0067,-0.0869,-0.0602,-0.0669,-0.097,-0.0872,-0.0941,-0.1109,-0.1008,-0.0907,-0.0773,-0.0269,0.0168,0.0168,0.0134,0.0134,0.0168,0.0202,0.0067,0.0235,0.0605,0.0437,0.0134,-0.0067,-0.0067,-0.0067,-0.0067,0.0302,0.071,0.0551,-0.0034,-0.088,-0.0658,-0.0871,-0.0704,-0.0179,0.0294,0.0596,0.0716,0.0801,0.0775,0.082,0.09,0.098,0.11,0.114,0.0982,0.1021,0.1178,0.1099,0.0942,0.1098,0.1685,0.1646,0.1801,0.2189,0.2384,0.207,0.168,0.0743,0.0078,0.0235,0.0784,0.1606,0.1958,0.2387,0.2426,0.2113,0.2231,0.2386,0.2425,0.2542,0.2895,0.3012,0.3129,0.309,0.3012,0.2817,0.2542,0.2072,0.2267,0.2813,0.301,0.2738,0.2582,0.2776,0.2504,0.2427,0.2154,0.1997,0.2117,0.2195,0.2392,0.2744,0.3409,0.3331,0.2938,0.286,0.2899,0.3095,0.337,0.337,0.3056,0.3134,0.2978,0.3292,0.3331,0.2546,0.1762,0.0979,0.0783,0.1331,0.1409,0.137,0.1096,0.1076,0.0706,0.084,0.0168,-0.0941,-0.037,-0.0235,-0.0302,0.0134,0.0302,0.0235,0.0638,0.0806,0.0806,0.0806,0.0773,0.0773,0.0773,0.0739,0.0773,0.0941,0.0941,0.0672,0.0706,0.0672,0.0706,0.0706,0.0748,0.1002,0.1296,0.0954,0.0424,0.0357,0.0358,0.0543,0.0479,0.0869,0.1076,0.1239,0.1209,0.1056,0.1061,0.1022,0.0864,0.0864,0.1217,0.1569,0.1568,0.192,0.2232,0.2073,0.2308,0.262,0.2542,0.2774,0.3163,0.3279,0.3203,0.3049,0.2308,0.1917,0.1722,0.2035,0.2348,0.2817,0.2699,0.2621,0.262,0.3049,0.3246,0.3324,0.3756,0.4148,0.407,0.3915,0.3834,0.3717,0.356,0.3482,0.3246,0.3482,0.3951,0.399,0.399,0.3834,0.3717,0.3368,0.3056,0.2741,0.2585,0.2743,0.2862,0.3018,0.3137,0.3724,0.3802,0.3802,0.3802,0.3802,0.3802,0.3802,0.3763,0.3565,0.3802,0.3802,0.3684,0.3448,0.3095,0.2624,0.2193,0.2271,0.2663,0.2507,0.2075,0.1841,0.1648,0.1513,0.1479,0.0773,-0.0235,0.0302,0.0504,0.047,0.0941,0.121,0.1109,0.1277,0.1411,0.1444,0.1679,0.1745,0.1812,0.1779,0.1779,0.1812,0.1812,0.1712,0.1712,0.1748,0.1855,0.1762,0.1772,0.1862,0.2052,0.1926,0.1952,0.2015,0.1928,0.1746,0.1001,0.1059,0.1082,0.1096,0.1061,0.1296,0.1218,0.1335,0.1648,0.1647,0.1803,0.1959,0.2427,0.2466,0.2699,0.2971,0.3125,0.3242,0.3437,0.3554,0.3593,0.3709,0.3789,0.3752,0.3638,0.3051,0.3088,0.3012,0.3012,0.3166,0.3246,0.3285,0.3597,0.3443,0.3873,0.4146,0.4185,0.4543,0.474,0.4584,0.4584,0.4543,0.4584,0.4504,0.4545,0.4504,0.4659,0.4618,0.5115,0.5076,0.4691,0.438,0.3841,0.3567,0.3448,0.337,0.3448,0.3528,0.3606,0.3684,0.3802,0.3802,0.3802,0.3802,0.3802,0.3802,0.3802,0.3841,0.3841,0.3802,0.3802,0.3802,0.3684,0.3409,0.3526,0.3645,0.3526,0.3214,0.3018,0.2588,0.2744,0.1378,0.1277,0.1244,0.121,0.1243,0.1277,0.121,0.1109,0.1243,0.131,0.1411,0.1846,0.2079,0.2213,0.2616,0.2783,0.2817,0.2915,0.2922,0.2864,0.2772,0.2993,0.3006,0.2956,0.2855,0.3271,0.3114,0.308,0.3417,0.3204,0.3323,0.3325,0.3094,0.2647,0.1101,0.0775,0.0667,0.0706,0.0903,0.1491,0.196,0.2117,0.2507,0.2857,0.2935,0.2934,0.3207,0.3246,0.3402,0.3634,0.3519,0.3752,0.4258,0.4222,0.4496,0.5165,0.5285,0.5323,0.5326,0.3599,0.3402,0.3912,0.3951,0.4146,0.4851,0.5046,0.4774,0.4345,0.4701,0.4896,0.4976,0.5015,0.5132,0.5362,0.544,0.5479,0.5553,0.5592,0.5667,0.5667,0.524,0.5046,0.5812,0.6195,0.5619,0.5082,0.4389,0.4116,0.4229,0.4382,0.4574,0.4499,0.4496,0.4265,0.4265,0.3919,0.3802,0.3802,0.3802,0.3802,0.3919,0.4034,0.3958,0.3919,0.4229,0.4577,0.4229,0.3841,0.3958,0.3995,0.3567,0.3294,0.3139,0.3022,0.2982,0.2149,0.2082,0.2515,0.2716,0.2683,0.2216,0.1913,0.1879,0.2214,0.248,0.2514,0.2781,0.2848,0.2948,0.3084,0.3318,0.3282,0.322,0.323,0.337,0.3442,0.3424,0.3513,0.3664,0.3622,0.3579,0.3631,0.3706,0.3612,0.3841,0.3774,0.3703,0.3728,0.3191,0.2908,0.2733,0.2738,0.274,0.2778,0.2856,0.2973,0.2896,0.2976,0.3287,0.3246,0.3402,0.3871,0.3949,0.4105,0.4457,0.4421,0.4654,0.5046,0.4971,0.5168,0.5562,0.5601,0.5521,0.5365,0.4538,0.4421,0.4735,0.4737,0.4776,0.5093,0.5093,0.5054,0.5129,0.5246,0.5398,0.5667,0.5783,0.6012,0.6665,0.6815,0.6815,0.6853,0.6811,0.6811,0.6815,0.6546,0.6234,0.6615,0.7191,0.6846,0.6619,0.6079,0.5732,0.5729,0.588,0.6034,0.5729,0.5535,0.5076,0.4768,0.4538,0.4268,0.4229,0.4034,0.3802,0.3958,0.4345,0.4538,0.4654,0.5043,0.5389,0.5043,0.4732,0.4382,0.4187,0.3915,0.3526,0.3255,0.302,0.2824,0.2785,0.275,0.3184,0.3387,0.3318,0.2883,0.2581,0.2581,0.2982,0.3218,0.3218,0.3418,0.3585,0.3651,0.3851,0.3951,0.3954,0.4035,0.406,0.4159,0.4234,0.442,0.4472,0.4408,0.4623,0.4434,0.4465,0.4546,0.4611,0.45,0.454,0.4433,0.4107,0.4258,0.4139,0.3791,0.3129,0.3012,0.2973,0.3207,0.3441,0.3558,0.3599,0.3793,0.391,0.399,0.446,0.4735,0.489,0.5404,0.5559,0.5521,0.5482,0.5443,0.5407,0.5407,0.5368,0.5443,0.5515,0.5512,0.5547,0.6086,0.5476,0.5171,0.5323,0.5515,0.5783,0.586,0.5783,0.6089,0.6507,0.6623,0.6892,0.754,0.7579,0.754,0.7536,0.746,0.7425,0.7506,0.7468,0.731,0.7417,0.788,0.8109,0.8033,0.788,0.7494,0.7073,0.703,0.703,0.6727,0.6384,0.5886,0.5503,0.5234,0.4965,0.4691,0.4538,0.4423,0.4771,0.5276,0.5354,0.5431,0.5699,0.589,0.5893,0.5661,0.527,0.4882,0.4608,0.4105,0.3446,0.3368,0.3405,0.3251,0.3251,0.3249,0.3349,0.3316,0.3384,0.3351,0.3316,0.3318,0.3384,0.3382,0.412,0.432,0.4456,0.5033,0.5219,0.5185,0.5326,0.5329,0.5415,0.5298,0.5496,0.5528,0.5507,0.5399,0.5675,0.571,0.5371,0.5767,0.5479,0.5413,0.5434,0.5168,0.5165,0.4735,0.4068,0.3324,0.3443,0.3521,0.3832,0.4185,0.4224,0.4499,0.4771,0.501,0.501,0.5246,0.5285,0.5362,0.5482,0.5401,0.5323,0.5246,0.5093,0.5057,0.5096,0.5135,0.5592,0.6167,0.6279,0.6546,0.6815,0.6012,0.5819,0.5973,0.6279,0.6511,0.6815,0.6965,0.7195,0.7502,0.754,0.7617,0.7808,0.7884,0.7884,0.7884,0.7846,0.777,0.7774,0.7774,0.7851,0.8418,0.8879,0.8955,0.9074,0.8841,0.8456,0.8033,0.7647,0.7574,0.7387,0.7003,0.6584,0.6237,0.597,0.5661,0.5351,0.5583,0.5583,0.5931,0.6125,0.624,0.6279,0.6318,0.6391,0.643,0.6314,0.6044,0.5732,0.5535,0.5032,0.4494,0.4722,0.4797,0.422,0.4253,0.4716,0.4915,0.4882,0.4788,0.4821,0.4882,0.4818,0.4791,0.4791,0.4957,0.499,0.5133,0.5403,0.5508,0.5576,0.5636,0.5656,0.5692,0.5705,0.5685,0.5664,0.5648,0.5695,0.5711,0.5733,0.5736,0.5661,0.5676,0.5673,0.5595,0.5443,0.5401,0.5126,0.4618,0.4462,0.4382,0.4343,0.4618,0.4851,0.489,0.5165,0.5282,0.5287,0.5249,0.5249,0.521,0.5212,0.5171,0.5132,0.5093,0.5054,0.5054,0.5132,0.5783,0.5938,0.6205,0.6927,0.7119,0.731,0.7574,0.7042,0.6969,0.7084,0.7199,0.731,0.7655,0.7884,0.7999,0.8271,0.8347,0.8537,0.8689,0.8765,0.8765,0.8765,0.8727,0.8689,0.8689,0.8618,0.8732,0.9301,0.9382,0.9496,0.9765,0.969,0.9263,0.8917,0.8494,0.8194,0.8003,0.774,0.7395,0.7011,0.6742,0.6395,0.6125,0.6433,0.6549,0.6549,0.6703,0.7015,0.7207,0.728,0.7161,0.6969,0.6892,0.6888,0.6853,0.6619,0.6076,0.569,0.5957,0.5915,0.4894,0.496,0.5355,0.5521,0.5488,0.5428,0.5462,0.5488,0.5428,0.5395,0.5395,0.5395,0.5395,0.5382,0.5436,0.5479,0.5458,0.5545,0.5568,0.5572,0.5629,0.5622,0.5616,0.5562,0.5586,0.5601,0.5562,0.5586,0.5482,0.5404,0.5365,0.5326,0.5246,0.5207,0.509,0.4973,0.5054,0.5132,0.5249,0.5368,0.5326,0.5246,0.5207,0.5168,0.5054,0.5018,0.5018,0.5018,0.5018,0.5018,0.5018,0.521,0.544,0.5783,0.6089,0.67,0.6738,0.7161,0.7774,0.797,0.8156,0.8342,0.838,0.8456,0.8271,0.8271,0.8385,0.8537,0.8575,0.8651,0.8927,0.9198,0.9501,0.9803,0.9803,0.9846,0.9809,0.9809,0.9809,0.9803,0.9765,0.9728,0.9846,0.9884,0.9846,0.9771,0.9695,0.9506,0.9311,0.916,0.8894,0.8708,0.8475,0.8208,0.7821,0.7514,0.7395,0.728,0.7472,0.7548,0.7318,0.7395,0.7783,0.8089,0.8318,0.8046,0.7702,0.7778,0.7817,0.774,0.7668,0.7399,0.7161,0.7268,0.7076,0.5362,0.5359,0.5359,0.5329,0.5359,0.5329,0.5329,0.5362,0.5329,0.5359,0.5359,0.5359,0.5306,0.5299,0.5324,0.5332,0.5393,0.5457,0.5488,0.5376,0.5513,0.5509,0.5473,0.5562,0.5446,0.5524,0.5521,0.5365,0.5246,0.5171,0.5096,0.5018,0.5018,0.5057,0.5054,0.5018,0.5057,0.5096,0.5096,0.5096,0.5057,0.5018,0.5018,0.5018,0.5018,0.5018,0.5015,0.5054,0.5093,0.5093,0.5362,0.5705,0.6279,0.685,0.7234,0.7544,0.7583,0.8042,0.8542,0.8813,0.9117,0.9463,0.9846,0.9609,0.9268,0.9041,0.9079,0.9231,0.9263,0.9263,0.9501,0.9539,0.9771,0.9884,0.9884,0.9884,0.9884,0.9884,0.9884,0.9884,0.9884,0.9884,0.9884,0.9884,0.9771,0.9663,0.9549,0.9473,0.9397,0.9397,0.9322,0.9099,0.8827,0.8556,0.8475,0.828,0.8437,0.8475,0.8432,0.8394,0.805,0.828,0.8627,0.8627,0.8589,0.8627,0.8475,0.8437,0.8365,0.8408,0.8412,0.8608,0.857,0.8354,0.8093,0.5326,0.5156,0.4994,0.4964,0.4964,0.493,0.4964,0.493,0.4927,0.5033,0.5126,0.5043,0.5023,0.5121,0.5223,0.5248,0.5347,0.5379,0.541,0.5343,0.5354,0.5323,0.521,0.5212,0.5174,0.5135,0.5132,0.5171,0.5093,0.5018,0.5018,0.5018,0.5018,0.5018,0.5018,0.5018,0.5018,0.5018,0.5018,0.4979,0.4979,0.4979,0.5018,0.5018,0.5018,0.5057,0.5207,0.5592,0.5783,0.5935,0.6623,0.6965,0.7195,0.7421,0.7846,0.8275,0.8428,0.8851,0.9231,0.9463,0.9652,0.9733,0.9884,0.9884,0.9809,0.969,0.969,0.9809,0.9884,0.9884,0.9884,0.9884,0.9884,0.9884,0.9884,0.9884,0.9884,0.9884,0.9884,0.9884,0.9884,0.9846,0.9846,0.9771,0.97,0.9549,0.9435,0.9322,0.9175,0.9099,0.9132,0.8984,0.8861,0.8703,0.8703,0.8703,0.8703,0.8703,0.8589,0.8627,0.8708,0.8751,0.8779,0.8722,0.8665,0.8784,0.8807,0.8684,0.8689,0.8798,0.8855,0.8907,0.8839,0.8679,0.8615,0.5093,0.496,0.4831,0.4794,0.4794,0.4794,0.4831,0.4845,0.4784,0.485,0.4986,0.4925,0.4934,0.5005,0.5117,0.5191,0.5266,0.5301,0.5223,0.5162,0.5168,0.5132,0.5054,0.5018,0.5018,0.5018,0.5018,0.5018,0.5018,0.5018,0.5018,0.5018,0.5018,0.5018,0.5018,0.5018,0.5096,0.5018,0.5096,0.5054,0.5015,0.5015,0.5018,0.5018,0.5015,0.5171,0.5592,0.6051,0.6356,0.6853,0.7544,0.7889,0.8118,0.8456,0.8803,0.9079,0.9273,0.943,0.9771,0.9884,0.9884,0.9884,0.9884,0.9884,0.9884,0.9771,0.9765,0.9884,0.9884,0.9884,0.9884,0.9884,0.9884,0.9884,0.9884,0.9884,0.9884,0.9884,0.9884,0.9884,0.9846,0.9733,0.9657,0.9549,0.9473,0.9284,0.917,0.9241,0.9089,0.9362,0.9238,0.9171,0.9268,0.8918,0.8703,0.8703,0.8703,0.8703,0.8751,0.8727,0.8751,0.8783,0.8816,0.8821,0.8911,0.8976,0.8966,0.8921,0.8963,0.9072,0.9105,0.9129,0.9042,0.896,0.8906,0.4794,0.4761,0.4764,0.4743,0.4755,0.4755,0.4832,0.4908,0.4778,0.4765,0.4875,0.4912,0.495,0.4995,0.5045,0.5055,0.5106,0.5126,0.5049,0.5015,0.5018,0.5018,0.5018,0.5018,0.5018,0.5018,0.5018,0.5018,0.5018,0.4979,0.494,0.4979,0.5054,0.5129,0.5129,0.5323,0.5592,0.5667,0.5628,0.5398,0.5246,0.509,0.5207,0.5207,0.5321,0.5705,0.6163,0.6623,0.7003,0.7621,0.8351,0.8699,0.8965,0.9268,0.9496,0.9733,0.9695,0.9771,0.9884,0.9884,0.9884,0.9884,0.9884,0.9884,0.9884,0.9884,0.9884,0.9884,0.9884,0.9884,0.9884,0.9884,0.9884,0.9884,0.9884,0.9846,0.9846,0.9846,0.9846,0.9846,0.9733,0.962,0.9597,0.9446,0.937,0.918,0.9175,0.9122,0.9327,0.9975,1.028,1.0286,1.0335,0.9842,0.9009,0.8861,0.8928,0.8902,0.8949,0.885,0.8817,0.8929,0.9023,0.9042,0.9103,0.9169,0.9197,0.919,0.9261,0.9304,0.9305,0.9301,0.9225,0.9161,0.9131,0.4761,0.4625,0.4464,0.4453,0.4531,0.4542,0.4647,0.4753,0.4729,0.4706,0.479,0.4825,0.4839,0.4879,0.4835,0.4903,0.5032,0.501,0.5012,0.5018,0.5018,0.5018,0.5057,0.5171,0.5057,0.5093,0.5171,0.5096,0.5479,0.5168,0.4857,0.5012,0.5625,0.5774,0.5886,0.6234,0.6738,0.6661,0.6623,0.6507,0.6507,0.6314,0.5893,0.6121,0.658,0.6927,0.7387,0.7889,0.8237,0.8656,0.9117,0.9463,0.962,0.9733,0.9846,0.9884,0.9884,0.9884,0.9884,0.9846,0.9846,0.9846,0.9846,0.9841,0.9841,0.9884,0.9884,0.9884,0.9884,0.9884,0.9884,0.9884,0.9884,0.9884,0.9884,0.9771,0.9695,0.9663,0.9663,0.9657,0.962,0.9673,0.9818,0.9824,0.9948,0.991,1.0198,1.0225,1.0758,1.1088,1.1324,1.1203,1.1202,1.0405,0.9434,0.9252,0.9242,0.9185,0.9117,0.9082,0.9086,0.9159,0.9235,0.9244,0.9258,0.9341,0.9365,0.945,0.9408,0.9441,0.9493,0.9507,0.9428,0.9372,0.935]},{"header":{"parameterUnit":"m.s-1","parameterCategory":1,"la1":31.0,"la2":29.5877,"lo1":-88.7671,"lo2":-86.6584,"dy":0.0162,"dx":0.0185,"nx":115,"ny":88,"refTime":"2023-08-20T12:00:00:Z","depth":0,"parameterNumber":3,"parameterNumberName":"V-component_of_WINDS"},"data":[0.0,0.0,0.0,0.0,0.0,0.0,0.0,0.0,0.0,0.0,0.0,0.0,0.0,0.0,0.0,0.0,0.0,0.0,0.0,0.0,0.0,0.0,0.0,0.0,0.0,0.0,0.0,0.0,0.0,0.0,0.0,0.0,0.0,0.0,0.0,0.0,0.0,0.0,0.0,0.0,0.0,0.0,0.0,0.0,0.0,0.0,0.0,0.0,0.0,0.0,0.0,0.0,0.0,0.0,0.0,0.0,0.0,0.0,0.0,0.0,0.0,0.0,0.0,0.0,0.0,0.0,0.0,0.0,0.0,0.0,0.0,0.0,0.0,0.0,0.0,0.0,0.0,0.0,0.0,0.0,0.0,0.0,0.0,0.0,0.0,0.0,0.0,0.0,0.0,0.0,0.0,0.0,0.0,0.0,0.0,0.0,0.0,0.0,0.0,0.0,0.0,0.0,0.0,0.0,0.0,0.0,0.0,0.0,0.0,0.0,0.0,0.0,0.0,0.0,0.0,0.0,0.0,0.0,0.0,0.0,0.0,0.0,0.0,0.0,0.0,0.0,0.0,0.0,0.0,0.0,0.0,0.0,0.0,0.0,0.0,0.0,0.0,0.0,0.0,0.0,0.0,0.0,0.0,0.0,0.0,0.0,0.0,0.0,0.0,0.0,0.0,0.0,0.0,0.0,0.0,0.0,0.0,0.0,0.0,0.0,0.0,0.0,0.0,0.0,0.0,0.0,0.0,0.0,0.0,0.0,0.0,0.0,0.0,0.0,0.0,0.0,0.0,0.0,0.0,0.0,0.0,0.0,0.0,0.0,0.0,0.0,0.0,0.0,0.0,0.0,0.0,0.0,0.0,0.0,0.0,0.0,0.0,0.0,0.0,0.0,0.0,0.0,0.0,0.0,0.0,0.0,0.0,0.0,0.0,0.0,0.0,0.0,0.0,0.0,0.0,0.0,0.0,0.0,0.0,0.0,0.0,0.0,0.0,0.0,0.0,0.0,0.0,0.0,0.0,0.0,0.0,0.0,0.0,0.0,0.0,0.0,0.0,0.0,0.0,0.0,0.0,0.0,0.0,0.0,0.0,0.0,0.0,0.0,0.0,0.0,0.0,0.0,0.0,0.0,0.0,0.0,0.0,0.0,0.0,0.0,0.0,0.0,0.0,0.0,0.0,0.0,0.0,0.0,0.0,0.0,0.0,0.0,0.0,0.0,0.0,0.0,0.0,0.0,0.0,0.0,0.0,0.0,0.0,0.0,0.0,0.0,0.0,0.0,0.0,0.0,0.0,0.0,0.0,0.0,0.0,0.0,0.0,0.0,0.0,0.0,0.0,0.0,0.0,0.0,0.0,0.0,0.0,0.0,0.0,0.0,0.0,0.0,0.0,0.0,0.0,0.0,0.0,0.0,0.0,0.0,0.0,0.0,0.0,0.0,0.0,0.0,0.0,0.0,0.0,0.0,0.0,0.0,0.0,0.0,0.0,0.0,0.0,0.0,0.0,0.0,0.0,0.0,0.0,0.0,0.0,0.0,0.0,0.0,0.0,0.0,0.0,0.0,0.0,0.0,0.0,0.0,0.0,0.0,0.0,0.0,0.0,0.0,0.0,0.0,0.0,0.0,0.0,0.0,0.0,0.0,0.0,0.0,0.0,0.0,0.0,0.0,0.0,0.0,0.0,0.0,0.0,0.0,0.0,0.0,0.0,0.0,0.0,0.0,0.0,0.0,0.0,0.0,0.0,0.0,0.0,0.0,0.0,0.0,0.0,0.0,0.0,0.0,0.0,0.0,0.0,0.0,0.0,0.0,0.0,0.0,0.0,0.0,0.0,0.0,0.0,0.0,0.0,0.0,0.0,0.0,0.0,0.0,0.0,0.0,0.0,0.0,0.0,0.0,0.0,0.0,0.0,0.0,0.0,0.0,0.0,0.0,0.0,0.0,0.0,0.0,0.0,0.0,0.0,0.0,0.0,0.0,0.0,0.0,0.0,0.0,0.0,0.0,0.0,0.0,0.0,0.0,0.0,0.0,0.0,0.0,0.0,0.0,0.0,0.0,0.0,0.0,0.0,0.0,0.0,0.0,0.0,0.0,0.0,0.0,0.0,0.0,0.0,0.0,0.0,0.0,0.0,0.0,0.0,0.0,0.0,0.0,0.0,0.0,0.0,0.0,0.0,0.0,0.0,0.0,0.0,0.0,0.0,0.0,0.0,0.0,0.0,0.0,0.0,0.0,0.0,0.0,0.0,0.0,0.0,0.0,0.0,0.0,0.0,0.0,0.0,0.0,0.0,0.0,0.0,0.0,0.0,0.0,0.0,0.0,0.0,0.0,0.0,0.0,0.0,0.0,0.0,0.0,0.0,0.0,0.0,0.0,0.0,0.0,0.0,0.0,0.0,0.0,0.0,0.0,0.0,0.0,0.0,0.0,0.0,0.0,0.0,0.0,0.0,0.0,0.0,0.0,0.0,0.0,0.0,0.0,0.0,0.0,0.0,0.0,0.0,0.0,0.0,0.0,0.0,0.0,0.0,0.0,0.0,0.0,0.0,0.0,0.0,0.0,0.0,0.0,0.0,0.0,0.0,0.0,0.0,0.0,0.0,0.0,0.0,0.0,0.0,0.0,0.0,0.0,0.0,0.0,0.0,0.0,0.0,0.0,0.0,0.0,0.0,0.0,0.0,0.0,0.0,0.0,0.0,0.0,0.0,0.0,0.0,0.0,0.0,0.0,0.0,0.0,0.0,0.0,0.0,0.0,0.0,0.0,0.0,0.0,0.0,0.0,0.0,0.0,0.0,0.0,0.0,0.0,0.0,0.0,0.0,0.0,0.0,0.0,0.0,0.0,0.0,0.0,0.0,0.0,0.0,0.0,0.0,0.0,0.0,0.0,0.0,0.0,0.0,0.0,0.0,0.0,0.0,0.0,0.0,0.0,0.0,0.0,0.0,0.0,0.0,0.0,0.0,0.0,0.0,0.0,0.0,0.0,0.0,0.0,0.0,0.0,0.0,0.0,0.0,0.0,0.0,0.0,0.0,0.0,0.0,0.0,0.0,0.0,0.0,0.0,0.0,0.0,0.0,0.0,0.0,0.0,0.0,0.0,0.0,0.0,0.0,0.0,0.0,0.0,0.0,0.0,0.0,0.0,0.0,0.0,0.0,0.0,0.0,0.0,0.0,0.0,0.0,0.0,0.0,0.0,0.0,0.0,0.0,0.0,0.0,0.0,0.0,0.0,0.0,0.0,0.0,0.0,0.0,0.0,0.0,0.0,0.0,0.0,0.0,0.0,0.0,0.0,0.0,0.0,0.0,0.0,0.0,0.0,0.0,0.0,0.0,0.0,0.0,0.0,0.0,0.0,0.0,0.0,0.0,0.0,0.0,0.0,0.0,0.0,0.0,0.0,0.0,0.0,0.0,0.0,0.0,0.0,0.0,0.0,0.0,0.0,0.0,0.0,0.0,0.0,0.0,0.0,0.0,0.0,0.0,0.0,0.0,0.0,0.0,0.0,0.0,0.0,0.0,0.0,0.0,0.0,0.0,0.0,0.0,0.0,0.0,0.0,0.0,0.0,0.0,0.0,0.0,0.0,0.0,0.0,0.0,0.0,0.0,0.0,0.0,0.0,0.0,0.0,0.0,0.0,0.0,0.0,0.0,0.0,0.0,0.0,0.0,0.0,0.0,0.0,0.0,0.0,0.0,0.0,0.0,0.0,0.0,0.0,0.0,0.0,0.0,0.0,0.0,0.0,0.0,0.0,0.0,0.0,0.0,0.0,0.0,0.0,0.0,0.0,0.0,0.0,0.0,0.0,0.0,0.0,0.0,0.0,0.0,0.0,0.0,0.0,0.0,0.0,0.0,0.0,0.0,0.0,0.0,0.0,0.0,0.0,0.0,0.0,0.0,0.0,0.0,0.0,0.0,0.0,0.0,0.0,0.0,0.0,0.0,0.0,0.0,0.0,0.0,0.0,0.0,0.0,0.0,0.0,0.0,0.0,0.0,0.0,0.0,0.0,0.0,0.0,0.0,0.0,0.0,0.0,0.0,0.0,0.0,0.0,0.0,0.0,0.0,0.0,0.0,0.0,0.0,0.0,0.0,0.0,0.0,0.0,0.0,0.0,0.0,0.0,0.0,0.0,0.0,0.0,0.0,0.0,0.0,0.0,0.0,0.0,0.0,0.0,0.0,0.0,0.0,0.0,0.0,0.0,0.0,0.0,0.0,0.0,0.0,0.0,0.0,0.0,0.0,0.0,0.0,0.0,0.0,0.0,0.0,0.0,-0.1167,0.0,0.0,0.0,0.0,0.0,0.0,0.0,0.0,0.0,0.0,0.0,0.0,0.0,0.0,0.0,0.0,0.0,0.0,0.0,0.0,0.0,0.0,0.0,0.0,0.0,0.0,0.0,0.0,0.0,0.0,0.0,0.0,0.0,0.0,0.0,0.0,0.0,0.0,0.0,0.0,0.0,0.0,0.0,0.0,0.0,0.0,0.0,0.0,0.0,0.0,0.0,0.0,0.0,0.0,0.0,0.0,0.0,0.0,0.0,0.0,0.0,0.0,0.0,0.0,0.0,0.0,0.0,0.0,0.0,0.0,0.0,0.0,0.0,0.0,0.0,0.0,0.0,0.0,0.0,0.0,0.0,0.0,0.0,0.0,0.0,0.0,0.0,0.0,0.0,0.0,0.0,0.0,0.0,0.0,0.0,0.0,0.0,0.0,0.0,0.0,0.0,0.0,0.0,0.0,0.0,0.0,0.0,0.0,0.0,0.0,0.0546,-0.0413,-0.0455,-0.093,-0.1851,0.0,0.0,0.0,0.0,0.0,0.0,0.0,0.0,0.0,0.0,0.0,0.0,0.0,0.0,0.0,0.0,0.0,0.0,0.0,0.0,0.0,0.0,0.0,0.0,0.0,0.0,0.0,0.0,0.0,0.0,0.0,0.0,0.0,0.0,0.0,0.0,0.0,0.0,0.0,0.0,0.0,0.0,0.0,0.0,0.0,0.0,0.0,0.0,0.0,0.0,0.0,0.0,0.0,0.0,0.0,0.0,0.0,0.0,0.0,0.0,0.0,0.0,0.0,0.0,0.0,0.0,0.0,0.0,0.0,0.0,0.0,0.0,0.0,0.0,0.0,0.0,0.0,0.0,0.0,0.0,0.0,0.0,0.0,0.0,0.0,0.0,0.0,0.0,0.0,0.0,0.0,0.0,0.0,0.0,0.0,0.0,0.0,0.0,0.0,0.0,0.0,0.0,0.0,0.0,0.0,0.0,0.0,0.0,0.0,0.0,0.0,0.0,-0.091,-0.1577,-0.2542,0.0,0.0,0.0,0.0,0.0,0.0,0.0,0.0,0.0,0.0,0.0,0.0,0.0,0.0,0.0,0.0,0.0,0.0,0.0,0.0,0.0,0.0,0.0,0.0,0.0,0.0,0.0,0.0,0.0,0.0,0.0,0.0,0.0,0.0,0.0,0.0,0.0,0.0,0.0,0.0,0.0,0.0,0.0,0.0,0.0,0.0,0.0,0.0,0.0,0.0,0.0,0.0,0.0,0.0,0.0,0.0,0.0,0.0,0.0,0.0,0.0,0.0,0.0,0.0,0.0,0.0,0.0,0.0,0.0,0.0,0.0,0.0,0.0,0.0,0.0,0.0,0.0,0.0,0.0,0.0,0.0,0.0,0.0,0.0,0.0,0.0,0.0,0.0,0.0,0.0,0.0,0.0,0.0,0.0,0.0,0.0,0.0,0.0,0.0,0.0,0.0,0.0,0.0,0.0,0.0,0.0,0.0,0.0,0.0,0.0,0.0115,-0.0985,-0.1576,0.0,-0.3996,0.0,0.0,0.0,0.0,0.0,0.0,0.0,0.0,0.0,0.0,0.0,0.0,0.0,0.0,0.0,0.0,0.0,0.0,0.0,0.0,0.0,0.0,0.0,0.0,0.0,0.0,0.0,0.0,0.0,0.0,0.0,0.0,0.0,0.0,0.0,0.0,0.0,0.0,0.0,0.0,0.0,0.0,0.0,0.0,0.0,0.0,0.0,0.0,0.0,0.0,0.0,0.0,0.0,0.0,0.0,0.0,0.0,0.0,0.0,0.0,0.0,0.0,0.0,0.0,0.0,0.0,0.0,0.0,0.0,0.0,0.0,0.0,0.0,0.0,0.0,0.0,0.0,0.0,0.0,0.0,0.0,0.0,0.0,0.0,0.0,0.0,0.0,0.0,0.0,0.0,0.0,0.0,0.0,0.0,0.0,0.0,0.0,0.0,0.0,0.0,0.0,0.0,0.0,0.0,0.0,0.0,0.0,0.0,0.0,0.0,-0.0075,-0.1096,-0.2542,-0.3898,0.0,0.0,0.0,0.0,0.0,0.0,0.0,0.0,0.0,0.0,0.0,0.0,0.0,0.0,0.0,0.0,0.0,0.0,0.0,0.0,0.0,0.0,0.0,0.0,0.0,0.0,0.0,0.0,0.0,0.0,0.0,0.0,0.0,0.0,0.0,0.0,0.0,0.0,0.0,0.0,0.0,0.0,0.0,0.0,0.0,0.0,0.0,0.0,0.0,0.0,0.0,0.0,0.0,0.0,0.0,0.0,0.0,0.0,0.0,0.0,0.0,0.0,0.0,0.0,0.0,0.0,0.0,0.0,0.0,0.0,0.0,0.0,0.0,0.0,0.0,0.0,0.0,0.0,0.0,0.0,0.0,0.0,0.0,0.0,0.0,0.0,0.0,0.0,0.0,0.0,0.0,0.0,0.0,0.0,0.0,0.0,0.0,0.0,0.0,0.0,0.0,0.0,0.0,0.0,0.0,0.0,0.0,0.0,0.0,0.0,0.0288,-0.033,-0.1441,-0.2943,-0.4354,-0.5529,0.0,0.0,0.0,0.0,0.0,0.0,0.0,0.0,0.0,0.0,0.0,0.0,0.0,0.0,0.0,0.0,0.0,0.0,0.0,0.0,0.0,0.0,0.0,0.0,0.0,0.0,0.0,0.0,0.0,0.0,0.0,0.0,0.0,0.0,0.0,0.0,0.0,0.0,0.0,0.0,0.0,0.0,0.0,0.0,0.0,0.0,0.0,0.0,0.0,0.0,0.0,0.0,0.0,0.0,0.0,0.0,0.0,0.0,0.0,0.0,0.0,0.0,0.0,0.0,0.0,0.0,0.0,0.0,0.0,0.0,0.0,0.0,0.0,0.0,0.0,0.0,0.0,0.0,0.0,0.0,0.0,0.0,0.0,0.0,0.0,0.0,0.0,0.0,0.0,0.0,0.0,0.0,0.0,0.0,0.0,0.0,0.0,0.0,0.0,0.0,0.0,0.0,0.0,0.0,0.0,0.0,0.0,0.0,0.0,0.0,-0.0739,-0.229,-0.2554,-0.3423,0.0,0.0,0.0,0.0,0.0,0.0,0.0,0.0,0.0,0.0,0.0,0.0,0.0,0.0,0.0,0.0,0.0,0.0,0.0,0.0,0.0,0.0,0.0,0.0,0.0,0.0,0.0,0.0,0.0,0.0,0.0,0.0,0.0,0.0,0.0,0.0,0.0,0.0,0.0,0.0,0.0,0.0,0.0,0.0,0.0,0.0,0.0,0.0,0.0,0.0,0.0,0.0,0.0,0.0,0.0,0.0,0.0,0.0,0.0,0.0,0.0,0.0,0.0,0.0,0.0,0.0,0.0,0.0,0.0,0.0,0.0,0.0,0.0,0.0,0.0,0.0,0.0,0.0,0.0,0.0,0.0,0.0,0.0,0.0,0.0,0.0,0.0,0.0,0.0,0.0,0.0,0.0,0.0,0.0,0.0,0.0,0.0,0.0,0.0,0.0,0.0,0.0,0.0,0.0,0.0,0.0,0.0,0.0,0.0,0.0,0.0,-0.0861,-0.2652,-0.2749,-0.3657,0.0,0.0,0.0,0.0,0.0,0.0,0.0,0.0,0.0,0.0,0.0,0.0,0.0,0.0,0.0,0.0,0.0,0.0,0.0,0.0,0.0,0.0,0.0,0.0,0.0,0.0,0.0,0.0,0.0,0.0,0.0,0.0,0.0,0.0,0.0,0.0,0.0,0.0,0.0,0.0,0.0,0.0,0.0,0.0,0.0,0.0,0.0,0.0,0.0,0.0,0.0,0.0,0.0,0.0,0.0,0.0,0.0,0.0,0.0,0.0,0.0,0.0,0.0,0.0,0.0,0.0,0.0,0.0,0.0,0.0,0.0,0.0,0.0,0.0,0.0,0.0,0.0,0.0,0.0,0.0,0.0,0.0,0.0,0.0,0.0,0.0,0.0,0.0,0.0,0.0,0.0,0.0,0.0,0.0,0.0,0.0,0.0,0.0,0.0,0.0,0.0,0.0,0.0,0.0,0.0,0.0,0.0,0.0,0.0,-0.0169,0.0,-0.1288,-0.2787,-0.3132,-0.3993,0.0,0.0,0.0,0.0,0.0,0.0,0.0,0.0,0.0,0.0,0.0,0.0,0.0,0.0,0.0,0.0,0.0,0.0,0.0,0.0,0.0,0.0,0.0,0.0,0.0,0.0,0.0,0.0,0.0,0.0,0.0,0.0,0.0,0.0,0.0,0.0,0.0,0.0,0.0,0.0,0.0,0.0,0.0,0.0,0.0,0.0,0.0,0.0,0.0,0.0,0.0,0.0,0.0,0.0,0.0,0.0,0.0,0.0,0.0,0.0,0.0,0.0,0.0,0.0,0.0,0.0,0.0,0.0,0.0,0.0,0.0,0.0,0.0,0.0,0.0,0.0,0.0,0.0,0.0,0.0,0.0,0.0,0.0,0.0,0.0,0.0,0.0,0.0,0.0,0.0,0.0,0.0,0.0,0.0,0.0,0.0,0.0,0.0,0.0,0.0,0.0,0.0,0.0,0.0,0.0,0.0,0.0,0.0,-0.0404,-0.0539,-0.1209,-0.1977,-0.2913,-0.3585,-0.4422,0.0,0.0,0.0,0.0,0.0,0.0,0.0,0.0,0.0,0.0,0.0,0.0,0.0,0.0,0.0,0.0,0.0,0.0,0.0,0.0,0.0,0.0,0.0,0.0,0.0,0.0,0.0,0.0,0.0,0.0,0.0,0.0,0.0,0.0,0.0,0.0,0.0,0.0,0.0,0.0,0.0,0.0,0.0,0.0,0.0,0.0,0.0,0.0,0.0,0.0,0.0,0.0,0.0,0.0,0.0,0.0,0.0,0.0,0.0,0.0,0.0,0.0,0.0,0.0,0.0,0.0,0.0,0.0,0.0,0.0,0.0,0.0,0.0,0.0,0.0,0.0,0.0,0.0,0.0,0.0,0.0,0.0,0.0,0.0,0.0,0.0,0.0,0.0,0.0,0.0,0.0,0.0,0.0,0.0,0.0,0.0,0.0,0.0,0.0,0.0,0.0,0.0,0.0,0.0,0.0,0.0,0.0,0.0,0.0,-0.1276,-0.1475,-0.2245,-0.358,-0.3882,-0.445,0.0,0.0,0.0,0.0,0.0,0.0,0.0,0.0,0.0,0.0,0.0,0.0,0.0,0.0,0.0,0.0,0.0,0.0,0.0,0.0,0.0,0.0,0.0,0.0,0.0,0.0,0.0,0.0,0.0,0.0,0.0,0.0,0.0,0.0,0.0,0.0,0.0,0.0,0.0,0.0,0.0,0.0,0.0,0.0,0.0,0.0,0.0,0.0,0.0,0.0,0.0,0.0,0.0,0.0,0.0,0.0,0.0,0.0,0.0,0.0,0.0,0.0,0.0,0.0,0.0,0.0,0.0,0.0,0.0,0.0,0.0,0.0,0.0,0.0,0.0,0.0,0.0,0.0,0.0,0.0,0.0,0.0,0.0,0.0,0.0,0.0,0.0,0.0,0.0,0.0,0.0,0.0,0.0,0.0,0.0,0.0,0.0,0.0,0.0,0.0,0.0,0.0,0.0,0.0,0.0,0.0,0.0,0.0,0.0,-0.2579,-0.2611,-0.308,-0.4082,-0.4386,-0.4788,-0.5392,0.0,0.0,0.0,0.0,0.0,0.0,0.0,0.0,0.0,0.0,0.0,0.0,0.0,0.0,0.0,0.0,0.0,0.0,0.0,0.0,0.0,0.0,0.0,0.0,0.0,0.0,0.0,0.0,0.0,0.0,0.0,0.0,0.0,0.0,0.0,0.0,0.0,0.0,0.0,0.0,0.0,0.0,0.0,0.0,0.0,0.0,0.0,0.0,0.0,0.0,0.0,0.0,0.0,0.0,0.0,0.0,0.0,0.0,0.0,0.0,0.0,0.0,0.0,0.0,0.0,0.0,0.0,0.0,0.0,0.0,0.0,0.0,0.0,0.0,0.0,0.0,0.0,0.0,0.0,0.0,0.0,0.0,0.0,0.0,0.0,0.0,0.0,0.0,0.0,0.0,0.0,0.0,0.0,0.0,0.0,0.0,0.0,0.0,0.0,0.0,0.0,0.0,0.0,0.0,0.0,0.0,0.0,0.0,-0.4284,-0.4353,-0.4353,-0.4353,-0.5024,-0.5395,0.0,0.0,0.0,0.0,0.0,0.0,0.0,0.0,0.0,0.0,0.0,0.0,0.0,0.0,0.0,0.0,0.0,0.0,0.0,0.0,0.0,0.0,0.0,0.0,0.0,0.0,0.0,0.0,0.0,0.0,0.0,0.0,0.0,0.0,0.0,0.0,0.0,0.0,0.0,0.0,0.0,0.0,0.0,0.0,0.0,0.0,0.0,0.0,0.0,0.0,0.0,0.0,0.0,0.0,0.0,0.0,0.0,0.0,0.0,0.0,0.0,0.0,0.0,0.0,0.0,0.0,0.0,0.0,0.0,0.0,0.0,0.0,0.0,0.0,0.0,0.0,0.0,0.0,0.0,0.0,0.0,0.0,0.0,0.0,0.0,0.0,0.0,0.0,0.0,0.0,0.0,0.0,0.0,0.0,0.0,0.0,0.0,0.0,0.0,0.0,0.0,0.0,0.0,0.0,0.0,0.0,0.0,0.0,0.0,-0.4253,-0.4824,-0.5126,-0.5126,-0.5292,-0.5458,0.0,0.0,0.0,0.0,0.0,0.0,0.0,0.0,0.0,0.0,0.0,0.0,0.0,0.0,0.0,0.0,0.0,0.0,0.0,0.0,0.0,0.0,0.0,0.0,0.0,0.0,0.0,0.0,0.0,0.0,0.0,0.0,0.0,0.0,0.0,0.0,0.0,0.0,0.0,0.0,0.0,0.0,0.0,0.0,0.0,0.0,0.0,0.0,0.0,0.0,0.0,0.0,0.0,0.0,0.0,0.0,0.0,0.0,0.0,0.0,0.0,0.0,0.0,0.0,0.0,0.0,0.0,0.0,0.0,0.0,0.0,0.0,0.0,0.0,0.0,0.0,0.0,0.0,0.0,0.0,0.0,0.0,0.0,0.0,0.0,0.0,0.0,0.0,0.0,0.0,0.0,0.0,0.0,0.0,0.0,0.0,0.0,0.0,0.0,0.0,0.0,0.0,0.0,0.0,0.0,0.0,0.0,0.0,-0.3718,-0.4755,-0.5193,-0.5395,-0.5395,-0.5395,-0.5425,0.0,0.0,0.0,0.0,0.0,0.0,0.0,0.0,0.0,0.0,0.0,0.0,0.0,0.0,0.0,0.0,0.0,0.0,0.0,0.0,0.0,0.0,0.0,0.0,0.0,0.0,0.0,0.0,0.0,0.0,0.0,0.0,0.0,0.0,0.0,0.0,0.0,0.0,0.0,0.0,0.0,0.0,0.0,0.0,0.0,0.0,0.0,0.0,0.0,0.0,0.0,0.0,0.0,0.0,0.0,0.0,0.0,0.0,0.0,0.0,0.0,0.0,0.0,0.0,0.0,0.0,0.0,0.0,0.0,0.0,0.0,0.0,0.0,0.0,0.0,0.0,0.0,0.0,0.0,0.0,0.0,0.0,0.0,0.0,0.0,0.0,0.0,0.0,0.0,0.0,0.0,0.0,0.0,0.0,0.0,0.0,0.0,0.0,0.0,0.0,0.0,0.0,0.0,0.0,0.0,0.0,0.0,0.0,-0.3984,-0.5359,-0.5395,-0.5395,-0.5395,-0.5395,-0.5428,0.0,0.0,0.0,0.0,0.0,0.0,0.0,0.0,0.0,0.0,0.0,0.0,0.0,0.0,0.0,0.0,0.0,0.0,0.0,0.0,0.0,0.0,0.0,0.0,0.0,0.0,0.0,0.0,0.0,0.0,0.0,0.0,0.0,0.0,0.0,0.0,0.0,0.0,0.0,0.0,0.0,0.0,0.0,0.0,0.0,0.0,0.0,0.0,0.0,0.0,0.0,0.0,0.0,0.0,0.0,0.0,0.0,0.0,0.0,0.0,0.0,0.0,0.0,0.0,0.0,0.0,0.0,0.0,0.0,0.0,0.0,0.0,0.0,0.0,0.0,0.0,0.0,0.0,0.0,0.0,0.0,0.0,0.0,0.0,0.0,0.0,0.0,0.0,0.0,0.0,0.0,0.0,0.0,0.0,0.0,0.0,0.0,0.0,0.0,0.0,0.0,0.0,0.0,0.0,0.0,0.0,0.0,0.0,-0.4489,-0.5359,-0.5395,-0.5395,-0.5395,-0.5395,-0.5524,0.0,0.0,0.0,0.0,0.0,0.0,0.0,0.0,0.0,0.0,0.0,0.0,0.0,0.0,0.0,0.0,0.0,0.0,0.0,0.0,0.0,0.0,0.0,0.0,0.0,0.0,0.0,0.0,0.0,0.0,0.0,0.0,0.0,0.0,0.0,0.0,0.0,0.0,0.0,0.0,0.0,0.0,0.0,0.0,0.0,0.0,0.0,0.0,-0.6631,0.0,0.0,0.0,0.0,0.0,0.0,0.0,0.0,0.0,0.0,0.0,0.0,0.0,0.0,0.0,0.0,0.0,0.0,0.0,0.0,0.0,0.0,0.0,0.0,0.0,0.0,0.0,0.0,0.0,0.0,0.0,0.0,0.0,0.0,0.0,0.0,0.0,0.0,0.0,0.0,0.0,0.0,0.0,0.0,0.0,0.0,0.0,0.0,0.0,0.0,0.0,0.0,0.0,0.0,0.0,0.0,0.0,0.0,0.0,-0.4655,-0.5362,-0.5395,-0.5395,-0.5428,-0.5782,-0.6112,0.0,0.0,0.0,0.0,0.0,0.0,0.0,0.0,0.0,0.0,0.0,0.0,0.0,0.0,0.0,0.0,0.0,0.0,0.0,0.0,0.0,0.0,0.0,0.0,0.0,0.0,0.0,0.0,0.0,0.0,0.0,0.0,0.0,0.0,0.0,0.0,0.0,0.0,0.0,0.0,0.0,0.0,0.0,0.0,0.0,0.0,0.0,0.0,0.0,0.0,0.0,0.0,0.0,0.0,0.0,0.0,0.0,0.0,0.0,0.0,0.0,0.0,0.0,0.0,0.0,0.0,0.0,0.0,0.0,0.0,0.0,0.0,0.0,0.0,0.0,0.0,0.0,0.0,0.0,0.0,0.0,0.0,0.0,0.0,0.0,0.0,0.0,0.0,0.0,0.0,0.0,0.0,0.0,0.0,0.0,0.0,0.0,0.0,0.0,0.0,0.0,0.0,0.0,0.0,0.0,0.0,0.0,-0.412,-0.4788,-0.5359,-0.5395,-0.5395,-0.5395,-0.6235,-0.6752,-0.6915,0.0,0.0,0.0,0.0,0.0,0.0,0.0,0.0,0.0,0.0,0.0,0.0,0.0,0.0,0.0,0.0,0.0,0.0,0.0,0.0,0.0,0.0,0.0,0.0,0.0,0.0,0.0,0.0,0.0,0.0,0.0,0.0,0.0,0.0,0.0,0.0,0.0,0.0,0.3381,0.145,0.0,0.0,0.0,0.0,0.0,0.0,0.0,0.0,-0.6876,0.0,0.0,0.0,0.0,0.0,0.0,0.0,0.0,0.0,0.0,0.0,0.0,0.0,0.0,0.0,0.0,0.0,0.0,0.0,0.0,0.0,0.0,0.0,0.0,0.0,0.0,0.0,0.0,0.0,0.0,0.0,0.0,0.0,0.0,0.0,0.0,0.0,0.0,0.0,0.0,0.0,0.0,0.0,0.0,0.0,0.0,0.0,0.0,0.0,0.0,0.0,0.0,0.0,0.0,0.0,0.0,-0.4356,-0.4924,-0.5292,-0.5395,-0.5395,-0.5395,-0.5428,-0.6231,-0.7046,-0.7767,0.0,0.0,0.0,0.0,0.0,0.0,0.0,0.0,0.0,0.0,0.0,0.0,0.0,0.0,0.0,0.0,0.0,0.0,0.0,0.0,0.0,0.0,0.0,0.0,0.0,0.0,0.0,0.0,0.0,0.0,0.0,0.0,0.0,0.0,0.0,0.0,0.0,0.0,0.0,0.0865,-0.0171,0.0,0.0,0.0,0.0,0.0,0.0,0.0,0.0,-0.812,0.0,0.0,0.0,0.0,0.0,0.0,0.0,0.0,0.0,0.0,0.0,0.0,0.0,0.0,0.0,0.0,0.0,0.0,0.0,0.0,0.0,0.0,0.0,0.0,0.0,0.0,0.0,0.0,0.0,0.0,0.0,0.0,0.0,0.0,0.0,0.0,0.0,0.0,0.0,0.0,0.0,0.0,0.0,0.0,0.0,0.0,0.0,0.0,0.0,0.0,0.0,0.0,0.0,0.0,0.0,-0.3885,-0.4891,-0.5395,-0.5395,-0.5395,-0.562,-0.6075,-0.692,-0.7827,0.0,0.0,0.0,0.0,0.0,0.0,0.0,0.0,0.0,0.0,0.0,0.0,0.0,0.0,0.0,0.0,0.0,0.0,0.0,0.0,0.0,0.0,0.0,0.0,0.0,0.0,0.0,0.0,0.0,0.0,0.0,0.0,0.0,0.0,0.0,0.0,0.0,0.0,0.0,0.0,-0.0043,-0.0943,-0.1697,0.0,0.0,0.0,0.0,0.0,0.0,-0.8029,-0.8993,0.0,0.0,0.0,0.0,0.0,0.0,0.0,0.0,0.0,0.0,0.0,0.0,0.0,0.0,0.0,0.0,0.0,0.0,0.0,0.0,0.0,0.0,0.0,0.0,0.0,0.0,0.0,0.0,0.0,0.0,0.0,0.0,0.0,0.0,0.0,0.0,0.0,0.0,0.0,0.0,0.0,0.0,0.0,0.0,0.0,0.0,0.0,0.0,0.0,0.0,0.0,0.0,0.0,0.0,0.0,-0.3849,-0.4924,-0.5495,-0.5495,-0.5491,-0.5881,-0.6719,-0.7567,-0.8479,0.0,0.0,0.0,0.0,0.0,0.0,0.0,0.0,0.0,0.0,0.0,0.0,0.0,0.0,0.0,0.0,0.0,0.0,0.0,0.0,0.0,0.0,0.0,0.0,0.0,0.0,0.0,0.0,0.0,0.0,0.0,0.0,0.0,0.0,0.0,0.0,0.0,0.0,0.0,0.0,0.0,-0.1533,-0.2258,-0.3406,0.0,0.0,0.0,0.0,-0.7741,-0.8584,0.0,0.0,0.0,0.0,0.0,0.0,0.0,0.0,0.0,0.0,0.0,0.0,0.0,0.0,0.0,0.0,0.0,0.0,0.0,0.0,0.0,0.0,0.0,0.0,0.0,0.0,0.0,0.0,0.0,0.0,0.0,0.0,0.0,0.0,0.0,0.0,0.0,0.0,0.0,0.0,0.0,0.0,0.0,0.0,0.0,0.0,0.0,0.0,0.0,0.0,0.0,0.0,0.0,0.0,0.0,0.0,-0.5782,-0.5818,-0.5822,-0.5855,-0.5855,-0.6181,-0.6859,-0.7725,-0.8538,0.0,0.0,0.0,0.0,0.0,0.0,0.0,0.0,0.0,0.0,0.0,0.0,0.0,0.0,0.0,0.0,0.0,0.0,0.0,0.0,0.0,0.0,0.0,0.0,0.0,0.0,0.0,0.0,0.0,0.0,0.0,0.0,0.0,0.0,0.0,0.0,0.0,0.0,0.0,0.0,0.0,-0.1263,-0.1424,-0.2989,-0.4474,0.0,0.0,-0.6321,-0.8273,-0.8693,0.0,0.0,0.0,0.0,0.0,0.0,0.0,0.0,0.0,0.0,0.0,0.0,0.0,0.0,0.0,0.0,0.0,0.0,0.0,0.0,0.0,0.0,0.0,0.0,0.0,0.0,0.0,0.0,0.0,0.0,0.0,0.0,0.0,0.0,0.0,0.0,0.0,0.0,0.0,0.0,0.0,0.0,0.0,0.0,0.0,0.0,0.0,0.0,0.0,0.0,0.0,0.0,0.0,0.0,0.0,-0.4616,-0.5378,-0.5752,-0.5892,-0.5892,-0.5892,-0.6474,-0.76,-0.8016,-0.8828,0.0,0.0,0.0,0.0,0.0,0.0,0.0,0.0,0.0,0.0,0.0,0.0,0.0,0.0,0.0,0.0,0.0,0.0,0.0,0.0,0.0,0.0,0.0,0.0,0.0,0.0,0.0,0.0,0.0,0.0,0.0,0.0,0.0,0.0,0.0,0.0,0.0,0.0,0.0,0.0,0.0,0.0,-0.1989,-0.3257,0.0,0.0,0.0,-0.7111,-0.8853,0.0,0.0,0.0,0.0,0.0,0.0,0.0,0.0,0.0,0.0,0.0,0.0,0.0,0.0,0.0,0.0,0.0,0.0,0.0,0.0,0.0,0.0,0.0,0.0,0.0,0.0,0.0,0.0,0.0,0.0,0.0,0.0,0.0,0.0,0.0,0.0,0.0,0.0,0.0,0.0,0.0,0.0,0.0,0.0,0.0,0.0,0.0,0.0,0.0,0.0,0.0,0.0,0.0,0.0,0.0,0.0,0.0,-0.5213,-0.5752,-0.6024,-0.6024,-0.602,-0.6765,-0.8215,-0.828,0.0,0.0,0.0,0.0,0.0,0.0,0.0,0.0,0.0,0.0,0.0,0.0,0.0,0.0,0.0,0.0,0.0,0.0,0.0,0.0,0.0,0.0,0.0,0.0,0.0,0.0,0.0,-0.0938,0.0,0.0,0.0,0.0,0.0,0.0,0.0,0.0,0.0,0.0,0.0,0.0,0.0,0.0,-0.1547,-0.252,-0.3458,-0.4472,0.0,0.0,-0.7755,-0.9304,-1.0093,-1.0768,0.0,0.0,0.0,0.0,0.0,0.0,0.0,0.0,0.0,0.0,0.0,0.0,0.0,0.0,0.0,0.0,0.0,0.0,0.0,0.0,0.0,0.0,0.0,0.0,0.0,0.0,0.0,0.0,0.0,0.0,0.0,0.0,0.0,0.0,0.0,0.0,0.0,0.0,0.0,0.0,0.0,0.0,0.0,0.0,0.0,0.0,0.0,0.0,0.0,0.0,0.0,0.0,0.0,0.0,0.0,-0.6251,-0.6354,-0.6354,-0.6354,-0.6387,-0.7036,-0.842,-0.849,-0.9134,0.0,0.0,0.0,0.0,0.0,0.0,0.0,0.0,0.0,0.0,0.0,0.0,0.0,0.0,0.0,0.0,0.0,0.0,0.0,0.0,0.0,0.0,0.0,0.0,0.0,0.0,0.0,0.0,0.0,0.0,0.0,0.0,0.0,0.0,0.0,0.0,0.0,0.0,0.0,0.0,0.0,-0.1441,-0.2486,-0.3362,-0.4574,0.0,0.0,-0.7825,-0.958,-1.0131,-1.0559,-1.1214,0.0,0.0,0.0,0.0,0.0,0.0,0.0,0.0,0.0,0.0,0.0,0.0,0.0,0.0,0.0,0.0,0.0,0.0,0.0,0.0,0.0,0.0,0.0,0.0,0.0,0.0,0.0,0.0,0.0,0.0,0.0,0.0,0.0,0.0,0.0,0.0,0.0,0.0,0.0,0.0,0.0,0.0,0.0,0.0,0.0,0.0,0.0,0.0,0.0,0.0,0.0,0.0,0.0,-0.6053,-0.642,-0.642,-0.642,-0.642,-0.642,-0.716,-0.87,-0.8738,-0.9398,0.0,0.0,0.0,0.0,0.0,0.0,0.0,0.0,0.0,0.0,0.0,0.0,0.0,0.0,0.0,0.0,0.0,0.0,0.0,0.0,0.0,0.0,0.0,0.0,0.0,0.0,0.0,0.0,0.0772,0.1167,0.109,0.0,0.0,0.0,0.0,0.0,0.0,0.0,0.0,0.0,0.0,-0.1526,-0.2448,-0.3429,0.0,0.0,-0.6619,-0.7662,-0.8946,-0.9389,-0.9965,-1.1117,-1.0111,0.0,0.0,0.0,0.0,0.0,0.0,0.0,0.0,0.0,0.0,0.0,0.0,0.0,0.0,0.0,0.0,0.0,0.0,0.0,0.0,0.0,0.0,0.0,0.0,0.0,0.0,0.0,0.0,0.0,0.0,0.0,0.0,0.0,0.0,0.0,0.0,0.0,0.0,0.0,0.0,0.0,0.0,0.0,0.0,0.0,0.0,0.0,0.0,0.0,0.0,0.0,0.0,-0.6464,-0.6464,-0.6546,-0.655,-0.6501,-0.655,-0.7313,-0.8829,-0.8972,-0.966,0.0,0.0,0.0,0.0,0.0,0.0,0.0,0.0,0.0,0.0,0.0,0.0,0.0,0.0,0.0,0.0,0.0,0.0,0.0,0.0,0.0,0.0,0.0,0.0,0.0,0.0,0.0,0.0,0.0717,0.1144,0.1088,0.0,0.0,0.0,0.0,0.0,0.0,0.0,0.0,0.0,0.0,-0.1691,-0.2914,-0.3665,-0.4426,-0.5345,-0.6234,-0.7165,-0.8186,-0.8531,-0.9061,-1.0213,0.0,0.0,0.0,0.0,0.0,0.0,0.0,0.0,0.0,0.0,0.0,0.0,0.0,0.0,0.0,0.0,0.0,0.0,0.0,0.0,0.0,0.0,0.0,0.0,0.0,0.0,0.0,0.0,0.0,0.0,0.0,0.0,0.0,0.0,0.0,0.0,0.0,0.0,0.0,0.0,0.0,0.0,0.0,0.0,0.0,0.0,0.0,0.0,0.0,0.0,0.0,0.0,0.0,-0.668,-0.6706,-0.6869,-0.689,-0.6696,-0.689,-0.7582,-0.8828,-0.9071,-0.9887,-1.1354,0.0,0.0,0.0,0.0,0.0,0.0,0.0,0.0,0.0,0.0,0.0,0.0,0.0,0.0,0.0,0.0,0.0,0.0,0.0,0.0,0.0,0.0,0.0,0.0,0.0,0.0,-0.0068,0.0656,0.1088,0.0,0.0,0.0,0.0,0.0,0.0,0.0,0.0,0.0,0.0,-0.1325,-0.2003,-0.3865,-0.4139,-0.4504,-0.5654,-0.5886,-0.6307,-0.7357,-0.7696,-0.7938,0.0,0.0,0.0,0.0,0.0,0.0,0.0,0.0,0.0,0.0,0.0,0.0,0.0,0.0,0.0,0.0,0.0,0.0,0.0,0.0,0.0,0.0,0.0,0.0,0.0,0.0,0.0,-0.5229,-0.4686,0.0,0.0,0.0,0.0,0.0,0.0,0.0,0.0,0.0,0.0,0.0,-0.1905,-0.1721,0.0,0.0,0.0,0.0,0.0,0.0,0.0,0.0,0.0,0.0,0.0,0.0,-0.6722,-0.6718,-0.6894,-0.6906,-0.6704,-0.6898,-0.7451,-0.8399,-0.8603,-0.9574,-1.1522,0.0,0.0,0.0,0.0,0.0,0.0,0.0,0.0,0.0,0.0,0.0,0.0,0.0,0.0,0.0,0.0,0.0,0.0,0.0,0.0,0.0,0.0,0.0,0.0,0.0,-0.1463,0.0,0.0,0.0,0.0,0.0,0.0,0.0,0.0,0.0,0.0,0.0,0.0613,-0.1106,-0.1269,-0.1903,-0.3689,-0.4021,-0.4272,0.0,0.0,0.0,0.0,0.0,0.0,0.0,0.0,0.0,0.0,0.0,0.0,0.0,0.0,-0.0501,0.4069,0.6468,0.788,0.8093,0.0,0.0,0.0,0.0,0.0,0.0,0.0,0.0,0.0,0.0,0.0,0.0,0.0,0.0,0.0,0.0,-0.4215,0.0,0.0,0.0,0.0,0.0,0.0,0.0,0.0,-0.1736,-0.1698,-0.1669,-0.1525,-0.1513,0.0,-0.1669,-0.1771,0.0,0.0,0.0,0.0,0.0,0.0,0.0,0.0,-0.6816,-0.6816,-0.7049,-0.709,-0.6895,-0.7082,-0.7503,-0.8265,-0.8707,-0.9622,-1.113,-1.1522,-1.1989,0.0,0.0,0.0,0.0,0.0,0.0,0.0,0.0,0.0,0.0,0.0,0.0,0.0,0.0,0.0,0.0,0.0,0.0,0.0,0.0,0.0,0.0,0.0,-0.1046,0.0,0.0,0.0,0.0,0.0,0.0,0.0,0.0,0.0,0.121,0.1267,0.0741,-0.0633,-0.1085,-0.181,-0.3262,0.0,0.0,0.0,0.0,0.0,0.0,0.0,-0.6083,-0.6924,-0.6032,-0.5553,-0.6668,-0.6284,-0.5858,-0.5909,0.0,0.0,0.0262,0.2448,0.4291,0.6514,0.9954,1.3672,1.7493,1.9829,2.1692,0.0,0.0,0.0,0.0,0.0,0.0,0.0,0.0,-0.1967,-0.2008,0.0,-0.2013,0.0,0.0,0.0,0.0,0.0,0.0,0.0,0.0,-0.1469,-0.1352,-0.1295,-0.1241,-0.1213,-0.1175,-0.1253,-0.1796,-0.2772,-0.3911,0.0,0.0,0.0,0.0,0.0,0.0,-0.6992,-0.7004,-0.7335,-0.7395,-0.7191,-0.7391,-0.7769,-0.8364,-0.9324,-0.9927,-1.0153,-1.0222,-1.0415,-1.0783,-1.0789,0.0,0.0,0.0,0.0,0.0,0.0,0.0,0.0,0.0,0.0,0.0,0.0,0.0,0.0,0.0,0.0,0.0,0.0,0.0,0.0,-0.0909,0.0,0.0,0.0,0.0,0.0,0.0,0.0,0.0,0.0,0.0,0.1297,0.1251,0.0887,0.0081,0.0,0.0,0.0,0.0,-0.4423,-0.4597,-0.4784,-0.4904,-0.4937,-0.4898,-0.4898,-0.4901,0.0,0.0,-0.5339,-0.5361,-0.5282,-0.5731,-0.5317,-0.5699,-0.4869,-0.1985,0.177,0.7706,0.8917,1.1918,2.0599,2.0444,1.9269,-0.1514,0.0,0.0,0.0,0.0,-0.1501,-0.1493,-0.1534,-0.2276,-0.2212,-0.1493,-0.2266,0.0,0.0,0.0,0.0,0.0,0.0,-0.2363,-0.1468,-0.2202,-0.2126,-0.131,-0.1291,-0.1283,-0.1283,-0.2017,-0.2894,-0.3904,-0.4961,-0.5554,-0.5692,0.0,0.0,0.0,0.0,-0.7053,-0.7155,-0.737,-0.7399,-0.7191,-0.7395,-0.757,-0.7744,-0.8585,-0.9112,-0.9334,-0.9895,-1.0303,-1.0559,-1.019,0.0,0.0,0.0,0.0,0.0,0.0,0.0,0.0,0.0,0.0,0.0,0.0,0.0,0.0,0.0,0.0,0.0,0.0,0.0,-0.3378,-0.1807,-0.0701,0.0,0.0,0.0,0.0,0.0,0.0,0.0,0.0,0.0,0.1283,0.1282,0.0943,0.0,0.0,-0.071,-0.1607,-0.2076,-0.2651,-0.3456,0.0,0.0,0.0,-0.3244,-0.2776,-0.2776,-0.2952,-0.2323,-0.0083,0.0471,0.132,0.3441,0.4275,0.4601,0.4542,0.272,0.358,0.867,1.231,1.5312,1.8769,2.0988,2.296,-0.1298,-0.1392,-0.1445,-0.1415,-0.1297,-0.1297,-0.1297,-0.1337,-0.199,-0.1884,-0.1328,-0.199,-0.1952,-0.1506,-0.2032,0.0,0.0,0.0,-0.2118,-0.1336,-0.204,-0.2,-0.1335,-0.1297,-0.1531,-0.1922,-0.2507,-0.3556,-0.4993,-0.5613,-0.6069,-0.6345,0.0,0.0,-0.7058,-0.7062,-0.7114,-0.7228,-0.7395,-0.7431,-0.7334,-0.7427,-0.7518,-0.7518,-0.7978,-0.828,-0.8389,-0.8879,-0.9221,-0.941,-0.915,-0.8977,0.0,0.0,0.0,0.0,0.0,0.0,0.0,0.0,0.0,0.0,0.0,-0.6111,-0.5952,0.0,0.0,0.0,-0.3843,-0.3803,-0.3381,-0.2043,0.0,0.0,0.0,0.0,0.0,0.0,0.0,0.1282,0.1251,0.1241,0.1282,0.1308,0.1096,0.0576,0.0205,-0.0163,-0.0686,0.0,-0.1775,-0.2382,-0.2101,-0.2014,-0.266,-0.2281,-0.1876,-0.1876,-0.1977,-0.0819,0.2453,0.3247,0.4569,0.7551,0.8776,0.9639,1.1818,0.9881,0.8922,1.2438,1.5238,1.7847,2.0328,2.3051,2.4915,-0.1303,-0.1301,-0.131,-0.1297,-0.1297,-0.1297,-0.1297,-0.1297,-0.13,-0.13,-0.1305,-0.1322,-0.1331,-0.1424,-0.134,0.0,-0.1413,-0.1414,-0.1414,-0.1297,-0.1375,-0.1375,-0.1297,-0.1297,-0.1804,-0.2662,-0.2778,-0.3789,-0.5574,-0.5806,-0.6391,-0.7361,-0.7288,-0.7248,-0.7211,-0.7195,-0.7195,-0.7211,-0.7403,-0.7518,-0.7518,-0.7518,-0.7518,-0.7518,-0.7518,-0.7518,-0.7518,-0.7518,-0.7561,-0.7761,-0.7991,-0.8169,-0.8338,0.0,0.0,0.0,0.0,0.0,0.0,0.0,0.0,0.0,0.0,0.0,0.0,0.0,0.0,0.0,-0.3732,0.0,-0.2671,-0.1836,0.0,0.0,0.0,0.1206,0.1301,0.1305,0.1304,0.1306,0.0,0.0,0.1313,0.0,0.131,0.1312,0.06,0.0129,0.0211,-0.064,-0.1374,-0.1416,-0.1475,-0.1577,-0.1635,-0.1573,-0.144,-0.144,-0.139,0.0439,0.3835,0.5092,0.6288,0.9989,1.0234,1.1799,1.6895,1.7397,1.7772,1.7632,1.7987,1.961,2.382,2.5021,2.4847,-0.1303,-0.13,-0.131,-0.1297,-0.1297,-0.1297,-0.1297,-0.1298,-0.1322,-0.1332,-0.1294,-0.1332,-0.1745,-0.2474,-0.1676,-0.1696,-0.2427,-0.2429,-0.2038,-0.1375,-0.2078,-0.2038,-0.1336,-0.1297,-0.1414,-0.1688,-0.2429,-0.3051,-0.3595,-0.5148,-0.6037,-0.6311,-0.7053,-0.7423,-0.7419,-0.7293,-0.7289,-0.7419,-0.7464,-0.7518,-0.7518,-0.7518,-0.7518,-0.7518,-0.7518,-0.7518,-0.7518,-0.7518,-0.7518,-0.7561,-0.7906,-0.8069,-0.7952,-0.824,0.0,0.0,0.0,0.0,0.0,0.0,0.0,0.0,0.0,-0.565,-0.5128,0.0,-0.3934,0.0,-0.3918,-0.3578,-0.2679,-0.1795,0.0,0.0,0.0736,0.128,0.1293,0.1316,0.1311,0.1293,0.1324,0.1328,0.1365,0.1376,0.1389,0.1366,0.1165,0.1016,0.1011,0.0857,0.0383,-0.0323,0.004,0.0239,-0.0494,-0.0038,0.0382,0.0458,0.2525,0.5447,0.8825,1.1893,1.4881,1.8107,1.9505,2.0394,2.1174,2.1718,2.1767,2.1621,2.259,2.385,2.4747,2.4805,2.4517,-0.1041,-0.0639,-0.1106,-0.1021,-0.0628,-0.1099,-0.1297,-0.1298,-0.1315,-0.1275,-0.1263,-0.1239,-0.1605,-0.2118,-0.1579,-0.1609,-0.2117,-0.2156,-0.1844,-0.1336,-0.1883,-0.1844,-0.1336,-0.1297,-0.1531,-0.196,-0.2545,-0.3051,-0.3556,-0.4681,-0.5226,-0.5226,-0.5806,-0.6118,-0.6157,-0.6923,-0.7387,-0.7518,-0.7015,-0.6584,-0.6157,-0.6549,-0.678,-0.678,-0.7246,-0.7518,-0.7518,-0.7518,-0.7522,-0.7642,-0.7953,-0.8091,-0.8052,-0.7958,-0.7979,0.0,0.0,0.0,0.0,0.0,0.0,0.0,0.0,0.0,0.0,0.0,-0.3983,-0.3952,-0.3669,-0.3258,-0.272,-0.1528,-0.0576,-0.0081,0.0774,0.1307,0.1307,0.1305,0.1309,0.1326,0.1335,0.1354,0.1386,0.1379,0.1377,0.135,0.1304,0.1318,0.1299,0.134,0.1107,0.0553,0.0913,0.1108,0.0416,0.0838,0.1232,0.1501,0.4034,0.7405,1.0973,1.4534,1.8189,2.1889,2.325,2.3646,2.3618,2.3841,2.3903,2.3776,2.4397,2.485,2.4246,2.4009,2.3802,-0.0505,0.0349,-0.0544,-0.0427,0.0349,-0.0661,-0.1169,-0.129,-0.1286,-0.1269,-0.1206,-0.1172,-0.1226,-0.1291,-0.1295,-0.1297,-0.1297,-0.1297,-0.1297,-0.1297,-0.1297,-0.1297,-0.1297,-0.1297,-0.1765,-0.2584,-0.2584,-0.309,-0.3984,-0.4137,-0.4215,-0.4178,-0.4334,-0.4411,-0.4489,-0.6195,-0.7092,-0.7092,-0.6195,-0.5303,-0.4448,-0.5265,-0.569,-0.5729,-0.6626,-0.7134,-0.713,-0.7173,-0.7253,-0.7454,-0.7638,-0.7825,-0.7974,-0.7363,-0.7315,0.0,-0.6703,0.0,0.0,0.0,0.0,0.0,0.0,0.0,0.0,-0.4311,-0.3922,-0.3863,-0.3233,-0.2683,-0.2466,-0.1026,-0.0041,0.0081,0.0795,0.1297,0.1298,0.1321,0.13,0.1307,0.1347,0.1374,0.1382,0.1317,0.13,0.1381,0.205,0.2487,0.2204,0.2364,0.2388,0.2104,0.2579,0.3795,0.3535,0.3266,0.3315,0.3442,0.6242,0.8956,1.249,1.5787,1.9241,2.2789,2.3855,2.4079,2.4544,2.4608,2.4594,2.429,2.4288,2.4185,2.3694,2.3487,2.3466,0.0443,0.1254,0.107,0.1032,0.1032,0.0258,-0.0523,-0.1218,-0.1232,-0.1217,-0.1177,-0.1201,-0.1215,-0.1222,-0.1286,-0.1297,-0.1297,-0.1297,-0.1297,-0.1297,-0.1297,-0.1297,-0.1297,-0.1297,-0.1414,-0.157,-0.1609,-0.1688,-0.1922,-0.2701,-0.3129,-0.3129,-0.3982,-0.4411,-0.4411,0.0,0.0,0.0,-0.48,-0.4606,-0.4409,-0.4567,-0.4681,-0.4683,-0.5035,0.0,-0.5231,-0.5386,-0.5509,-0.5509,-0.5735,0.0,0.0,0.0,0.0,0.0,0.0,0.0,0.0,0.0,0.0,0.0,-0.4411,-0.4056,-0.4188,-0.4141,-0.3838,-0.311,-0.2895,-0.2206,-0.0736,-0.0325,0.0201,0.095,0.1182,0.1297,0.1297,0.1303,0.1324,0.1333,0.1307,0.1383,0.1513,0.133,0.1473,0.195,0.4183,0.6067,0.6257,0.631,0.631,0.6408,0.862,1.0905,1.1187,1.087,1.0414,1.1616,1.4024,1.6178,1.7096,1.9892,2.2137,2.3639,2.3925,2.4077,2.3758,2.3925,2.4177,2.3507,2.331,2.3344,2.3973,2.4092,2.3969,0.1417,0.0,0.1709,0.1745,0.0,0.1147,0.0467,-0.0036,-0.0838,-0.1203,-0.1204,-0.1183,-0.1198,-0.1175,-0.1228,-0.1281,-0.1297,-0.1297,-0.1297,-0.1297,-0.1297,-0.1297,-0.1297,-0.1297,-0.1297,-0.1297,-0.1297,-0.1297,-0.1335,-0.1804,-0.2038,-0.2078,-0.2623,-0.2857,-0.2856,-0.2857,-0.3129,-0.3595,-0.3595,-0.3363,-0.2935,-0.3363,-0.3634,-0.3752,0.0,0.0,0.0,0.0,0.0,0.0,0.0,0.0,0.0,0.0,0.0,-0.5844,-0.5131,-0.4985,-0.5518,-0.4777,-0.4368,-0.4491,-0.4237,-0.403,-0.3994,-0.3694,-0.33,-0.273,-0.192,-0.105,-0.016,0.0319,0.0795,0.126,0.1297,0.1297,0.13,0.1324,0.1307,0.1565,0.3167,0.4393,0.4394,0.6287,0.7273,0.7425,0.9034,1.0413,1.0412,1.0443,1.043,1.047,1.1935,1.3453,1.3538,1.3526,1.3623,1.3924,1.6354,1.8302,1.8575,2.1293,2.3614,2.3992,2.4331,2.4426,2.4443,2.463,2.4739,2.4547,2.4425,2.4574,2.5261,2.4754,2.4106,0.2364,0.3226,0.2366,0.2472,0.3149,0.203,0.1462,0.119,0.0,0.0,0.0,-0.1172,-0.1189,-0.1173,-0.1217,-0.1234,-0.1296,-0.1297,-0.1297,-0.1297,-0.1297,-0.1297,-0.1297,-0.1297,-0.1297,-0.1297,-0.1297,-0.1297,-0.1297,-0.1297,-0.1297,-0.1297,-0.1297,-0.1297,-0.1297,-0.1139,-0.149,-0.227,-0.2465,-0.2155,-0.1375,-0.2117,-0.2624,-0.2821,-0.3717,-0.43,-0.4496,-0.4535,-0.4652,-0.4802,-0.48,-0.4877,-0.5029,-0.4416,-0.4457,-0.5267,-0.4185,-0.3839,-0.4693,-0.419,-0.3794,-0.3707,-0.387,-0.3995,-0.4027,-0.3251,-0.2676,-0.2412,-0.0922,0.0079,0.0198,0.0874,0.1313,0.1313,0.1313,0.1351,0.1546,0.1593,0.1698,0.2202,0.5294,0.7807,0.7782,1.087,1.3588,1.3606,1.3924,1.5044,1.5417,1.5186,1.5016,1.594,1.6676,1.6129,1.5903,1.622,1.5781,1.6558,1.8489,1.977,2.0289,2.2184,2.4103,2.4994,2.5134,2.5412,2.5715,2.5812,2.5853,2.6015,2.6069,2.6163,2.6441,2.5467,2.4609,0.3292,0.4113,0.3975,0.3837,0.363,0.284,0.202,0.1156,0.0246,-0.0535,-0.1204,-0.1194,-0.1208,-0.1175,-0.1239,-0.1292,-0.1297,-0.1297,-0.1297,0.0,-0.1297,-0.1297,-0.1297,-0.1297,-0.1297,-0.1297,-0.1297,-0.1297,-0.1297,-0.1297,-0.1297,-0.1297,-0.1297,-0.1297,-0.1257,-0.0549,-0.0274,-0.0431,-0.1138,-0.1453,-0.1297,-0.1453,-0.1609,-0.1806,-0.212,-0.2393,-0.2586,-0.2743,-0.286,-0.2899,-0.2901,-0.2899,-0.2938,-0.286,-0.2981,-0.345,-0.3256,-0.3413,-0.3919,-0.388,-0.3408,-0.2646,-0.2633,-0.3084,-0.4025,-0.3283,-0.2397,-0.155,-0.0457,0.0374,0.1001,0.1248,0.1371,0.1373,0.1334,0.1654,0.2544,0.2678,0.2972,0.3758,0.6742,0.8867,0.9352,1.1947,1.4287,1.4311,1.7093,1.998,2.2124,2.106,2.0641,2.3202,2.4143,2.4155,2.3406,2.407,2.3544,2.4181,2.4153,2.4416,2.4388,2.5259,2.6094,2.6363,2.6651,2.6923,2.7004,2.6953,2.6785,2.6733,2.6666,2.6666,2.6797,2.6426,2.612,0.3928,0.4267,0.4167,0.4064,0.3863,0.3375,0.2673,0.186,0.1461,0.0881,0.0186,0.0153,0.0154,0.0154,0.0117,0.0118,0.0118,0.0118,0.0118,0.0118,0.0118,0.0118,0.0118,0.0118,-0.0118,-0.0549,-0.0078,-0.0157,-0.051,-0.0118,0.0118,0.0118,0.0118,0.0118,0.0157,0.0509,0.0705,0.0705,0.0313,0.0118,0.0118,0.0118,0.0,-0.0235,-0.0353,-0.047,-0.0666,-0.0783,-0.1057,-0.1606,-0.1645,-0.1685,-0.1842,-0.2273,-0.251,-0.247,-0.2863,-0.3059,-0.2935,-0.2455,-0.1962,-0.1539,-0.1545,-0.1873,-0.2514,-0.1507,-0.0645,-0.0168,0.0546,0.1093,0.1514,0.1913,0.2146,0.2146,0.2651,0.3179,0.3589,0.3698,0.3907,0.4786,0.9108,1.2283,1.2316,1.6918,2.0176,2.0458,2.2404,2.4422,2.6156,2.5213,2.4572,2.6101,2.6377,2.6496,2.6771,2.6823,2.6785,2.6759,2.6785,2.6785,2.6785,2.7019,2.7111,2.7148,2.7363,2.7424,2.7348,2.721,2.7174,2.7312,2.7221,2.7236,2.7494,2.7388,2.6938,0.4331,0.4464,0.4123,0.398,0.3944,0.3694,0.3243,0.2681,0.2697,0.2399,0.1871,0.1476,0.1332,0.1332,0.1332,0.1293,0.1332,0.1332,0.1293,0.1332,0.1332,0.1332,0.1332,0.1332,0.094,0.0431,0.0979,0.094,0.0431,0.0979,0.1332,0.1293,0.1332,0.1332,0.1332,0.1488,0.1567,0.1567,0.1763,0.1685,0.1332,0.1332,0.1175,0.0901,0.0861,0.0822,0.0627,0.0548,0.0157,-0.0548,-0.0666,-0.0783,-0.1018,-0.1606,-0.1842,-0.1645,-0.2117,-0.2273,-0.188,-0.1193,-0.0643,-0.0442,-0.0452,-0.0457,-0.025,0.051,0.0942,0.0759,0.1135,0.1682,0.2014,0.2483,0.2983,0.3224,0.3937,0.4453,0.4697,0.4761,0.5263,0.6527,1.1835,1.5866,1.7639,2.2313,2.5789,2.6017,2.6837,2.7108,2.717,2.7615,2.765,2.7449,2.7108,2.7093,2.761,2.755,2.7464,2.7489,2.7464,2.7388,2.7439,2.7525,2.7675,2.77,2.7815,2.7913,2.775,2.763,2.7695,2.7879,2.7694,2.7542,2.7636,2.7422,2.7141,0.4325,0.4873,0.4304,0.3853,0.3903,0.3706,0.3607,0.3561,0.3635,0.3632,0.347,0.1996,0.141,0.1332,0.1371,0.141,0.1371,0.1332,0.1371,0.1371,0.1332,0.1332,0.141,0.1371,0.1254,0.1214,0.1332,0.1371,0.1175,0.1332,0.1331,0.1332,0.1332,0.1367,0.1407,0.2033,0.2387,0.2392,0.3175,0.282,0.141,0.1332,0.1175,0.0901,0.0901,0.0822,0.0705,0.0431,0.0313,0.0196,0.0,-0.0078,-0.0157,-0.0196,-0.0313,-0.0431,-0.0509,-0.0587,-0.0744,-0.0667,-0.0157,0.063,0.0844,0.1261,0.208,0.2205,0.1559,0.0671,0.0924,0.185,0.2645,0.2968,0.3452,0.4272,0.4547,0.4828,0.5682,0.5845,0.7235,1.1069,1.4899,1.8447,2.1126,2.4938,2.7415,2.75,2.7665,2.7799,2.7824,2.7972,2.8255,2.8424,2.8119,2.7735,2.7809,2.76,2.7665,2.759,2.7525,2.757,2.7665,2.7896,2.82,2.7887,2.8435,2.8607,2.8646,2.8771,2.8528,2.8295,2.7907,2.7303,2.6803,2.6718,2.6701,0.5633,0.6064,0.5614,0.5493,0.5506,0.5461,0.5454,0.5495,0.555,0.5574,0.5497,0.483,0.3902,0.2782,0.2782,0.2782,0.2781,0.2781,0.2782,0.2782,0.2781,0.2781,0.2782,0.2782,0.2507,0.2117,0.2508,0.2507,0.2156,0.2507,0.2704,0.2598,0.2591,0.2554,0.2448,0.2728,0.3086,0.344,0.3795,0.3795,0.3496,0.3002,0.2743,0.2624,0.2624,0.2507,0.2349,0.2232,0.1841,0.1135,0.0979,0.0901,0.0783,0.0274,0.0117,0.0392,0.0392,0.0352,0.0313,0.0861,0.1645,0.2543,0.2643,0.3016,0.3732,0.3806,0.342,0.2743,0.2519,0.2898,0.3893,0.4426,0.492,0.5401,0.591,0.6472,0.6855,0.8882,1.1032,1.2877,1.7592,2.1329,2.2988,2.5802,2.7689,2.7947,2.8207,2.8519,2.8519,2.8748,2.9059,2.9289,2.9196,2.9042,2.8803,2.8559,2.8448,2.8424,2.8439,2.8377,2.7961,2.7992,2.8084,2.7708,2.8072,2.8281,2.8089,2.8335,2.8335,2.8201,2.811,2.7524,2.729,2.7227,2.7273,0.6646,0.7052,0.6968,0.6841,0.6731,0.6738,0.6768,0.6793,0.68,0.68,0.6793,0.6673,0.584,0.4568,0.4276,0.4073,0.3841,0.3802,0.3802,0.3795,0.3718,0.3727,0.3725,0.3634,0.3315,0.29,0.327,0.3272,0.2788,0.3278,0.3548,0.3474,0.3566,0.3598,0.3473,0.3591,0.3923,0.4287,0.435,0.4553,0.4846,0.4413,0.4164,0.4289,0.4299,0.4284,0.4261,0.4187,0.3752,0.2852,0.2465,0.2348,0.2347,0.1525,0.133,0.1917,0.2034,0.2034,0.2034,0.274,0.3444,0.4027,0.4142,0.4297,0.4649,0.473,0.4763,0.4854,0.4355,0.4353,0.5004,0.562,0.6046,0.6429,0.7825,0.9006,0.9315,1.2354,1.4978,1.6205,2.0463,2.4066,2.5168,2.715,2.8528,2.8591,2.9012,2.9348,2.94,2.9766,3.0087,3.007,3.0077,2.9884,2.9695,2.9353,2.9265,2.9137,2.9046,2.8591,2.8276,2.8212,2.8137,2.7948,2.7794,2.777,2.8017,2.8085,2.7889,2.7699,2.7594,2.7437,2.6954,2.7166,2.7091,0.6857,0.7823,0.7907,0.753,0.6824,0.6885,0.6854,0.6992,0.6885,0.6816,0.6825,0.6426,0.6119,0.5888,0.5457,0.4717,0.3945,0.3889,0.3921,0.3868,0.3692,0.3548,0.3497,0.3336,0.326,0.3329,0.3438,0.3355,0.3241,0.3264,0.3214,0.3272,0.3801,0.4059,0.4081,0.4531,0.4905,0.4891,0.4924,0.4989,0.5028,0.4997,0.5111,0.5438,0.5489,0.5531,0.5864,0.5835,0.5678,0.5642,0.4474,0.4251,0.483,0.4094,0.3863,0.4572,0.4691,0.473,0.4652,0.4691,0.4846,0.4927,0.4963,0.5004,0.5196,0.5473,0.5845,0.6188,0.6659,0.6597,0.6643,0.6447,0.6633,0.7838,1.0719,1.2368,1.29,1.6171,1.9575,2.1798,2.3622,2.5837,2.8912,2.9677,2.9716,2.9804,3.0156,3.0356,3.0377,3.0707,3.0851,3.0703,3.0325,2.9885,2.9987,2.951,2.9397,2.9277,2.8783,2.8406,2.8381,2.8331,2.8221,2.8114,2.7896,2.7861,2.8059,2.796,2.7649,2.7401,2.7189,2.6935,2.6984,2.6061,2.6147,0.892,0.8985,0.9131,0.9042,0.8765,0.8479,0.8324,0.8295,0.8004,0.79,0.7842,0.7701,0.7265,0.6662,0.6479,0.5804,0.4891,0.4824,0.4824,0.4815,0.4763,0.4725,0.4714,0.4624,0.4616,0.4616,0.4583,0.455,0.4483,0.4483,0.4365,0.4198,0.437,0.4448,0.4428,0.4542,0.4841,0.5163,0.5188,0.5369,0.5788,0.5759,0.5961,0.6314,0.5614,0.5215,0.5243,0.5295,0.527,0.5156,0.4688,0.462,0.4847,0.4578,0.4538,0.4913,0.5004,0.5004,0.5004,0.5004,0.5234,0.5699,0.5777,0.6227,0.6896,0.8657,1.0234,1.0819,1.2919,1.3973,1.3101,0.993,0.8063,1.0695,1.2326,1.4338,1.6694,1.9948,2.2759,2.4088,2.6095,2.8618,2.9621,3.03,3.0389,3.0621,3.0784,3.0865,3.0868,3.0968,3.0861,3.0437,3.023,3.0036,2.9495,2.9092,2.8801,2.8746,2.8474,2.8108,2.7946,2.7836,2.7714,2.746,2.7426,2.7566,2.7635,2.7741,2.7435,2.7555,2.73,2.7232,2.727,2.682,2.6868,1.0321,0.9845,0.9929,0.9997,0.9957,0.9668,0.9519,0.9485,0.9204,0.906,0.9032,0.8888,0.8426,0.7845,0.7665,0.722,0.6417,0.579,0.5411,0.5401,0.5341,0.5328,0.531,0.5227,0.5182,0.5144,0.5151,0.5151,0.5293,0.5293,0.5297,0.5301,0.5604,0.5706,0.5589,0.583,0.6174,0.6426,0.6454,0.6697,0.7032,0.706,0.7201,0.7334,0.6661,0.6024,0.5635,0.5683,0.5668,0.5481,0.5218,0.5045,0.5128,0.5691,0.6071,0.6287,0.6612,0.6762,0.6758,0.6796,0.7441,0.8765,0.8973,0.9474,1.103,1.3465,1.4704,1.553,1.6938,1.8698,1.7812,1.407,1.2221,1.4671,1.5965,1.7626,2.0292,2.3846,2.5794,2.6538,2.8332,2.9951,3.0456,3.0621,3.0804,3.1083,3.1201,3.1298,3.1281,3.1103,3.0922,3.0431,3.0145,2.9862,2.9457,2.9027,2.8733,2.8648,2.8425,2.7981,2.7741,2.7572,2.7352,2.6976,2.6902,2.7065,2.7225,2.74,2.7582,2.7786,2.7754,2.7654,2.7765,2.7904,2.7773,1.0797,1.0206,1.0187,1.0187,1.0174,1.0079,1.0129,1.0053,1.0027,0.985,0.9748,0.9583,0.9247,0.9237,0.8737,0.8652,0.8175,0.6621,0.579,0.5739,0.5589,0.5521,0.5536,0.5371,0.5242,0.5182,0.4803,0.5076,0.5782,0.5905,0.6179,0.672,0.7443,0.7626,0.7627,0.8224,0.8754,0.8626,0.8527,0.8667,0.8897,0.869,0.8673,0.878,0.8851,0.8566,0.7676,0.7372,0.7186,0.7027,0.6318,0.5877,0.6328,0.7546,0.8675,0.8844,0.9723,1.0297,1.026,1.0104,1.1052,1.311,1.4155,1.4781,1.6799,1.8211,1.8747,1.8838,1.9388,1.9506,1.9719,1.9194,1.8726,1.9018,2.1205,2.3205,2.4819,2.7556,2.9826,2.9691,3.0225,3.046,3.0605,3.0931,3.1244,3.1399,3.1641,3.1773,3.1705,3.1446,3.1364,3.1078,3.0346,2.9594,2.9331,2.9096,2.8881,2.8664,2.8385,2.8073,2.8029,2.7897,2.7917,2.7622,2.7519,2.7675,2.766,2.7811,2.7926,2.8079,2.8051,2.8106,2.8215,2.8295,2.8174,1.0894,1.0238,1.0199,1.0199,1.0141,0.984,0.9725,0.9679,0.9405,0.922,0.9202,0.9077,0.9024,0.8998,0.8844,0.8804,0.8732,0.8046,0.7745,0.7699,0.7644,0.7588,0.7604,0.7555,0.7528,0.7563,0.7712,0.7842,0.7942,0.8167,0.8381,0.8411,0.8608,0.8669,0.8617,0.8831,0.8932,0.8932,0.8903,0.8903,0.8903,0.8938,0.8932,0.9099,1.0728,1.1646,1.1303,0.9579,0.8516,0.8389,0.7996,0.7842,0.8149,0.8837,0.9471,0.9699,1.0181,1.049,1.0522,1.0754,1.2037,1.404,1.4732,1.5951,1.8588,2.1246,2.2476,2.2923,2.4756,2.6518,2.6756,2.6821,2.5431,2.2896,2.3853,2.5947,2.7958,2.9722,3.0571,3.0723,3.0845,3.1128,3.1535,3.1826,3.2022,3.2415,3.2631,3.2588,3.2083,3.1798,3.1249,3.0484,2.9787,2.9385,2.9179,2.9047,2.896,2.8824,2.8593,2.8324,2.8272,2.8303,2.8316,2.8316,2.8237,2.8206,2.8197,2.8259,2.8389,2.842,2.8464,2.8558,2.8651,2.8645,2.8572,1.136,1.0675,1.0638,1.0646,1.058,1.0283,1.0269,1.034,0.9948,0.9744,0.9725,0.9543,0.9406,0.9432,0.9432,0.9432,0.9458,0.9614,0.9736,0.9581,0.8981,0.8804,0.8798,0.8891,0.8878,0.891,0.9183,0.94,0.9512,0.971,0.9819,0.9797,0.9928,1.0129,1.0231,1.0351,1.0495,1.0718,1.085,1.0784,1.0784,1.0784,1.1127,1.2005,1.3611,1.4814,1.5344,1.3981,1.2743,1.1939,1.1597,1.1619,1.2014,1.2603,1.2952,1.3509,1.4302,1.4917,1.4786,1.556,1.6413,1.8676,1.9301,2.0604,2.3175,2.5946,2.6839,2.7388,2.8808,3.0497,3.0595,3.0653,2.9479,2.7425,2.7218,2.8253,3.0393,3.0945,3.1147,3.1227,3.1418,3.179,3.2195,3.2563,3.2759,3.3214,3.3288,3.3002,3.23,3.1815,3.0944,3.014,2.9591,2.9296,2.9062,2.899,2.9001,2.8943,2.885,2.864,2.8504,2.8615,2.8682,2.87,2.8664,2.876,2.8772,2.884,2.8942,2.8922,2.8913,2.9049,2.9158,2.9169,2.914,1.2061,1.1452,1.1418,1.137,1.1319,1.1294,1.1446,1.1787,1.1444,1.1217,1.1141,1.0735,1.0565,1.0565,1.0557,1.0557,1.0667,1.0964,1.1158,1.0812,1.0032,0.9411,0.9492,0.9708,0.9782,0.9618,0.9832,1.0114,1.0694,1.0783,1.0688,1.1297,1.1586,1.1909,1.2324,1.2835,1.306,1.3386,1.3677,1.369,1.3945,1.4064,1.496,1.6699,1.7377,1.8398,1.9653,2.0053,1.9213,1.7314,1.6066,1.6125,1.7279,1.7883,1.815,1.8656,2.0811,2.1106,2.1773,2.1219,2.3067,2.5486,2.5997,2.8447,2.977,3.0149,3.0505,3.0617,3.1036,3.1289,3.1327,3.1327,3.1245,3.1597,3.0874,3.1038,3.1191,3.1359,3.1589,3.181,3.2057,3.238,3.2769,3.31,3.327,3.3404,3.3415,3.3098,3.2411,3.1787,3.0901,3.0253,2.9734,2.9465,2.9329,2.937,2.938,2.9341,2.9258,2.9081,2.8886,2.8997,2.9071,2.9082,2.9112,2.9241,2.9314,2.9299,2.9349,2.9348,2.9416,2.957,2.957,2.9504,2.9484,1.2023,1.1859,1.1825,1.1834,1.181,1.181,1.1909,1.1999,1.1925,1.194,1.1816,1.166,1.1731,1.1626,1.1699,1.1601,1.1852,1.1963,1.181,1.183,1.1816,1.167,1.1774,1.2067,1.2239,1.2247,1.2664,1.2786,1.2954,1.3336,1.3464,1.335,1.3633,1.3647,1.3642,1.3942,1.3816,1.3974,1.4097,1.4945,1.6137,1.6493,1.7465,1.9387,2.1501,2.2812,2.3799,2.562,2.4001,1.9225,1.8613,1.8586,1.9285,2.012,2.0718,2.0847,2.1549,2.2168,2.2258,2.2532,2.4073,2.6819,2.7705,2.8506,3.1108,3.1575,3.1668,3.1722,3.183,3.207,3.234,3.244,3.26,3.2891,3.2682,3.2522,3.2674,3.2836,3.2836,3.2929,3.2947,3.3148,3.3382,3.3584,3.3738,3.3884,3.3893,3.3653,3.2853,3.2207,3.1513,3.0711,3.0147,2.987,2.9697,2.9758,2.9784,2.9775,2.9696,2.9606,2.9486,2.9457,2.9523,2.9542,2.9476,2.9561,2.957,2.9561,2.9626,2.9698,2.9672,2.9698,2.9644,2.958,2.9608,1.2418,1.2418,1.2408,1.253,1.2691,1.274,1.2996,1.3321,1.3192,1.3453,1.3777,1.3679,1.3895,1.4373,1.4413,1.4392,1.4458,1.5018,1.5335,1.5487,1.6476,1.5484,1.4013,1.419,1.504,1.5253,1.6384,1.6938,1.6973,1.7126,1.7129,1.7089,1.6965,1.7104,1.7599,1.7367,1.7517,1.7894,1.788,1.8508,1.9472,1.9723,2.0885,2.2552,2.4624,2.5648,2.6726,2.8244,2.7133,2.4161,2.3192,2.3077,2.3418,2.3801,2.4244,2.4422,2.5405,2.6118,2.639,2.6438,2.7508,2.94,2.9756,3.0468,3.1981,3.2558,3.2636,3.2699,3.2755,3.2964,3.3267,3.3482,3.3696,3.387,3.3876,3.372,3.3538,3.3357,3.3462,3.3504,3.3532,3.3602,3.3934,3.4055,3.4196,3.4318,3.4431,3.3995,3.3419,3.2816,3.2272,3.1553,3.1156,3.1025,3.1029,3.1112,3.0877,3.0763,3.0438,3.0296,3.0086,2.9972,2.9739,2.9741,2.9784,2.9809,2.9801,2.9828,2.9902,2.9918,2.9853,2.9845,2.9853,2.9815,2.9815,1.3246,1.327,1.327,1.3498,1.3867,1.4046,1.4699,1.5381,1.5334,1.5794,1.6498,1.6346,1.6638,1.7856,1.7522,1.7875,1.7936,1.885,1.9541,1.9953,2.0533,1.9429,1.6016,1.733,1.8067,1.8396,2.0486,2.0901,2.0703,2.089,2.1011,2.0657,2.0741,2.1262,2.1201,2.1654,2.2415,2.2359,2.2117,2.2424,2.2951,2.3265,2.4232,2.5889,2.6425,2.7488,2.8526,2.9268,2.8892,2.9132,2.8389,2.7812,2.8431,2.8105,2.8474,2.9354,2.9873,3.0803,3.2041,3.152,3.2365,3.2942,3.268,3.297,3.3496,3.366,3.3766,3.3747,3.3789,3.3876,3.4015,3.4384,3.4525,3.4594,3.4839,3.4531,3.3863,3.3561,3.3661,3.3889,3.3923,3.4037,3.4244,3.4453,3.4634,3.4563,3.4666,3.4451,3.3951,3.3459,3.3053,3.2641,3.2423,3.24,3.2473,3.2579,3.2212,3.1908,3.1444,3.1133,3.0769,3.0517,3.0024,2.9842,2.9981,3.0052,3.0022,3.0078,3.0162,3.019,3.0139,3.0171,3.0196,3.0157,3.0138,1.4869,1.4892,1.4903,1.4937,1.5194,1.616,1.6738,1.7051,1.7905,1.8371,1.8679,1.86,1.8826,1.9184,1.9899,1.9909,2.028,2.1221,2.1536,2.1963,2.2189,2.2294,2.102,2.1824,2.1857,2.2095,2.2411,2.2828,2.2852,2.3094,2.2776,2.2873,2.3115,2.2825,2.3147,2.3468,2.3046,2.3219,2.3349,2.4315,2.5459,2.5846,2.6769,2.8441,2.8832,2.9213,2.9691,2.9893,2.9943,2.9821,2.9317,2.897,2.9045,2.9377,2.983,3.0351,3.1022,3.1746,3.2414,3.2735,3.2934,3.3718,3.3735,3.3765,3.3913,3.4319,3.4461,3.4533,3.4651,3.469,3.4775,3.4893,3.499,3.5043,3.5068,3.5026,3.4728,3.4612,3.4591,3.4669,3.4678,3.4736,3.4813,3.4832,3.4879,3.486,3.4832,3.4812,3.4498,3.4087,3.3865,3.362,3.3463,3.3391,3.3429,3.3456,3.3133,3.2793,3.2367,3.2024,3.164,3.1199,3.0784,3.0458,3.0253,3.0279,3.0311,3.029,3.0365,3.039,3.0419,3.0384,3.0378,3.0393,3.0392,1.5411,1.5411,1.5411,1.5926,1.6808,1.7528,1.8329,1.9128,1.9808,2.073,2.1536,2.1721,2.2294,2.3239,2.3717,2.4013,2.4164,2.4827,2.5608,2.6118,2.6265,2.6351,2.6458,2.6354,2.6096,2.5193,2.5957,2.6267,2.6343,2.6253,2.6508,2.6356,2.6249,2.6548,2.6356,2.6222,2.6468,2.6552,2.6415,2.7006,2.7849,2.8231,2.8624,2.9666,3.0006,3.0124,3.0177,3.019,3.0427,3.061,3.0427,2.9954,2.9747,3.0321,3.0894,3.142,3.2097,3.2874,3.3521,3.3473,3.3569,3.4311,3.4158,3.4218,3.441,3.4775,3.4848,3.4911,3.5009,3.513,3.5224,3.5331,3.5364,3.5372,3.5393,3.5361,3.5296,3.5151,3.5011,3.4994,3.4962,3.4944,3.498,3.5106,3.5117,3.5089,3.5201,3.5185,3.5268,3.493,3.4867,3.4671,3.4453,3.4351,3.4333,3.4229,3.3932,3.358,3.3188,3.2873,3.2569,3.2097,3.1607,3.1342,3.1061,3.0675,3.0666,3.0629,3.063,3.052,3.0507,3.0505,3.0496,3.05,3.0472,1.6324,1.6311,1.629,1.7273,1.8678,1.9219,2.0321,2.1519,2.2012,2.3382,2.4572,2.4974,2.569,2.7255,2.7635,2.8005,2.8273,2.8623,2.8923,2.9362,2.9398,2.9415,2.957,2.9395,2.8839,2.7508,2.8594,2.9465,2.9536,2.9904,2.9154,2.9726,2.9788,2.9254,2.9653,2.9869,2.9418,2.9271,2.9326,2.9513,2.9782,2.9946,3.01,3.0177,3.0522,3.0609,3.071,3.0839,3.1109,3.168,3.1744,3.1373,3.1116,3.1277,3.2062,3.2787,3.3371,3.3971,3.4492,3.4448,3.4369,3.5048,3.4592,3.4496,3.4966,3.517,3.5209,3.5209,3.5258,3.5297,3.5432,3.5537,3.5648,3.5684,3.5696,3.571,3.5657,3.5348,3.5215,3.5189,3.5262,3.527,3.5255,3.5296,3.5306,3.5331,3.5445,3.555,3.5599,3.5596,3.5441,3.5413,3.5154,3.5104,3.51,3.5048,3.475,3.451,3.4114,3.393,3.3728,3.367,3.3276,3.2349,3.1934,3.16,3.1448,3.1599,3.144,3.0932,3.0846,3.1096,3.0957,3.0673,3.0657,2.0411,2.0411,2.0398,2.0615,2.1147,2.2804,2.3663,2.4381,2.5766,2.6878,2.7175,2.7319,2.7456,2.8082,2.8641,2.9219,2.9678,2.9962,3.0133,3.0321,3.0334,3.0334,3.034,3.034,2.9954,2.9902,3.0152,3.0209,3.0209,3.0234,3.0203,3.0216,3.0209,3.0209,3.0203,3.0228,3.0196,3.0164,3.024,3.0265,3.0277,3.0402,3.0557,3.064,3.1158,3.1435,3.1679,3.2162,3.267,3.288,3.2905,3.2847,3.2725,3.2666,3.3003,3.3516,3.3906,3.4461,3.4986,3.5012,3.495,3.51,3.5065,3.5115,3.5347,3.5489,3.5538,3.555,3.5556,3.5596,3.564,3.5687,3.5729,3.5758,3.5781,3.5774,3.5765,3.5696,3.5589,3.5588,3.5605,3.5603,3.5544,3.5503,3.5537,3.5535,3.5581,3.565,3.5687,3.5709,3.565,3.5679,3.5735,3.5755,3.5816,3.5775,3.5621,3.5518,3.5279,3.5279,3.5221,3.5486,3.5067,3.3882,3.3158,3.2855,3.2758,3.2601,3.2508,3.2223,3.2021,3.1818,3.1709,3.1575,3.1195,2.1394,2.1458,2.1872,2.2493,2.3306,2.4673,2.5732,2.6448,2.7458,2.8145,2.8444,2.8603,2.8885,2.9276,2.9687,3.0171,3.0387,3.049,3.0509,3.0505,3.0495,3.0491,3.0491,3.0506,3.051,3.0486,3.0486,3.0409,3.0292,3.0294,3.0312,3.0294,3.03,3.03,3.03,3.0288,3.0312,3.0317,3.0386,3.0432,3.0519,3.0815,3.1284,3.1876,3.2184,3.2481,3.262,3.2856,3.3407,3.3793,3.391,3.4173,3.4326,3.4363,3.4223,3.4288,3.4546,3.4944,3.5329,3.5412,3.5411,3.5423,3.5532,3.5597,3.563,3.5685,3.5736,3.5741,3.5745,3.5761,3.5735,3.5742,3.5781,3.5786,3.5814,3.5847,3.5873,3.5887,3.5889,3.5882,3.5799,3.5736,3.5755,3.5741,3.5748,3.5764,3.5753,3.5764,3.5781,3.5781,3.5785,3.5828,3.5873,3.5914,3.5961,3.5984,3.5986,3.5984,3.6002,3.6002,3.5979,3.5923,3.5736,3.5061,3.4532,3.3961,3.3446,3.3105,3.329,3.3449,3.3048,3.2725,3.2662,3.2463,3.2067,2.2608,2.2818,2.3526,2.4425,2.5435,2.6282,2.7216,2.8106,2.8433,2.8897,2.9376,2.9558,2.9939,3.0431,3.0587,3.0675,3.0695,3.0678,3.0668,3.0665,3.0678,3.0697,3.0695,3.0695,3.0669,3.0662,3.0662,3.0603,3.0453,3.0418,3.0383,3.0418,3.0402,3.0392,3.0407,3.0438,3.0393,3.0477,3.072,3.0859,3.1224,3.1801,3.2487,3.3256,3.3475,3.3535,3.356,3.3888,3.4254,3.4661,3.4891,3.51,3.5656,3.579,3.5451,3.4958,3.5373,3.5636,3.5698,3.5687,3.5659,3.5659,3.5733,3.578,3.5803,3.5765,3.58,3.5791,3.5805,3.5811,3.5802,3.5827,3.5836,3.5853,3.5892,3.5923,3.5924,3.5948,3.5971,3.5944,3.5882,3.5867,3.586,3.5868,3.587,3.5863,3.5855,3.585,3.5883,3.5885,3.5895,3.5908,3.5941,3.5926,3.5953,3.5956,3.5956,3.5957,3.5957,3.5957,3.5956,3.5954,3.5734,3.5556,3.5345,3.4763,3.4171,3.3883,3.4306,3.4399,3.3927,3.3668,3.36,3.3297,3.2859,2.6705,2.7371,2.7464,2.766,2.7844,2.862,2.911,2.9347,2.9959,3.0406,3.0396,3.0474,3.0572,3.0722,3.0706,3.0706,3.07,3.0713,3.0706,3.0704,3.0755,3.0751,3.0701,3.0694,3.0714,3.0716,3.0716,3.07,3.0625,3.0626,3.0626,3.0626,3.0626,3.0645,3.061,3.0766,3.0653,3.082,3.1486,3.2228,3.2794,3.303,3.323,3.3568,3.4038,3.445,3.4536,3.4943,3.5425,3.5493,3.5615,3.568,3.579,3.5799,3.5775,3.568,3.5732,3.5791,3.5781,3.5791,3.58,3.578,3.5819,3.5794,3.5809,3.5812,3.5809,3.5791,3.5802,3.5828,3.5853,3.5874,3.5903,3.5933,3.5937,3.5957,3.5976,3.5917,3.5955,3.5957,3.5877,3.5913,3.5949,3.5964,3.5978,3.5953,3.5949,3.5949,3.595,3.5938,3.5941,3.5935,3.5937,3.5937,3.5937,3.5936,3.5935,3.5913,3.5913,3.5912,3.5915,3.5917,3.5912,3.5755,3.5617,3.5585,3.5193,3.5142,3.5516,3.5303,3.4788,3.4599,3.453,3.4153,3.3756,2.8306,2.8259,2.8726,2.8938,2.9055,2.9868,3.0226,3.0321,3.0599,3.076,3.0769,3.0749,3.0781,3.0796,3.0755,3.0752,3.0768,3.0747,3.0746,3.0742,3.0778,3.0799,3.0765,3.076,3.076,3.076,3.076,3.0776,3.0756,3.0754,3.0754,3.0752,3.0774,3.0754,3.0923,3.1281,3.1464,3.1744,3.234,3.3184,3.3807,3.4081,3.4282,3.4721,3.5131,3.5291,3.5449,3.5664,3.5937,3.5917,3.5916,3.5913,3.5912,3.5909,3.5906,3.5901,3.5901,3.5885,3.5824,3.5823,3.5849,3.5861,3.589,3.5903,3.5902,3.5902,3.5901,3.5922,3.5874,3.5878,3.5878,3.5854,3.5865,3.5876,3.59,3.5899,3.5901,3.5896,3.589,3.588,3.5887,3.591,3.5933,3.5936,3.5917,3.5878,3.5898,3.5898,3.5897,3.5916,3.5895,3.5893,3.589,3.5889,3.5907,3.5903,3.5902,3.59,3.5901,3.59,3.59,3.5897,3.5884,3.5887,3.5801,3.5815,3.5937,3.5878,3.5742,3.5682,3.5624,3.5384,3.5182,3.5267,3.4918,2.9445,2.8931,2.9559,2.9812,2.9866,3.0533,3.077,3.078,3.0784,3.0788,3.0785,3.0787,3.0792,3.0792,3.0793,3.0793,3.0792,3.0792,3.079,3.0791,3.0794,3.0795,3.0792,3.0789,3.079,3.079,3.079,3.0792,3.0874,3.099,3.1105,3.0842,3.1126,3.1169,3.1369,3.1962,3.2513,3.2908,3.3377,3.4099,3.4781,3.4956,3.5292,3.5664,3.5918,3.5954,3.6001,3.6003,3.5984,3.5987,3.5992,3.5975,3.5951,3.5952,3.5912,3.5891,3.5869,3.5837,3.5818,3.5833,3.5907,3.593,3.5937,3.5935,3.593,3.595,3.5951,3.5932,3.5884,3.5871,3.5877,3.5819,3.5817,3.5812,3.5807,3.5797,3.5797,3.5827,3.5823,3.5843,3.5825,3.5806,3.5836,3.5866,3.5846,3.5816,3.5812,3.5853,3.5861,3.5887,3.5885,3.5887,3.5882,3.5875,3.5858,3.586,3.5867,3.5873,3.5875,3.5867,3.5856,3.5853,3.5841,3.5856,3.5873,3.5869,3.5877,3.5889,3.5882,3.5816,3.5781,3.5818,3.5798,3.5892,3.5835,3.0683,3.0632,3.0658,3.0676,3.0668,3.0749,3.0786,3.08,3.0784,3.0787,3.0791,3.08,3.08,3.08,3.08,3.08,3.08,3.08,3.0801,3.08,3.0795,3.0798,3.08,3.0801,3.0801,3.0801,3.0801,3.0799,3.1007,3.1577,3.1367,3.1023,3.1731,3.1941,3.2277,3.2871,3.371,3.4135,3.4543,3.4952,3.5538,3.5772,3.5868,3.5924,3.5999,3.6017,3.6002,3.6001,3.5977,3.5979,3.5964,3.594,3.5898,3.59,3.5853,3.5792,3.578,3.576,3.5781,3.5852,3.5957,3.5956,3.5929,3.5882,3.5864,3.5819,3.5816,3.5836,3.5829,3.5799,3.5797,3.5789,3.5781,3.5772,3.5762,3.5765,3.5772,3.5788,3.5789,3.5799,3.5788,3.5749,3.5752,3.5794,3.5805,3.5771,3.5811,3.5836,3.5853,3.5862,3.5895,3.589,3.5897,3.5872,3.5815,3.5822,3.5837,3.5843,3.584,3.5824,3.5818,3.5818,3.5827,3.582,3.5833,3.5826,3.5822,3.5847,3.5875,3.5885,3.589,3.5874,3.5871,3.5872,3.5882,3.0801,3.0793,3.0789,3.08,3.0786,3.0798,3.08,3.0799,3.08,3.0799,3.08,3.0794,3.079,3.079,3.079,3.0791,3.0791,3.0791,3.0792,3.0791,3.0786,3.0786,3.0793,3.0793,3.0793,3.0832,3.0832,3.1163,3.1664,3.2103,3.2369,3.2419,3.2752,3.283,3.3199,3.3766,3.4618,3.5218,3.5467,3.5741,3.5844,3.6019,3.6021,3.6005,3.6005,3.5975,3.5942,3.5923,3.5886,3.5848,3.5819,3.5805,3.5783,3.5789,3.5752,3.57,3.5689,3.5716,3.5749,3.5805,3.5828,3.5857,3.5841,3.5821,3.5788,3.5797,3.5803,3.5783,3.5749,3.5751,3.5744,3.5741,3.5717,3.5726,3.5743,3.5732,3.5745,3.5741,3.5749,3.5751,3.5749,3.572,3.5715,3.5715,3.5732,3.5745,3.5799,3.5827,3.5833,3.5844,3.5852,3.5862,3.585,3.5859,3.5803,3.5795,3.5795,3.5795,3.5795,3.5795,3.5795,3.5799,3.5799,3.5795,3.5795,3.5807,3.5811,3.5824,3.5841,3.5851,3.5846,3.5839,3.585,3.5858,3.5871,3.0796,3.0803,3.0785,3.0791,3.08,3.0799,3.0797,3.0797,3.0786,3.0796,3.08,3.0794,3.0768,3.0767,3.0755,3.0732,3.0728,3.073,3.073,3.0728,3.0728,3.0734,3.0734,3.079,3.0882,3.1024,3.12,3.1566,3.2396,3.2658,3.3106,3.3553,3.3949,3.4018,3.3989,3.4652,3.5413,3.5862,3.6019,3.5992,3.5995,3.5971,3.5939,3.5919,3.5912,3.5884,3.5836,3.5833,3.5797,3.5756,3.5723,3.5712,3.5694,3.5683,3.5679,3.5667,3.5678,3.5702,3.5733,3.5768,3.5746,3.5772,3.5772,3.5739,3.5751,3.5748,3.5718,3.5753,3.5728,3.5697,3.5693,3.5708,3.5702,3.5723,3.5723,3.5708,3.5723,3.5713,3.5728,3.5713,3.5693,3.5679,3.5552,3.5557,3.563,3.567,3.5791,3.5819,3.5811,3.5818,3.5811,3.5823,3.5815,3.5807,3.5795,3.5795,3.5795,3.5795,3.5795,3.5795,3.5795,3.5791,3.5791,3.5795,3.5795,3.5795,3.5807,3.5815,3.5803,3.5811,3.5803,3.5833,3.585,3.5883,3.5872,3.0789,3.0794,3.0795,3.0796,3.0776,3.0794,3.0796,3.0781,3.0776,3.0773,3.0768,3.0726,3.0691,3.0682,3.067,3.0655,3.0652,3.0623,3.0701,3.0805,3.0911,3.0733,3.087,3.1051,3.1453,3.1785,3.1978,3.2354,3.3204,3.3656,3.4116,3.4528,3.4922,3.5096,3.4787,3.5519,3.5951,3.597,3.5985,3.5946,3.5903,3.5895,3.585,3.5804,3.5798,3.5778,3.5755,3.5751,3.5737,3.5694,3.5725,3.5702,3.5645,3.5669,3.5655,3.5623,3.5626,3.562,3.5639,3.5737,3.5737,3.5724,3.572,3.5697,3.5648,3.5621,3.5658,3.5713,3.5707,3.5681,3.569,3.5684,3.5668,3.5614,3.5602,3.5596,3.5565,3.5559,3.5527,3.5527,3.5593,3.5621,3.5445,3.536,3.5476,3.5596,3.5747,3.578,3.5727,3.5689,3.5645,3.5674,3.5655,3.5703,3.5703,3.5782,3.5795,3.5795,3.5795,3.5795,3.5782,3.575,3.5778,3.5782,3.5727,3.5664,3.5727,3.5791,3.5778,3.5754,3.5819,3.5845,3.5878,3.5889,3.5892,3.0726,3.073,3.0678,3.0661,3.0664,3.0721,3.0722,3.0724,3.0701,3.0661,3.0659,3.0636,3.063,3.062,3.0626,3.0602,3.0586,3.0632,3.0729,3.1402,3.1433,3.1907,3.2074,3.2155,3.2415,3.2676,3.2827,3.3172,3.4008,3.4376,3.4815,3.5236,3.5469,3.558,3.5467,3.5716,3.5794,3.5813,3.5791,3.5785,3.5775,3.5801,3.5814,3.5767,3.5751,3.5737,3.5709,3.57,3.5683,3.566,3.5684,3.5654,3.5621,3.5651,3.5643,3.5623,3.5617,3.561,3.5633,3.5669,3.5684,3.5664,3.5683,3.5678,3.5673,3.5673,3.5679,3.5648,3.5631,3.5589,3.5527,3.5509,3.5451,3.5314,3.5265,3.5265,3.5258,3.5246,3.5246,3.5265,3.5316,3.5353,3.5264,3.5151,3.522,3.5283,3.538,3.5438,3.5419,3.5374,3.5348,3.5419,3.5449,3.5557,3.562,3.5669,3.5722,3.5727,3.575,3.5795,3.5778,3.5713,3.5669,3.5654,3.5602,3.5531,3.5602,3.5644,3.5689,3.5712,3.5743,3.5803,3.5849,3.5869,3.5885,3.0675,3.0658,3.0616,3.0614,3.0602,3.0646,3.0653,3.0653,3.0617,3.0613,3.0613,3.0591,3.0572,3.0564,3.0539,3.0527,3.0546,3.091,3.1103,3.1859,3.2164,3.2474,3.2861,3.3205,3.3156,3.3398,3.3631,3.3955,3.4734,3.4768,3.5078,3.5466,3.5702,3.5645,3.5639,3.5698,3.5762,3.5772,3.5775,3.5755,3.5733,3.5722,3.5737,3.5717,3.5704,3.5715,3.5679,3.5664,3.5643,3.5628,3.5604,3.561,3.5616,3.5622,3.5647,3.5647,3.5653,3.5622,3.5571,3.5552,3.5526,3.5418,3.5577,3.5662,3.562,3.5571,3.5509,3.5496,3.5509,3.5438,3.5324,3.5302,3.525,3.5098,3.5089,3.5098,3.5078,3.5095,3.5122,3.5125,3.5133,3.5146,3.5084,3.5003,3.495,3.4968,3.5003,3.5068,3.5155,3.5143,3.5143,3.5223,3.5306,3.5412,3.5494,3.5554,3.5612,3.563,3.5669,3.5704,3.5639,3.5568,3.5556,3.5544,3.5483,3.5432,3.5451,3.5489,3.5529,3.5585,3.5601,3.5683,3.5791,3.5799,3.5776,3.0609,3.0609,3.059,3.0579,3.0582,3.0595,3.0598,3.0582,3.0602,3.0595,3.0575,3.0524,3.0496,3.0496,3.0486,3.0573,3.0777,3.1407,3.1842,3.2145,3.2758,3.3062,3.3255,3.3357,3.3849,3.4141,3.4353,3.4645,3.5412,3.5339,3.5429,3.5564,3.5643,3.5623,3.5664,3.5706,3.5744,3.5753,3.5745,3.5713,3.5693,3.5688,3.5674,3.5639,3.5646,3.5646,3.5631,3.5626,3.5614,3.5616,3.5608,3.562,3.5631,3.5673,3.5698,3.5693,3.5687,3.5559,3.5424,3.5385,3.5316,3.5265,3.5451,3.5483,3.5457,3.5385,3.5343,3.5265,3.5216,3.517,3.5106,3.5098,3.5081,3.5039,3.5022,3.5022,3.5022,3.503,3.5047,3.5066,3.5066,3.5049,3.4897,3.4803,3.4784,3.4773,3.4813,3.4888,3.4968,3.5034,3.507,3.513,3.5209,3.5309,3.5372,3.5438,3.5489,3.5537,3.5501,3.5501,3.5445,3.5412,3.5391,3.5385,3.5378,3.5345,3.5338,3.5359,3.5406,3.5438,3.5449,3.5524,3.5636,3.5567,3.5537,3.051,3.0506,3.0418,3.0386,3.0392,3.0446,3.0441,3.0392,3.0422,3.0465,3.0465,3.0439,3.0433,3.0469,3.1037,3.1237,3.1621,3.2166,3.2916,3.3346,3.3641,3.4199,3.4539,3.468,3.4969,3.5065,3.52,3.5219,3.5489,3.5585,3.5566,3.5578,3.5622,3.5608,3.5629,3.5679,3.5699,3.5689,3.5694,3.5679,3.5648,3.5643,3.5623,3.5606,3.5645,3.5651,3.5651,3.5656,3.5676,3.5662,3.5668,3.5673,3.5679,3.5679,3.5668,3.5509,3.5483,3.5417,3.5224,3.5185,3.5146,3.507,3.5201,3.5235,3.5212,3.5189,3.5146,3.5073,3.5022,3.4996,3.4953,3.4935,3.4889,3.4851,3.4832,3.4832,3.4832,3.4841,3.4851,3.4851,3.4889,3.486,3.4713,3.4711,3.468,3.4626,3.4647,3.4723,3.4793,3.4879,3.4971,3.5015,3.5094,3.5168,3.5247,3.5299,3.5364,3.5412,3.5357,3.5336,3.5336,3.5307,3.5266,3.5227,3.5192,3.5197,3.5235,3.525,3.5231,3.5258,3.5283,3.5361,3.5425,3.5361,3.5348,3.0469,3.0458,3.0371,3.0342,3.0348,3.0398,3.0392,3.0348,3.0398,3.0404,3.0404,3.0404,3.0404,3.0525,3.1229,3.1678,3.1761,3.2915,3.3723,3.398,3.4564,3.5001,3.5456,3.5623,3.552,3.5617,3.5623,3.552,3.5616,3.5628,3.5633,3.5639,3.5631,3.5637,3.5654,3.567,3.5679,3.5668,3.5651,3.5653,3.5639,3.5631,3.5637,3.5643,3.5679,3.5704,3.5704,3.5704,3.5704,3.5704,3.5704,3.5656,3.5602,3.5509,3.5438,3.5288,3.528,3.5197,3.5066,3.5043,3.498,3.4916,3.4906,3.4888,3.4953,3.4953,3.4925,3.4889,3.4879,3.486,3.4831,3.4781,3.4699,3.4615,3.4615,3.4623,3.4634,3.4634,3.4634,3.4615,3.4626,3.4636,3.4623,3.4612,3.4623,3.4645,3.4666,3.4718,3.4751,3.4791,3.486,3.4927,3.4964,3.5028,3.5096,3.5163,3.5168,3.5192,3.5152,3.5136,3.5184,3.5168,3.5105,3.5035,3.4982,3.5025,3.5102,3.5086,3.5077,3.5094,3.513,3.5187,3.5197,3.5135,3.5174,3.041,3.039,3.039,3.0416,3.039,3.0416,3.0416,3.041,3.0416,3.039,3.039,3.039,3.0479,3.0837,3.1605,3.2079,3.2663,3.3741,3.4409,3.4426,3.5057,3.5532,3.5558,3.5623,3.5641,3.5629,3.561,3.5633,3.5631,3.5662,3.5693,3.5704,3.5704,3.5698,3.5679,3.5704,3.5698,3.5693,3.5693,3.5693,3.5698,3.5704,3.5704,3.5704,3.5704,3.5704,3.5684,3.5679,3.5673,3.5673,3.5614,3.5521,3.5385,3.5239,3.5162,3.5117,3.5108,3.5006,3.4908,3.486,3.4782,3.471,3.4623,3.4649,3.4742,3.4802,3.4792,3.4752,3.4723,3.4723,3.4699,3.4689,3.4645,3.4612,3.4612,3.4612,3.4612,3.4612,3.4612,3.4612,3.4612,3.4612,3.4612,3.4612,3.4645,3.4695,3.4727,3.4747,3.4768,3.4768,3.4788,3.4868,3.4917,3.4964,3.4964,3.4991,3.4973,3.4964,3.4954,3.4963,3.5044,3.4991,3.4927,3.4927,3.4936,3.4927,3.4964,3.4973,3.5011,3.502,3.5039,3.5012,3.5021,3.5134,3.5054,3.0396,3.0406,3.0453,3.0477,3.0477,3.0483,3.0477,3.0483,3.0463,3.0486,3.0431,3.0543,3.0844,3.1441,3.2295,3.2904,3.3759,3.4446,3.5152,3.5222,3.5556,3.562,3.5656,3.5676,3.5681,3.5687,3.5668,3.5662,3.5673,3.5704,3.5704,3.5704,3.5704,3.5704,3.5704,3.5704,3.5704,3.5704,3.5704,3.5709,3.5709,3.5709,3.5704,3.5704,3.5704,3.5698,3.5637,3.5559,3.5509,3.5464,3.5302,3.5216,3.517,3.5103,3.503,3.4972,3.4935,3.4851,3.4752,3.471,3.4658,3.4655,3.4612,3.4612,3.4634,3.4647,3.4647,3.4634,3.4612,3.4612,3.4612,3.4612,3.4612,3.4612,3.4612,3.4612,3.4612,3.4612,3.4612,3.4612,3.4612,3.4623,3.4623,3.4645,3.4685,3.4727,3.4758,3.4788,3.4848,3.4868,3.4839,3.4897,3.4888,3.4908,3.4908,3.4908,3.4908,3.4908,3.4936,3.4927,3.4927,3.5097,3.5211,3.4984,3.4917,3.523,3.5325,3.4993,3.5012,3.5287,3.5514,3.5723,3.5619,3.5638,3.5372,3.0436,3.0458,3.0499,3.0485,3.0485,3.0485,3.0716,3.103,3.1079,3.1286,3.1482,3.1314,3.1372,3.2053,3.3004,3.3724,3.4463,3.5209,3.5477,3.5604,3.5643,3.5668,3.5679,3.5704,3.5704,3.5704,3.5704,3.5704,3.5704,3.5704,3.5704,3.5704,3.5704,3.5704,3.5704,3.5704,3.5693,3.5704,3.5693,3.5679,3.5684,3.5684,3.5704,3.5704,3.5684,3.5662,3.5559,3.5444,3.5371,3.5258,3.5117,3.5041,3.4988,3.4888,3.4822,3.4792,3.4761,3.4739,3.4645,3.4612,3.4612,3.4612,3.4612,3.4612,3.4612,3.4645,3.4626,3.4612,3.4612,3.4612,3.4612,3.4612,3.4612,3.4612,3.4612,3.4612,3.4612,3.4612,3.4612,3.4612,3.4623,3.4655,3.4676,3.4727,3.4747,3.4798,3.4829,3.479,3.483,3.4939,3.4932,3.499,3.5045,3.4954,3.4908,3.4908,3.4908,3.4908,3.5097,3.5003,3.5097,3.5391,3.5524,3.5543,3.5742,3.6168,3.613,3.578,3.595,3.6386,3.6519,3.6613,3.6434,3.6273,3.6226,3.0485,3.049,3.0509,3.0592,3.0669,3.0669,3.1171,3.189,3.1969,3.2366,3.2863,3.2383,3.216,3.2687,3.3509,3.408,3.4685,3.5353,3.564,3.5684,3.5704,3.5704,3.5704,3.5704,3.5704,3.5704,3.5704,3.5704,3.5704,3.5709,3.5715,3.5709,3.5679,3.5648,3.5648,3.562,3.5559,3.5527,3.5534,3.5589,3.5631,3.5654,3.5637,3.5637,3.5601,3.5521,3.5405,3.5302,3.5209,3.51,3.4954,3.4889,3.4821,3.4742,3.468,3.4655,3.4666,3.4645,3.4612,3.4612,3.4612,3.4612,3.4612,3.4612,3.4612,3.4612,3.4612,3.4612,3.4612,3.4612,3.4612,3.4612,3.4612,3.4612,3.4612,3.4623,3.4623,3.4623,3.4623,3.4623,3.4655,3.4687,3.4754,3.4795,3.4816,3.4866,3.4848,3.4801,3.4807,3.4932,3.4986,3.5147,3.5315,3.5192,3.5153,3.5211,3.5315,3.5704,3.5893,3.5495,3.5363,3.5979,3.6358,3.6434,3.668,3.6946,3.7059,3.686,3.7144,3.7315,3.7495,3.7476,3.7173,3.7088,3.7317,3.049,3.0491,3.0554,3.0951,3.1492,3.1569,3.2048,3.2782,3.2865,3.2966,3.329,3.3798,3.3895,3.3909,3.4132,3.4615,3.5248,3.5646,3.5665,3.5704,3.5704,3.5704,3.5698,3.5662,3.5698,3.5673,3.5662,3.5693,3.5596,3.5643,3.5687,3.5665,3.5514,3.5451,3.5412,3.5353,3.528,3.5295,3.5302,3.5324,3.5324,3.5359,3.5451,3.5392,3.529,3.5224,3.513,3.5041,3.4981,3.4879,3.4782,3.471,3.4687,3.4655,3.4623,3.4612,3.4612,3.4612,3.4612,3.4623,3.4623,3.4623,3.4623,3.4604,3.4604,3.4612,3.4612,3.4612,3.4612,3.4612,3.4612,3.4612,3.4612,3.4612,3.4612,3.4645,3.4666,3.4695,3.4695,3.4676,3.4687,3.4733,3.4814,3.4833,3.4838,3.4849,3.4847,3.4798,3.478,3.4902,3.5113,3.5398,3.5665,3.5844,3.5991,3.5937,3.6061,3.6499,3.6737,3.6424,3.6443,3.6908,3.7211,3.7249,3.7306,3.7466,3.7561,3.7902,3.7732,3.7864,3.8254,3.831,3.7988,3.7942,3.8209]}]]